[[{"header":{"parameterUnit":"m.s-1","parameterCategory":1,"la1":30.6,"la2":28.766,"lo1":-90.7593,"lo2":-88.6598,"dy":0.0162,"dx":0.0183,"nx":116,"ny":114,"refTime":"2023-04-16T12:00:00:Z","depth":0,"parameterNumber":2,"parameterNumberName":"U-component_of_WINDS"},"data":[0.0,0.0,0.0,0.0,0.0,0.0,0.0,0.0,0.0,0.0,0.0,0.0,0.0,0.0,0.0,0.0,0.0,0.0,0.0,0.0,0.0,0.0,0.0,0.0,0.0,0.0,0.0,0.0,0.0,0.0,0.0,0.0,0.0,0.0,0.0,0.0,0.0,0.0,0.0,0.0,0.0,0.0,0.0,0.0,0.0,0.0,0.0,0.0,0.0,0.0,0.0,0.0,0.0,0.0,0.0,0.0,0.0,0.0,0.0,0.0,0.0,0.0,0.0,0.0,0.0,0.0,0.0,0.0,0.0,0.0,0.0,0.0,0.0,0.0,0.0,0.0,0.0,0.0,0.0,0.0,0.0,0.0,0.0,0.0,0.0,0.0,0.0,0.0,0.0,0.0,0.0,0.0,0.0,0.0,0.0,0.0,0.0,0.0,0.0,0.0,0.0,0.0,0.0,0.0,0.0,0.0,0.0,0.0,0.0,0.0,0.0,0.0,0.0,0.0,0.0,0.0,0.0,0.0,0.0,0.0,0.0,0.0,0.0,0.0,0.0,0.0,0.0,0.0,0.0,0.0,0.0,0.0,0.0,0.0,0.0,0.0,0.0,0.0,0.0,0.0,0.0,0.0,0.0,0.0,0.0,0.0,0.0,0.0,0.0,0.0,0.0,0.0,0.0,0.0,0.0,0.0,0.0,0.0,0.0,0.0,0.0,0.0,0.0,0.0,0.0,0.0,0.0,0.0,0.0,0.0,0.0,0.0,0.0,0.0,0.0,0.0,0.0,0.0,0.0,0.0,0.0,0.0,0.0,0.0,0.0,0.0,0.0,0.0,0.0,0.0,0.0,0.0,0.0,0.0,0.0,0.0,0.0,0.0,0.0,0.0,0.0,0.0,0.0,0.0,0.0,0.0,0.0,0.0,0.0,0.0,0.0,0.0,0.0,0.0,0.0,0.0,0.0,0.0,0.0,0.0,0.0,0.0,0.0,0.0,0.0,0.0,0.0,0.0,0.0,0.0,0.0,0.0,0.0,0.0,0.0,0.0,0.0,0.0,0.0,0.0,0.0,0.0,0.0,0.0,0.0,0.0,0.0,0.0,0.0,0.0,0.0,0.0,0.0,0.0,0.0,0.0,0.0,0.0,0.0,0.0,0.0,0.0,0.0,0.0,0.0,0.0,0.0,0.0,0.0,0.0,0.0,0.0,0.0,0.0,0.0,0.0,0.0,0.0,0.0,0.0,0.0,0.0,0.0,0.0,0.0,0.0,0.0,0.0,0.0,0.0,0.0,0.0,0.0,0.0,0.0,0.0,0.0,0.0,0.0,0.0,0.0,0.0,0.0,0.0,0.0,0.0,0.0,0.0,0.0,0.0,0.0,0.0,0.0,0.0,0.0,0.0,0.0,0.0,0.0,0.0,0.0,0.0,0.0,0.0,0.0,0.0,0.0,0.0,0.0,0.0,0.0,0.0,0.0,0.0,0.0,0.0,0.0,0.0,0.0,0.0,0.0,0.0,0.0,0.0,0.0,0.0,0.0,0.0,0.0,0.0,0.0,0.0,0.0,0.0,0.0,0.0,0.0,0.0,0.0,0.0,0.0,0.0,0.0,0.0,0.0,0.0,0.0,0.0,0.0,0.0,0.0,0.0,0.0,0.0,0.0,0.0,0.0,0.0,0.0,0.0,0.0,0.0,0.0,0.0,0.0,0.0,0.0,0.0,0.0,0.0,0.0,0.0,0.0,0.0,0.0,0.0,0.0,0.0,0.0,0.0,0.0,0.0,0.0,0.0,0.0,0.0,0.0,0.0,0.0,0.0,0.0,0.0,0.0,0.0,0.0,0.0,0.0,0.0,0.0,0.0,0.0,0.0,0.0,0.0,0.0,0.0,0.0,0.0,0.0,0.0,0.0,0.0,0.0,0.0,0.0,0.0,0.0,0.0,0.0,0.0,0.0,0.0,0.0,0.0,0.0,0.0,0.0,0.0,0.0,0.0,0.0,0.0,0.0,0.0,0.0,0.0,0.0,0.0,0.0,0.0,0.0,0.0,0.0,0.0,0.0,0.0,0.0,0.0,0.0,0.0,0.0,0.0,0.0,0.0,0.0,0.0,0.0,0.0,0.0,0.0,0.0,0.0,0.0,0.0,0.0,0.0,0.0,0.0,0.0,0.0,0.0,0.0,0.0,0.0,0.0,0.0,0.0,0.0,0.0,0.0,0.0,0.0,0.0,0.0,0.0,0.0,0.0,0.0,0.0,0.0,0.0,0.0,0.0,0.0,0.0,0.0,0.0,0.0,0.0,0.0,0.0,0.0,0.0,0.0,0.0,0.0,0.0,0.0,0.0,0.0,0.0,0.0,0.0,0.0,0.0,0.0,0.0,0.0,0.0,0.0,0.0,0.0,0.0,0.0,0.0,0.0,0.0,0.0,0.0,0.0,0.0,0.0,0.0,0.0,0.0,0.0,0.0,0.0,0.0,0.0,0.0,0.0,0.0,0.0,0.0,0.0,0.0,0.0,0.0,0.0,0.0,0.0,0.0,0.0,0.0,0.0,0.0,0.0,0.0,0.0,0.0,0.0,0.0,0.0,0.0,0.0,0.0,0.0,0.0,0.0,0.0,0.0,0.0,0.0,0.0,0.0,0.0,0.0,0.0,0.0,0.0,0.0,0.0,0.0,0.0,0.0,0.0,0.0,0.0,0.0,0.0,0.0,0.0,0.0,0.0,0.0,0.0,0.0,0.0,0.0,0.0,0.0,0.0,0.0,0.0,0.0,0.0,0.0,0.0,0.0,0.0,0.0,0.0,0.0,0.0,0.0,0.0,0.0,0.0,0.0,0.0,0.0,0.0,0.0,0.0,0.0,0.0,0.0,0.0,0.0,0.0,0.0,0.0,0.0,0.0,0.0,0.0,0.0,0.0,0.0,0.0,0.0,0.0,0.0,0.0,0.0,0.0,0.0,0.0,0.0,0.0,0.0,0.0,0.0,0.0,0.0,0.0,0.0,0.0,0.0,0.0,0.0,0.0,0.0,0.0,0.0,0.0,0.0,0.0,0.0,0.0,0.0,0.0,0.0,0.0,0.0,0.0,0.0,0.0,0.0,0.0,0.0,0.0,0.0,0.0,0.0,0.0,0.0,0.0,0.0,0.0,0.0,0.0,0.0,0.0,0.0,0.0,0.0,0.0,0.0,0.0,0.0,0.0,0.0,0.0,0.0,0.0,0.0,0.0,0.0,0.0,0.0,0.0,0.0,0.0,0.0,0.0,0.0,0.0,0.0,0.0,0.0,0.0,0.0,0.0,0.0,0.0,0.0,0.0,0.0,0.0,0.0,0.0,0.0,0.0,0.0,0.0,0.0,0.0,0.0,0.0,0.0,0.0,0.0,0.0,0.0,0.0,0.0,0.0,0.0,0.0,0.0,0.0,0.0,0.0,0.0,0.0,0.0,0.0,0.0,0.0,0.0,0.0,0.0,0.0,0.0,0.0,0.0,0.0,0.0,0.0,0.0,0.0,0.0,0.0,0.0,0.0,0.0,0.0,0.0,0.0,0.0,0.0,0.0,0.0,0.0,0.0,0.0,0.0,0.0,0.0,0.0,0.0,0.0,0.0,0.0,0.0,0.0,0.0,0.0,0.0,0.0,0.0,0.0,0.0,0.0,0.0,0.0,0.0,0.0,0.0,0.0,0.0,0.0,0.0,0.0,0.0,0.0,0.0,0.0,0.0,0.0,0.0,0.0,0.0,0.0,0.0,0.0,0.0,0.0,0.0,0.0,0.0,0.0,0.0,0.0,0.0,0.0,0.0,0.0,0.0,0.0,0.0,0.0,0.0,0.0,0.0,0.0,0.0,0.0,0.0,0.0,0.0,0.0,0.0,0.0,0.0,0.0,0.0,0.0,0.0,0.0,0.0,0.0,0.0,0.0,0.0,0.0,0.0,0.0,0.0,0.0,0.0,0.0,0.0,0.0,0.0,0.0,0.0,0.0,0.0,0.0,0.0,0.0,0.0,0.0,0.0,0.0,0.0,0.0,0.0,0.0,0.0,0.0,0.0,0.0,0.0,0.0,0.0,0.0,0.0,0.0,0.0,0.0,0.0,0.0,0.0,0.0,0.0,0.0,0.0,0.0,0.0,0.0,0.0,0.0,0.0,0.0,0.0,0.0,0.0,0.0,0.0,0.0,0.0,0.0,0.0,0.0,0.0,0.0,0.0,0.0,0.0,0.0,0.0,0.0,0.0,0.0,0.0,0.0,0.0,0.0,0.0,0.0,0.0,0.0,0.0,0.0,0.0,0.0,0.0,0.0,0.0,0.0,0.0,0.0,0.0,0.0,0.0,0.0,0.0,0.0,0.0,0.0,0.0,0.0,0.0,0.0,0.0,0.0,0.0,0.0,0.0,0.0,0.0,0.0,0.0,0.0,0.0,0.0,0.0,0.0,0.0,0.0,0.0,0.0,0.0,0.0,0.0,0.0,0.0,0.0,0.0,0.0,0.0,0.0,0.0,0.0,0.0,0.0,0.0,0.0,0.0,0.0,0.0,0.0,0.0,0.0,0.0,0.0,0.0,0.0,0.0,0.0,0.0,0.0,0.0,0.0,0.0,0.0,0.0,0.0,0.0,0.0,0.0,0.0,0.0,0.0,0.0,0.0,0.0,0.0,0.0,0.0,0.0,0.0,0.0,0.0,0.0,0.0,0.0,0.0,0.0,0.0,0.0,0.0,0.0,0.0,0.0,0.0,0.0,0.0,0.0,0.0,0.0,0.0,0.0,0.0,0.0,0.0,0.0,0.0,0.0,0.0,0.0,0.0,0.0,0.0,0.0,0.0,0.0,0.0,0.0,0.0,0.0,0.0,0.0,0.0,0.0,0.0,0.0,0.0,0.0,0.0,0.0,0.0,0.0,0.0,0.0,0.0,0.0,0.0,0.0,0.0,0.0,0.0,0.0,0.0,0.0,0.0,0.0,0.0,0.0,0.0,0.0,0.0,0.0,0.0,0.0,0.0,0.0,0.0,0.0,0.0,0.0,0.0,0.0,0.0,0.0,0.0,0.0,0.0,0.0,0.0,0.0,0.0,0.0,0.0,0.0,0.0,0.0,0.0,0.0,0.0,0.0,0.0,0.0,0.0,0.0,0.0,0.0,0.0,0.0,0.0,0.0,0.0,0.0,0.0,0.0,0.0,0.0,0.0,0.0,0.0,0.0,0.0,0.0,0.0,0.0,0.0,0.0,0.0,0.0,0.0,0.0,0.0,0.0,0.0,0.0,0.0,0.0,0.0,0.0,0.0,0.0,0.0,0.0,0.0,0.0,0.0,0.0,0.0,0.0,0.0,0.0,0.0,0.0,0.0,0.0,0.0,0.0,0.0,0.0,0.0,0.0,0.0,0.0,0.0,0.0,0.0,0.0,0.0,0.0,0.0,0.0,0.0,0.0,0.0,0.0,0.0,0.0,0.0,0.0,0.0,0.0,0.0,0.0,0.0,0.0,0.0,0.0,0.0,0.0,0.0,0.0,0.0,0.0,0.0,0.0,0.0,0.0,0.0,0.0,0.0,0.0,0.0,0.0,0.0,0.0,0.0,0.0,0.0,0.0,0.0,0.0,0.0,0.0,0.0,0.0,0.0,0.0,0.0,0.0,0.0,0.0,0.0,0.0,0.0,0.0,0.0,0.0,0.0,0.0,0.0,0.0,0.0,0.0,0.0,0.0,0.0,0.0,0.0,0.0,0.0,0.0,0.0,0.0,0.0,0.0,0.0,0.0,0.0,0.0,0.0,0.0,0.0,0.0,0.0,0.0,0.0,0.0,0.0,0.0,0.0,0.0,0.0,0.0,0.0,0.0,0.0,0.0,0.0,0.0,0.0,0.0,0.0,0.0,0.0,0.0,0.0,0.0,0.0,0.0,0.0,0.0,0.0,0.0,0.0,0.0,0.0,0.0,0.0,0.0,0.0,0.0,0.0,0.0,0.0,0.0,0.0,0.0,0.0,0.0,0.0,0.0,0.0,0.0,0.0,0.0,0.0,0.0,0.0,0.0,0.0,0.0,0.0,0.0,0.0,0.0,0.0,0.0,0.0,0.0,0.0,0.0,0.0,0.0,0.0,0.0,0.0,-1.9557,0.0,0.0,0.0,0.0,0.0,0.0,0.0,0.0,0.0,0.0,0.0,0.0,0.0,0.0,0.0,0.0,0.0,0.0,0.0,0.0,0.0,0.0,0.0,0.0,0.0,0.0,0.0,0.0,0.0,0.0,0.0,0.0,0.0,0.0,0.0,0.0,0.0,0.0,0.0,0.0,0.0,0.0,0.0,0.0,0.0,0.0,0.0,0.0,0.0,0.0,0.0,0.0,0.0,0.0,0.0,0.0,0.0,0.0,0.0,0.0,0.0,0.0,0.0,0.0,0.0,0.0,0.0,0.0,0.0,0.0,0.0,0.0,0.0,0.0,0.0,0.0,0.0,0.0,0.0,0.0,0.0,0.0,0.0,0.0,0.0,0.0,0.0,0.0,0.0,0.0,0.0,0.0,0.0,0.0,0.0,0.0,0.0,0.0,0.0,0.0,0.0,0.0,0.0,0.0,0.0,0.0,0.0,0.0,0.0,0.0,0.0,0.0,0.0,0.0,0.0,0.0,-2.0642,0.0,0.0,0.0,0.0,0.0,0.0,0.0,0.0,0.0,0.0,0.0,0.0,0.0,0.0,0.0,0.0,0.0,0.0,0.0,0.0,0.0,0.0,0.0,0.0,0.0,0.0,0.0,0.0,0.0,0.0,0.0,0.0,0.0,0.0,0.0,0.0,0.0,0.0,0.0,0.0,0.0,0.0,0.0,0.0,0.0,0.0,0.0,0.0,0.0,0.0,0.0,0.0,0.0,0.0,0.0,0.0,0.0,0.0,0.0,0.0,0.0,0.0,0.0,0.0,0.0,0.0,0.0,0.0,0.0,0.0,0.0,0.0,0.0,0.0,0.0,0.0,0.0,0.0,0.0,0.0,0.0,0.0,0.0,0.0,0.0,0.0,0.0,0.0,0.0,0.0,0.0,0.0,0.0,0.0,0.0,0.0,0.0,0.0,0.0,0.0,0.0,0.0,0.0,0.0,0.0,0.0,0.0,0.0,-2.6632,-2.6931,-2.6333,-2.6871,-2.6811,-2.6207,-2.438,-2.2666,-2.1196,-2.1077,0.0,0.0,0.0,0.0,0.0,0.0,0.0,0.0,0.0,0.0,0.0,0.0,0.0,0.0,0.0,0.0,0.0,0.0,0.0,0.0,0.0,0.0,0.0,0.0,0.0,0.0,0.0,0.0,0.0,0.0,0.0,0.0,0.0,0.0,0.0,0.0,0.0,0.0,-3.0478,-3.1243,-3.1346,-3.0645,0.0,0.0,0.0,0.0,0.0,0.0,0.0,0.0,0.0,0.0,0.0,0.0,0.0,0.0,0.0,0.0,0.0,0.0,0.0,0.0,0.0,0.0,0.0,0.0,0.0,0.0,0.0,0.0,0.0,0.0,0.0,0.0,0.0,0.0,0.0,0.0,0.0,0.0,0.0,0.0,0.0,0.0,0.0,0.0,-2.3819,-2.2703,0.0,0.0,0.0,0.0,0.0,0.0,0.0,0.0,0.0,0.0,0.0,0.0,0.0,-2.6123,-2.6806,-2.8154,-2.8547,-2.8098,-2.9385,-2.9654,-2.9082,-2.9172,-2.9172,-2.9052,-2.8745,0.0,-2.3191,-2.2673,0.0,0.0,0.0,0.0,0.0,0.0,0.0,0.0,0.0,0.0,0.0,0.0,0.0,0.0,0.0,0.0,0.0,0.0,0.0,0.0,0.0,0.0,0.0,0.0,0.0,0.0,0.0,0.0,0.0,0.0,0.0,0.0,0.0,0.0,0.0,0.0,-3.148,-3.3754,-3.4352,-3.5733,-3.6369,-3.6251,-3.3184,-3.0056,-2.6939,-2.541,0.0,0.0,0.0,0.0,0.0,0.0,0.0,0.0,0.0,0.0,0.0,0.0,0.0,0.0,0.0,0.0,0.0,0.0,0.0,0.0,0.0,0.0,0.0,0.0,0.0,0.0,0.0,0.0,0.0,0.0,0.0,0.0,0.0,0.0,0.0,0.0,0.0,0.0,0.0,-2.4896,-2.5255,-2.3939,-2.4657,-2.4477,0.0,0.0,0.0,0.0,0.0,0.0,0.0,0.0,0.0,-2.6692,-2.7764,-2.8603,-2.9205,-3.0911,-3.1809,-3.1928,-3.3245,-3.3335,-3.2377,-3.2736,-3.2497,-3.1779,-3.1779,-3.0372,-2.7889,-2.5764,-2.3879,-2.2263,0.0,0.0,0.0,0.0,-2.1385,-2.1445,0.0,0.0,0.0,0.0,0.0,0.0,0.0,0.0,0.0,0.0,0.0,0.0,0.0,0.0,0.0,-2.5615,0.0,0.0,0.0,0.0,0.0,0.0,0.0,0.0,0.0,0.0,0.0,0.0,-3.5549,-3.7913,-3.8302,-4.0098,-4.0935,-4.0876,-3.9709,-3.6011,-3.0563,-2.854,-2.6598,0.0,0.0,0.0,0.0,0.0,0.0,0.0,0.0,0.0,0.0,0.0,0.0,0.0,0.0,0.0,0.0,0.0,0.0,0.0,0.0,0.0,0.0,0.0,0.0,0.0,0.0,0.0,0.0,0.0,0.0,0.0,0.0,0.0,0.0,0.0,0.0,0.0,0.0,-2.6004,-2.6422,-2.5232,-2.6572,-2.6572,0.0,0.0,0.0,0.0,0.0,0.0,-2.7829,-2.8813,-2.9442,-2.9621,-3.076,-3.1659,-3.2258,-3.3754,-3.4741,-3.525,-3.6237,-3.6118,-3.5043,-3.5519,-3.513,-3.3993,-3.3993,-3.3365,-3.2019,-2.8876,-2.6422,-2.4537,-2.3931,-2.3302,-2.2742,-2.3272,-2.3452,-2.3511,0.0,0.0,0.0,0.0,0.0,0.0,0.0,0.0,0.0,0.0,0.0,0.0,0.0,0.0,-2.8427,-3.0883,-3.0163,-2.9714,0.0,0.0,0.0,0.0,0.0,0.0,0.0,0.0,0.0,-3.522,-3.92,-4.1803,-4.306,-4.4377,-4.5005,-4.4975,-4.4287,-4.1213,-3.636,-3.2695,-3.0273,-2.8623,0.0,0.0,0.0,0.0,0.0,0.0,0.0,0.0,0.0,0.0,0.0,0.0,0.0,0.0,0.0,0.0,0.0,0.0,0.0,0.0,0.0,0.0,0.0,0.0,0.0,0.0,0.0,0.0,0.0,0.0,0.0,0.0,0.0,0.0,0.0,0.0,0.0,0.0,0.0,-2.6572,-2.8757,0.0,0.0,0.0,0.0,-2.8397,-3.0105,-3.1212,-3.1241,-3.3095,-3.4412,-3.507,-3.5789,-3.6447,-3.7045,-3.7165,-3.7225,-3.7255,-3.7315,-3.7015,-3.6387,-3.6417,-3.6058,-3.54,-3.54,-3.5011,-3.4144,-3.142,-2.9146,-2.7315,-2.6656,-2.6004,-2.5405,-2.5435,-2.5465,-2.5465,0.0,0.0,0.0,0.0,0.0,0.0,0.0,0.0,0.0,0.0,0.0,0.0,0.0,-3.0342,-3.3066,-3.3993,-3.522,-3.4921,-3.2587,0.0,0.0,0.0,0.0,0.0,0.0,0.0,-3.6417,-3.9955,-4.303,-4.5244,-4.6561,-4.7429,-4.7608,-4.7189,-4.6531,-4.481,-4.2051,-3.7243,-3.3686,-3.0962,-2.7584,-2.5365,0.0,0.0,0.0,0.0,0.0,0.0,0.0,0.0,0.0,0.0,0.0,0.0,0.0,0.0,0.0,0.0,0.0,0.0,0.0,0.0,0.0,0.0,0.0,0.0,0.0,0.0,0.0,0.0,0.0,0.0,0.0,0.0,0.0,0.0,0.0,0.0,0.0,-3.0432,-3.2377,0.0,-3.0612,-3.1061,-3.1719,-3.2347,-3.3844,-3.507,-3.5908,-3.7045,-3.7554,-3.7375,-3.8422,-3.8691,-3.8033,-3.8901,-3.911,-3.8691,-3.8691,-3.8362,-3.7704,-3.7285,-3.6746,-3.6118,-3.5699,-3.537,-3.507,-3.4113,-3.2287,-3.0043,-2.9385,-2.8727,-2.8158,-2.8158,-2.8158,-2.8158,0.0,0.0,0.0,0.0,0.0,0.0,0.0,0.0,0.0,0.0,0.0,-2.6782,-2.8996,-3.3574,-3.6836,-3.7734,-3.8571,-3.7764,-3.4711,0.0,0.0,0.0,0.0,0.0,0.0,-3.7315,-4.0516,-4.4058,-4.6232,-4.7878,-4.8955,-4.9164,-4.909,-4.864,-4.8147,-4.7339,-4.6082,-4.2051,-3.8157,-3.4434,-3.0637,-2.8716,-2.7693,0.0,0.0,0.0,0.0,0.0,0.0,0.0,0.0,0.0,0.0,0.0,0.0,0.0,0.0,0.0,0.0,0.0,0.0,0.0,0.0,0.0,0.0,0.0,0.0,0.0,0.0,0.0,0.0,0.0,0.0,0.0,0.0,0.0,0.0,0.0,-3.3425,-3.4083,-3.5729,-3.6118,-3.4352,-3.4562,-3.51,-3.5791,-3.7045,-3.8182,-3.902,-3.9709,-3.9858,-3.9409,-4.0277,-4.0307,-3.9409,-4.0277,-4.0397,-3.9738,-3.9738,-3.926,-3.8362,-3.7943,-3.7285,-3.6477,-3.6028,-3.5699,-3.5519,-3.5519,-3.444,-3.2766,-3.2108,-3.145,-3.0939,-3.0939,-3.0939,-3.0881,0.0,0.0,0.0,0.0,0.0,0.0,0.0,0.0,0.0,0.0,-2.4627,-2.8218,-3.2168,-3.6118,-3.9529,-4.2201,-3.9984,-3.7853,-3.6567,-3.1539,0.0,0.0,0.0,0.0,-3.6656,-4.1145,-4.4725,-4.7399,-4.8686,-4.9673,-5.0255,-4.9643,-4.9389,-4.9389,-4.9389,-4.9,-4.8267,-4.695,-4.3768,-3.9294,-3.484,0.0,-3.2905,0.0,0.0,0.0,0.0,0.0,0.0,0.0,0.0,0.0,0.0,0.0,0.0,0.0,0.0,0.0,0.0,0.0,0.0,0.0,0.0,0.0,0.0,0.0,0.0,0.0,0.0,0.0,0.0,0.0,0.0,0.0,0.0,0.0,-3.157,-3.3395,-3.54,-3.7375,-3.8781,-3.905,-3.7764,-3.8781,-3.926,-3.8631,-3.9798,-4.0516,-4.0546,-4.1145,-4.1474,-4.1482,-4.1482,-4.1414,-4.1422,-4.1414,-4.1085,-4.0427,-4.0397,-3.9709,-3.8452,-3.8422,-3.7704,-3.6507,-3.6507,-3.6118,-3.5519,-3.5519,-3.5519,-3.5429,-3.4771,-3.4113,-3.3544,-3.3544,-3.3514,-3.3395,0.0,0.0,0.0,0.0,0.0,0.0,0.0,0.0,0.0,0.0,-2.6512,-3.0761,-3.4292,-3.8212,-4.1235,-4.291,-4.0666,-3.8392,-3.6596,0.0,0.0,0.0,0.0,0.0,-4.2102,-4.4825,-4.7279,-4.9388,-5.0272,-5.102,-5.1648,-5.1468,-5.1379,-5.1379,-5.09,-5.0331,-4.9643,-4.8805,-4.7459,-4.5311,0.0,0.0,-3.5062,0.0,0.0,0.0,0.0,0.0,0.0,0.0,0.0,0.0,0.0,0.0,0.0,0.0,0.0,0.0,0.0,0.0,0.0,0.0,0.0,0.0,0.0,0.0,0.0,0.0,0.0,0.0,0.0,0.0,0.0,0.0,0.0,-3.4891,-3.51,-3.7225,-3.9499,-4.1436,-4.2423,-4.2821,-4.2462,-4.2273,-4.2333,-4.2671,-4.303,-4.3449,-4.3928,-4.3658,-4.3299,-4.2821,-4.2791,-4.2342,-4.1384,-4.1901,-4.1811,-4.1115,-4.0636,-4.0217,-3.9828,-3.8841,-3.7943,-3.7135,-3.6686,-3.6118,-3.5519,-3.5519,-3.5519,-3.5489,-3.531,-3.51,-3.4891,-3.4382,-3.3934,-3.3395,0.0,0.0,0.0,0.0,0.0,0.0,0.0,0.0,0.0,0.0,-2.732,-3.1898,-3.4382,-3.8452,-4.1265,-4.2043,-3.9948,-3.7404,-3.4592,0.0,0.0,0.0,0.0,-4.2192,-4.5514,-4.7788,-4.9912,-5.1917,-5.1977,-5.2396,-5.3025,-5.2755,-5.2606,-5.2606,-5.2217,-5.1678,-5.102,-5.0361,0.0,0.0,0.0,0.0,-3.998,-3.5374,-3.3797,-3.3802,-3.1947,-3.0799,-2.9962,-2.8766,0.0,0.0,0.0,0.0,0.0,0.0,0.0,0.0,0.0,0.0,0.0,0.0,0.0,0.0,0.0,0.0,0.0,0.0,0.0,0.0,0.0,0.0,0.0,0.0,-3.5669,-3.8212,-3.9559,-4.0846,-4.2372,-4.4306,-4.4676,-4.4825,-4.5125,-4.4556,-4.4317,-4.4706,-4.4736,-4.4885,-4.5274,-4.4915,-4.4436,-4.3738,-4.3708,-4.324,-4.2222,-4.2581,-4.2432,-4.1811,-4.1414,-4.0935,-4.0367,-3.9589,-3.8721,-3.7793,-3.7135,-3.6507,-3.5908,-3.5609,-3.5519,0.0,0.0,0.0,0.0,0.0,-3.4472,-3.3844,0.0,0.0,0.0,0.0,0.0,0.0,0.0,0.0,0.0,0.0,0.0,-3.169,-3.3125,-3.7195,-3.9918,-4.0038,-3.8242,-3.5579,0.0,0.0,0.0,-3.6866,-4.0793,-4.4317,-4.7578,-5.0122,-5.2306,-5.4102,-5.3623,-5.3713,-5.4311,-5.3683,-5.3443,-5.3503,-5.3354,-5.2965,-5.2396,0.0,0.0,0.0,0.0,0.0,-4.5794,-3.9945,-3.8917,-4.0217,-3.7032,-3.5143,-3.3974,-3.2766,0.0,0.0,0.0,0.0,0.0,0.0,0.0,0.0,0.0,0.0,0.0,0.0,0.0,0.0,0.0,0.0,0.0,0.0,0.0,0.0,0.0,0.0,0.0,0.0,-3.8601,-4.0988,-4.4107,-4.4127,-4.4485,-4.619,-4.5903,-4.5753,-4.6381,-4.5873,-4.5514,-4.5514,-4.5514,-4.5514,-4.5514,0.0,0.0,0.0,0.0,-4.4107,-4.3409,-4.3409,-4.312,-4.25,-4.244,-4.1782,-4.0606,-4.0457,-3.9709,-3.8482,-3.7793,-3.7135,-3.6447,-3.5848,-3.5579,-3.5519,-3.5519,-3.5519,-3.5519,-3.5519,-3.513,-3.4623,0.0,0.0,0.0,0.0,0.0,0.0,0.0,0.0,0.0,-2.2373,-2.6393,-2.9864,-3.169,-3.4622,-3.6866,-3.7883,-3.6178,-3.4743,0.0,0.0,-3.6297,-4.0284,-4.3718,-4.686,-4.9568,-5.1738,-5.2995,-5.3384,-5.4341,-5.488,-5.4999,-5.485,-5.5089,-5.5538,-5.4491,-5.3952,0.0,0.0,0.0,0.0,0.0,0.0,-4.6787,-4.3961,-4.2822,-4.2495,-4.0804,-4.01,-3.9797,-3.8717,-3.7348,-3.5627,-3.2735,0.0,0.0,0.0,0.0,0.0,0.0,0.0,0.0,0.0,0.0,0.0,0.0,0.0,0.0,0.0,0.0,0.0,0.0,0.0,0.0,-3.8482,-4.1384,-4.3958,-4.5651,-4.6741,-4.7279,-4.713,-4.701,-4.698,-4.71,-4.701,-4.692,-4.692,-4.692,-4.692,-4.692,-4.6411,-4.6082,-4.5933,-4.5394,-4.4796,-4.4137,-4.4137,-4.3808,-4.315,0.0,0.0,-4.1991,-4.0876,-3.9978,-3.917,-3.8512,-3.7554,-3.6477,-3.6357,-3.5998,-3.5519,-3.5519,-3.5519,-3.5519,-3.5519,-3.5429,-3.522,0.0,0.0,0.0,0.0,0.0,0.0,0.0,0.0,0.0,0.0,-2.5345,-2.8098,-2.9415,-3.133,-3.2677,-3.2976,-3.1808,0.0,0.0,-3.5729,-3.8512,-4.315,-4.6202,-4.8865,-5.1169,-5.3174,-5.4341,-5.467,-5.5658,-5.5987,-5.5688,-5.5688,-5.5688,-5.5658,0.0,0.0,0.0,0.0,0.0,0.0,0.0,0.0,-4.9553,-4.7549,-4.6381,-4.5723,-4.5065,-4.4258,-4.3331,-4.2441,-4.1203,-3.9634,-3.7101,-3.4504,-3.1736,0.0,0.0,0.0,0.0,0.0,0.0,0.0,0.0,0.0,0.0,0.0,0.0,0.0,0.0,-3.353,0.0,0.0,-3.9589,-4.1564,-4.3509,-4.5274,-4.6621,-4.7369,-4.7668,-4.7339,-4.7608,-4.7668,-4.7339,-4.7309,-4.7309,-4.7309,-4.7309,-4.7309,-4.7309,-4.698,-4.6681,-4.6279,-4.5992,-4.5484,-4.4825,-4.4466,-4.4137,-4.3768,-4.315,-4.2491,-4.1901,-4.1242,-4.0337,-3.9343,-3.8691,-3.8033,-3.7375,-3.6746,-3.6088,-3.5519,-3.5519,-3.5519,-3.5519,-3.5519,-3.5519,-3.5459,0.0,0.0,0.0,0.0,0.0,0.0,0.0,0.0,0.0,0.0,-2.4029,-2.6057,-2.6596,-2.7854,-2.8457,0.0,0.0,0.0,0.0,-3.6836,-4.0337,-4.5633,-4.8177,-5.0451,-5.2546,-5.4311,-5.5568,-5.6346,-5.6974,-5.7034,-5.6555,-5.6555,-5.6256,0.0,0.0,0.0,0.0,0.0,0.0,0.0,0.0,0.0,-5.2007,-5.0301,-4.9209,-4.8446,-4.8177,-4.6711,-4.4855,-4.4586,-4.3629,-4.2282,-4.0591,-3.8752,-3.6382,-3.2134,-3.0271,0.0,0.0,0.0,0.0,0.0,0.0,0.0,0.0,0.0,-3.3008,-3.4526,-3.6207,-3.7828,-3.8931,-4.0786,-4.2671,-4.4257,-4.5394,-4.6352,-4.7189,-4.7519,-4.7578,-4.7339,-4.7788,-4.7878,-4.7369,-4.7309,-4.7309,-4.7309,-4.7309,-4.7309,-4.7309,-4.7309,-4.707,-4.6488,-4.6459,-4.6172,-4.5514,-4.4975,-4.4586,-4.4317,-4.3738,-4.291,-4.1743,-4.1504,-4.0816,-3.9738,-3.8811,-3.8392,-3.8302,-3.7015,-3.6178,-3.5699,-3.5549,-3.5519,-3.5519,-3.5519,-3.5519,-3.5519,0.0,0.0,0.0,0.0,0.0,0.0,0.0,0.0,0.0,0.0,0.0,0.0,0.0,0.0,0.0,0.0,0.0,0.0,-3.5998,-3.8631,-4.2432,-4.7728,-4.9344,-5.1349,-5.3922,-5.479,-5.5777,-5.7004,-5.7663,-5.7962,-5.7902,0.0,0.0,0.0,0.0,0.0,0.0,0.0,0.0,0.0,0.0,0.0,-5.2127,-5.1319,-5.0242,-4.906,-4.7848,-4.5753,-4.3678,-4.4825,-4.4317,-4.3111,-4.2514,-4.1523,-3.9563,-3.4459,0.0,-2.9312,-2.6824,-2.6926,-2.8238,-3.0252,-3.0937,-3.1992,0.0,0.0,-3.7272,-3.926,-4.0277,-4.1093,-4.1811,-4.3579,-4.4915,-4.5155,-4.7219,-4.852,-4.7459,-4.8327,-4.8626,-4.7429,-4.7369,-4.7399,-4.7309,-4.7309,-4.7309,-4.7309,-4.7309,-4.7309,-4.7309,-4.7309,-4.7279,-4.7189,-4.7189,-4.689,-4.6202,-4.61,-4.5484,-4.4317,-4.4227,-4.3808,-4.305,-4.1923,-4.1332,-4.1055,-3.92,-3.8392,-3.8302,-3.7015,-3.6447,-3.6327,-3.5729,-3.5519,-3.5519,-3.5519,-3.5519,-3.5519,0.0,0.0,0.0,0.0,0.0,0.0,0.0,0.0,0.0,0.0,0.0,0.0,0.0,0.0,0.0,0.0,0.0,0.0,-3.4472,-3.8302,-4.2761,-4.8057,-4.9553,-5.1063,-5.2995,-5.4461,-5.5448,-5.5987,-5.7034,-5.7334,0.0,0.0,0.0,0.0,0.0,0.0,0.0,0.0,0.0,0.0,0.0,0.0,-5.2127,-5.1468,-4.9434,-4.683,-4.5903,-4.4347,0.0,0.0,-4.2073,-4.1667,-4.1873,-4.0545,-3.8304,-3.5077,-3.2988,0.0,-3.0608,-3.0302,0.0,0.0,-3.5211,-3.6581,-3.868,-3.9738,-4.0636,-4.1863,-4.324,-4.4347,-4.4616,-4.6292,-4.7489,0.0,-4.8341,-4.9,-4.7997,-4.8356,-4.8207,-4.689,-4.707,-4.7309,-4.7309,-4.7309,-4.7309,-4.7309,-4.7309,-4.7309,-4.7309,-4.7309,-4.7309,-4.7309,-4.7309,-4.698,-4.6279,-4.5933,-4.5244,-4.4317,-4.3888,-4.3389,-4.2731,-4.1803,-4.0965,-4.0187,-3.9349,-3.8751,-3.8332,-3.7404,-3.6806,-3.6417,-3.5759,-3.5519,-3.5519,-3.5519,-3.5519,-3.5519,0.0,0.0,0.0,0.0,0.0,0.0,0.0,0.0,0.0,0.0,0.0,0.0,0.0,0.0,0.0,0.0,0.0,0.0,0.0,-3.6746,-4.1594,-4.6711,-4.8536,0.0,-5.1887,-5.3713,-5.482,-5.5179,-5.6107,-5.6346,0.0,0.0,0.0,0.0,0.0,0.0,0.0,0.0,0.0,0.0,0.0,0.0,-5.102,-4.9972,-4.7249,-4.3898,-4.3599,-4.2076,0.0,0.0,-3.8614,-3.8614,-3.9402,-3.8582,-3.6952,-3.4892,-3.3473,-3.2641,-3.2942,0.0,0.0,-3.6645,-3.8901,-4.0696,-4.1324,-4.2641,-4.3868,-4.4317,-4.5723,-4.68,-4.6621,-4.7908,-4.888,-4.8356,-4.8985,-4.9254,-4.8416,-4.8446,-4.7997,-4.6459,-4.6741,-4.704,-4.704,-4.7189,-4.7309,-4.7309,-4.7309,-4.7309,-4.7309,-4.7309,-4.7309,-4.7309,-4.7309,-4.698,-4.6279,-4.5843,-4.5155,-4.4317,-4.3798,-4.3269,-4.265,-4.1773,-4.0756,-3.9679,-3.9499,-3.914,-3.8601,-3.7764,-3.7135,-3.6656,-3.5818,-3.5519,-3.5519,-3.5519,-3.5519,-3.5519,0.0,0.0,0.0,0.0,0.0,0.0,0.0,0.0,0.0,0.0,0.0,0.0,0.0,0.0,0.0,0.0,0.0,0.0,0.0,-3.4023,-3.8661,-4.323,-4.5992,-4.8596,-5.1199,-5.2546,-5.3892,-5.5179,-5.5239,0.0,0.0,0.0,0.0,0.0,0.0,0.0,0.0,0.0,0.0,0.0,0.0,0.0,-4.8177,-4.6232,-4.3419,-4.0636,-4.1235,0.0,0.0,0.0,-3.4147,-3.381,-3.4952,-3.6176,0.0,-3.4088,-3.2368,0.0,0.0,0.0,-3.7244,-3.8888,-4.1324,-4.3449,-4.4047,-4.5723,-4.716,-4.7189,-4.7728,-4.8027,-4.7399,-4.7848,-4.8297,-4.8297,-4.9374,-4.9717,-4.8476,-4.888,-4.8506,-4.6561,-4.6352,-4.6309,0.0,-4.692,-4.7309,-4.7309,-4.7309,-4.7309,-4.7309,-4.7309,-4.7309,-4.7309,-4.7309,-4.698,-4.6279,-4.6249,-4.5633,-4.4317,-4.4287,-4.3928,-4.323,-4.1953,-4.0995,-4.0337,-3.9709,-3.9373,-3.9254,-3.7943,-3.7404,-3.7255,-3.5998,-3.5519,-3.5519,-3.5519,-3.5519,-3.5519,0.0,0.0,0.0,0.0,0.0,0.0,0.0,0.0,0.0,0.0,0.0,0.0,0.0,0.0,0.0,0.0,0.0,0.0,0.0,-3.1509,-3.5699,-3.9858,-4.2611,-4.5035,-4.7249,-4.8596,-4.9942,-5.1306,-5.1708,0.0,0.0,0.0,0.0,0.0,0.0,0.0,0.0,0.0,0.0,0.0,0.0,0.0,-4.5484,-4.3968,-4.0501,-3.6345,0.0,0.0,0.0,0.0,-2.9669,0.0,-3.0876,0.0,0.0,-3.0464,-3.0912,-3.1998,0.0,0.0,-3.9168,-4.2505,-4.4347,-4.5753,-4.7249,-4.7788,-4.7848,-4.7399,-4.677,-4.6112,-4.5454,-4.5873,-4.6591,-4.7489,-4.9105,-5.0046,-4.9643,-5.0152,-4.9494,-4.6608,-4.6711,0.0,0.0,0.0,0.0,-4.7279,-4.7309,-4.7309,-4.7309,-4.7309,-4.7309,-4.7309,-4.7309,-4.698,-4.6279,-4.6279,-4.5663,-4.4317,-4.3828,-4.309,-4.2013,-4.1594,-4.0786,-3.9738,-3.9529,-3.9373,-3.9313,-3.8422,-3.7793,-3.7375,-3.6926,-3.6237,-3.5549,-3.5998,-3.5878,-3.5519,0.0,0.0,0.0,0.0,0.0,0.0,0.0,0.0,0.0,0.0,0.0,0.0,0.0,0.0,0.0,0.0,0.0,0.0,0.0,0.0,-3.1599,-3.51,-3.7315,-3.9529,-4.1743,-4.2641,-4.3838,-4.5436,-4.6292,0.0,0.0,0.0,0.0,0.0,0.0,0.0,0.0,0.0,0.0,0.0,0.0,0.0,-3.9929,-3.8605,-3.5448,0.0,0.0,0.0,0.0,0.0,0.0,0.0,0.0,-2.814,-2.8792,-3.0007,-3.1813,-3.4233,-3.7777,-4.0023,-4.2128,-4.5508,-4.704,-4.7997,-4.906,-4.9,-4.8237,-4.686,-4.5723,-4.4616,-4.3479,-4.3629,-4.4407,-4.5992,-4.7309,-4.8402,-4.9404,-4.9703,-4.9045,-4.692,-4.683,-4.6441,0.0,0.0,0.0,-4.692,-4.716,-4.7309,-4.7309,-4.7309,-4.7309,-4.7309,-4.7309,-4.698,-4.6279,-4.6279,-4.5663,-4.4317,-4.3618,-4.2841,-4.2073,-4.1594,-4.0905,-4.0098,-3.9619,-3.9373,-3.9313,-3.8422,-3.7913,-3.7704,-3.7255,-3.6716,-3.6207,-3.6417,-3.6207,-3.5818,0.0,0.0,0.0,0.0,0.0,0.0,0.0,0.0,0.0,0.0,0.0,0.0,0.0,0.0,0.0,0.0,0.0,0.0,0.0,0.0,0.0,-2.9205,-3.0556,-3.2437,-3.5098,-3.5155,-3.6111,-3.8088,-3.9337,0.0,0.0,0.0,0.0,0.0,0.0,0.0,0.0,0.0,0.0,0.0,0.0,0.0,-3.2055,-3.0777,0.0,0.0,0.0,0.0,0.0,0.0,0.0,0.0,0.0,0.0,-3.108,-3.2556,-3.4973,-3.7878,-4.1192,-4.3761,-4.5933,-4.7908,-4.9284,-5.0032,-4.9449,-4.9209,-4.8371,-4.5723,-4.4556,-4.3419,0.0,0.0,-4.1923,-4.3898,-4.4347,-4.5394,-4.8027,-4.7878,-4.7489,0.0,0.0,0.0,0.0,0.0,0.0,-4.6339,0.0,-4.7309,-4.7309,-4.7309,-4.7309,-4.7309,-4.7309,-4.701,-4.6339,-4.6352,-4.5622,-4.4347,-4.3648,-4.3319,-4.32,-4.1953,-4.1354,-4.1265,-3.9978,-3.9373,-3.9284,-3.8033,-3.7853,-3.8272,-3.7105,-3.6956,-3.7345,-3.6776,-3.66,-3.6447,0.0,0.0,0.0,0.0,0.0,0.0,0.0,0.0,0.0,0.0,0.0,0.0,0.0,0.0,0.0,0.0,0.0,0.0,0.0,0.0,0.0,0.0,0.0,0.0,0.0,0.0,0.0,0.0,0.0,0.0,0.0,0.0,0.0,0.0,0.0,0.0,0.0,0.0,0.0,0.0,0.0,0.0,-2.9482,0.0,0.0,0.0,0.0,0.0,0.0,0.0,0.0,0.0,0.0,-2.9508,-3.1584,-3.4546,-3.7271,-4.0071,-4.3501,-4.5943,-4.7878,-4.9374,-4.9613,-4.9464,-4.9359,-4.7772,-4.5843,-4.4167,-4.1743,-3.9589,0.0,0.0,0.0,-4.259,-4.4945,0.0,-4.9434,-5.0002,0.0,-4.8865,0.0,-4.8117,-4.716,-4.707,0.0,0.0,-4.7219,-4.7309,-4.7309,-4.7309,-4.7309,-4.7309,-4.7309,-4.7219,-4.707,-4.6561,-4.5903,-4.5035,-4.4377,-4.3539,-4.2581,-4.1782,-4.1115,-4.0606,-3.9768,-3.9373,-3.9343,-3.9014,-3.8691,-3.8422,-3.8601,-3.8153,-3.7434,-3.7793,-3.7584,-3.7075,0.0,0.0,0.0,0.0,0.0,0.0,0.0,0.0,0.0,0.0,0.0,0.0,0.0,0.0,0.0,0.0,0.0,0.0,0.0,0.0,0.0,0.0,0.0,0.0,0.0,0.0,0.0,0.0,0.0,0.0,0.0,0.0,0.0,0.0,0.0,0.0,0.0,0.0,0.0,0.0,0.0,0.0,0.0,0.0,0.0,0.0,0.0,0.0,0.0,0.0,0.0,-3.0021,-3.1565,-3.3277,-3.5375,-3.851,0.0,-4.3064,-4.6207,-4.8057,-4.9314,-5.0016,-4.9763,-4.9,-4.7832,-4.5933,-4.3718,-4.1197,-3.926,0.0,0.0,0.0,0.0,0.0,0.0,0.0,-4.8955,-4.9464,-4.9553,0.0,-4.9434,0.0,-4.8237,-4.7908,-4.7728,0.0,-4.7459,-4.7309,-4.7309,-4.7309,-4.7309,-4.7309,-4.7309,-4.7309,-4.7309,-4.6352,-4.5693,-4.5274,-4.4347,-4.3509,-4.2761,-4.1803,-4.1175,-4.0786,0.0,-3.9373,-3.9409,-3.908,-3.8901,-3.8841,-3.8931,-3.8691,-3.8302,-3.8362,-3.8153,-3.7734,0.0,0.0,0.0,0.0,0.0,0.0,0.0,0.0,0.0,0.0,0.0,0.0,0.0,0.0,0.0,0.0,0.0,0.0,0.0,0.0,0.0,0.0,0.0,0.0,0.0,0.0,0.0,0.0,0.0,0.0,0.0,0.0,0.0,0.0,0.0,0.0,0.0,0.0,0.0,0.0,0.0,0.0,0.0,0.0,0.0,0.0,0.0,0.0,0.0,0.0,-3.0342,-3.2803,-3.5237,-3.7764,-4.0337,-4.3,-4.4616,-4.6112,-4.8686,-4.9883,-5.0315,-5.0226,-4.9613,-4.8371,-4.5753,-4.3868,-4.1615,-3.8033,0.0,-3.6297,-3.3933,-3.519,-3.7255,-3.923,0.0,-4.3159,-4.7758,-4.7848,-4.8177,-5.0076,-4.9853,-4.9569,-4.9569,-4.8925,-4.8536,-4.8536,-4.7938,-4.7489,-4.7309,-4.7309,-4.7309,-4.7309,-4.7309,-4.7309,-4.7309,-4.6142,-4.5484,-4.5274,-4.4137,-4.3469,-4.326,-4.1983,-4.1422,-4.1362,-3.9978,-3.9433,-3.9499,-3.8901,-3.905,-3.9619,-3.8931,-3.902,-3.9469,-3.8781,-3.8512,-3.8422,0.0,0.0,0.0,0.0,0.0,0.0,0.0,0.0,0.0,0.0,-1.7418,-1.7456,0.0,0.0,0.0,0.0,0.0,0.0,0.0,0.0,0.0,0.0,0.0,0.0,0.0,0.0,0.0,0.0,0.0,0.0,0.0,0.0,0.0,0.0,0.0,0.0,0.0,0.0,0.0,0.0,0.0,0.0,0.0,0.0,0.0,0.0,0.0,0.0,0.0,0.0,-3.2811,-3.6671,-3.8237,-4.0187,-4.241,-4.5035,-4.6352,-4.7429,-4.9494,-5.0495,-5.0853,-5.0315,-4.8925,-4.71,-4.4975,-4.1773,0.0,0.0,0.0,-3.4713,-3.3694,-3.5549,0.0,-3.9918,0.0,0.0,0.0,0.0,-4.8835,0.0,0.0,0.0,0.0,0.0,0.0,0.0,-4.9284,-4.8446,-4.7369,-4.7309,-4.7309,-4.7309,-4.7309,-4.7309,-4.7309,-4.707,-4.6411,-4.5304,-4.5065,-4.4377,-4.326,-4.1983,-4.1422,-4.1362,-3.9978,0.0,-4.0217,-4.0098,-4.0457,-4.0965,-4.0307,-4.0127,-4.0157,-3.9499,-3.923,-3.914,0.0,0.0,0.0,0.0,0.0,0.0,0.0,-1.7149,-1.7275,-1.8129,-1.8187,-1.7962,-1.7415,-1.7313,-1.7394,0.0,0.0,0.0,0.0,0.0,0.0,0.0,0.0,0.0,0.0,0.0,0.0,0.0,0.0,0.0,0.0,0.0,0.0,0.0,0.0,0.0,0.0,0.0,0.0,0.0,0.0,0.0,0.0,0.0,0.0,0.0,0.0,0.0,0.0,0.0,-3.2159,-3.6773,-3.9569,-4.2013,-4.4287,-4.6262,-4.7549,-4.8596,-4.9837,-5.0674,-5.099,-4.9972,-4.7967,-4.5633,-4.3329,0.0,0.0,0.0,0.0,-3.3754,-3.3095,0.0,0.0,0.0,0.0,0.0,0.0,0.0,0.0,0.0,0.0,0.0,0.0,0.0,0.0,0.0,-4.9643,-4.888,-4.7878,-4.7489,-4.7309,-4.7309,-4.7309,-4.7309,-4.7309,-4.695,-4.6292,-4.5304,-4.4945,-4.4287,-4.326,-4.2342,-4.1931,-4.1871,-4.0876,-4.0606,-4.0905,-4.0905,-4.1085,-4.1392,-4.1025,-4.0696,-4.0367,-4.0038,-3.9709,-3.9343,0.0,0.0,0.0,0.0,0.0,0.0,0.0,-1.7752,-1.7953,-1.9033,-1.9083,-1.8682,-1.7827,-1.7225,-1.6946,0.0,0.0,0.0,0.0,0.0,0.0,0.0,0.0,0.0,0.0,0.0,0.0,0.0,0.0,0.0,0.0,0.0,0.0,0.0,0.0,0.0,0.0,0.0,0.0,0.0,0.0,0.0,0.0,0.0,0.0,0.0,0.0,0.0,0.0,0.0,-3.0114,-3.4361,-3.8348,-4.196,-4.4945,-4.6441,-4.7818,-4.9045,-4.9927,-5.0674,-5.09,-4.9629,-4.716,-4.4436,-4.1953,-3.8667,0.0,0.0,-3.3208,-3.2941,-3.2703,0.0,0.0,0.0,0.0,0.0,0.0,0.0,0.0,0.0,0.0,0.0,0.0,0.0,0.0,0.0,-4.8862,-4.8383,-4.8327,-4.7668,-4.7309,-4.7309,-4.7309,-4.7309,-4.7309,-4.68,-4.6112,-4.5274,-4.4766,-4.4107,-4.326,-4.2671,-4.241,-4.2351,-4.1692,-4.1474,-4.1632,-4.1632,-4.1683,-4.1773,-4.1504,-4.1055,-4.0576,-4.0277,-3.9858,-3.9373,0.0,0.0,0.0,0.0,0.0,0.0,0.0,-1.7852,-1.8505,-1.9585,-1.9284,-1.8958,-1.8857,-1.8356,-1.7649,0.0,0.0,0.0,0.0,0.0,0.0,0.0,0.0,0.0,0.0,0.0,0.0,0.0,0.0,0.0,0.0,0.0,0.0,0.0,0.0,0.0,0.0,0.0,0.0,0.0,0.0,0.0,0.0,0.0,0.0,0.0,0.0,0.0,0.0,0.0,0.0,-2.8884,-3.2676,-3.7907,-4.3039,-4.4915,0.0,0.0,-4.9687,-5.0674,-5.09,-4.9629,-4.683,-4.3868,-4.1833,0.0,0.0,-3.3354,-3.2211,-3.1751,-3.2843,-3.2495,-3.3378,0.0,0.0,0.0,0.0,0.0,0.0,0.0,0.0,0.0,0.0,0.0,0.0,-4.7471,-4.6311,-4.6405,-4.8238,-4.7668,-4.7309,-4.7309,-4.7309,-4.7309,-4.7309,-4.7249,-4.6561,-4.5304,-4.5244,-4.4556,-4.326,-4.2671,-4.241,-4.2351,-4.1692,-4.1752,0.0,-4.2321,-4.2611,-4.2991,-4.1833,-4.1354,-4.1145,-3.9948,-3.9433,-3.9373,0.0,0.0,0.0,0.0,0.0,0.0,-1.7727,-1.7777,-1.8204,-1.961,-1.961,-1.9359,-1.9033,-1.8807,-1.808,-1.6626,0.0,0.0,0.0,0.0,0.0,0.0,0.0,0.0,0.0,0.0,0.0,0.0,0.0,0.0,0.0,0.0,0.0,0.0,0.0,0.0,0.0,0.0,0.0,0.0,0.0,0.0,0.0,0.0,0.0,0.0,0.0,0.0,0.0,0.0,0.0,0.0,-2.8497,-3.2118,0.0,0.0,-4.4009,-4.698,-4.8147,-4.9478,-5.0421,-4.9539,-4.6214,-4.2703,-4.0939,0.0,-3.3556,-3.2438,-3.1634,-3.1343,-3.2067,-3.1431,-3.1728,0.0,0.0,0.0,0.0,0.0,0.0,0.0,0.0,0.0,0.0,0.0,-4.7707,-4.7146,-4.5989,-4.563,-4.6415,-4.6285,-4.6166,-4.6166,-4.6166,-4.6166,-4.6166,-4.6166,-4.5698,-4.4748,-4.5119,-4.4395,-4.2748,-4.2892,-4.294,-4.294,-4.2671,-4.2701,0.0,-4.294,-4.309,-4.323,-4.2761,-4.2073,-4.1324,-4.0786,-4.0098,-3.9373,0.0,0.0,0.0,0.0,0.0,-1.6559,-1.7522,-1.7636,-1.8103,-1.9409,-1.956,-1.9409,-1.9033,-1.8707,-1.803,-1.6873,-1.66,0.0,0.0,0.0,0.0,0.0,0.0,0.0,0.0,0.0,0.0,0.0,0.0,0.0,0.0,0.0,0.0,0.0,0.0,0.0,0.0,0.0,0.0,0.0,0.0,0.0,0.0,0.0,0.0,0.0,0.0,0.0,0.0,0.0,0.0,0.0,0.0,0.0,0.0,0.0,-4.1057,-4.4805,-4.6296,-4.8147,-4.9494,-4.8835,-4.5317,-4.1528,0.0,0.0,-3.2667,-3.1673,-3.1019,-3.0782,-3.1354,-3.0572,-3.0434,0.0,0.0,0.0,0.0,0.0,0.0,0.0,0.0,0.0,0.0,-4.5629,-4.5844,-4.5683,-4.4689,-4.4246,-4.4407,-4.4343,-4.4442,-4.484,-4.5207,-4.5207,-4.484,-4.484,-4.4527,-4.3856,-4.411,-4.3429,-4.1924,-4.2526,-4.282,-4.282,-4.282,-4.282,0.0,-4.282,-4.282,-4.2761,-4.2376,-4.1735,-4.0876,-4.0491,-3.9526,-3.8479,0.0,0.0,0.0,0.0,0.0,0.0,-1.6335,-1.7429,-1.8405,-1.8933,-1.9008,-1.9008,-1.9008,-1.8053,-1.7423,-1.7398,-1.6848,0.0,0.0,0.0,0.0,0.0,0.0,0.0,0.0,0.0,0.0,-1.65,0.0,0.0,0.0,0.0,0.0,0.0,0.0,0.0,0.0,0.0,0.0,0.0,0.0,0.0,0.0,0.0,0.0,0.0,0.0,0.0,0.0,0.0,0.0,0.0,0.0,0.0,0.0,0.0,-3.7629,-4.0948,-4.4381,-4.677,-4.8147,-4.7489,-4.4103,-4.059,0.0,-3.5184,-3.1561,-3.1256,-3.0243,-2.9759,-3.0993,-2.9968,-2.9725,-3.219,0.0,0.0,0.0,0.0,0.0,0.0,0.0,0.0,0.0,-4.2062,-4.2791,-4.2318,-4.171,0.0,-4.2413,-4.1908,-4.223,-4.3504,-4.4748,-4.4794,-4.3551,-4.3504,-4.32,-4.2499,-4.1984,-4.1377,-4.0741,-4.1341,-4.1629,-4.1629,-4.1629,-4.1629,0.0,-4.1629,-4.1629,-4.1513,-4.0314,-3.9834,-3.965,-3.8304,-3.7137,-3.6408,0.0,0.0,0.0,0.0,0.0,0.0,0.0,-1.6522,-1.725,-1.7827,-1.7903,-1.8053,-1.8406,-1.7827,-1.7398,-1.7398,-1.6848,0.0,0.0,0.0,0.0,0.0,0.0,0.0,0.0,0.0,-1.6876,-1.7654,-1.7852,-1.8053,0.0,0.0,0.0,0.0,0.0,0.0,0.0,0.0,0.0,0.0,0.0,0.0,0.0,0.0,0.0,0.0,0.0,0.0,0.0,0.0,0.0,0.0,0.0,0.0,0.0,0.0,0.0,0.0,-3.8427,-4.0543,-4.218,-4.159,-3.9332,-3.6968,-3.5912,-3.3578,-3.1349,-3.0441,-3.0099,-3.0006,-3.0215,-2.9859,-2.9997,-3.1526,-3.1703,0.0,0.0,0.0,0.0,0.0,0.0,0.0,0.0,0.0,-4.2911,-4.2791,-4.1856,-4.1414,-4.1637,-4.159,-4.1789,-4.2181,-4.2593,-4.2593,-4.223,-4.223,-4.2074,-4.1887,-4.1762,-4.1141,-4.0094,-4.0355,-4.0447,-4.0447,-4.0447,-4.0447,-4.0447,-4.0447,-4.0195,-3.9789,-3.9396,-3.8751,-3.7966,-3.7534,-3.6916,-3.6251,0.0,0.0,0.0,0.0,0.0,0.0,0.0,-1.5776,-1.6383,-1.6977,-1.7049,-1.7275,-1.7827,-1.74,-1.7149,-1.7398,-1.6848,0.0,0.0,0.0,0.0,0.0,0.0,0.0,0.0,-1.65,-1.7052,-1.8204,-1.8606,-1.8982,-1.9284,-1.9409,-1.8807,0.0,0.0,0.0,0.0,0.0,0.0,0.0,0.0,0.0,-1.9811,0.0,0.0,0.0,0.0,0.0,0.0,0.0,0.0,0.0,0.0,0.0,0.0,0.0,-2.8359,0.0,0.0,-3.6777,-3.8374,-3.805,-3.6341,0.0,0.0,-3.1942,-3.0355,-2.9606,-2.9782,-3.0008,-2.9845,-2.9804,-3.0005,-3.0683,-3.0783,0.0,0.0,0.0,0.0,0.0,0.0,0.0,0.0,-4.2735,-4.2986,-4.2986,-4.1957,-4.1275,-4.1275,-4.1029,-4.0895,-4.0895,-4.1369,-4.1369,-4.0895,-4.0895,-4.0895,-4.0869,-4.0738,-4.0134,-3.9158,-3.9379,-3.94,-3.9227,-3.9227,-3.9227,0.0,-3.9227,-3.8874,-3.8347,-3.8145,-3.7464,-3.6566,-3.6334,-3.5723,-3.5075,0.0,0.0,0.0,0.0,0.0,0.0,0.0,-1.5152,-1.5754,-1.6371,-1.6457,-1.6679,-1.725,-1.6848,-1.6748,-1.7297,0.0,0.0,0.0,0.0,0.0,0.0,0.0,0.0,0.0,-1.6525,-1.7127,-1.8329,-1.9384,-1.9962,-2.0062,-2.1117,-2.0439,-1.8304,-1.8279,-1.7578,-1.6575,-1.7727,-1.8204,-1.8304,-1.9384,-1.9811,0.0,0.0,0.0,0.0,0.0,0.0,0.0,0.0,0.0,0.0,0.0,0.0,0.0,0.0,0.0,0.0,0.0,0.0,0.0,0.0,0.0,0.0,-3.2148,-3.0378,0.0,-2.8888,-2.9377,-2.9804,-2.9854,-2.9829,-2.9829,-2.9955,-2.9955,0.0,0.0,0.0,0.0,0.0,0.0,0.0,-4.13,-4.2359,-4.2986,-4.2986,-4.1957,-4.1275,-4.1275,-4.03,-3.9697,-3.9697,-4.0844,-4.0895,-3.9697,-3.9697,-3.9697,-3.9697,-3.9094,-3.8517,-3.8039,-3.851,-3.8451,0.0,-3.7971,-3.7971,-3.7971,-3.7971,-3.7674,-3.7042,-3.656,-3.5996,-3.5363,-3.4778,-3.3953,-3.324,0.0,0.0,0.0,0.0,0.0,0.0,0.0,0.0,0.0,0.0,-1.582,-1.6022,-1.6654,-1.6575,-1.655,0.0,0.0,0.0,0.0,0.0,0.0,0.0,0.0,0.0,0.0,-1.6948,-1.7928,-1.9434,-2.0539,-2.1518,-2.2318,-2.2594,-2.154,-1.9409,-1.8983,-1.7955,-1.6575,-1.7727,-1.8204,-1.8304,-1.9384,-1.9811,0.0,0.0,0.0,0.0,-1.9811,-2.0189,0.0,0.0,0.0,0.0,0.0,0.0,0.0,0.0,-2.4381,-2.5181,-2.7043,0.0,-2.9518,-2.9518,-2.9428,-2.9309,0.0,-2.8987,0.0,0.0,0.0,0.0,-3.0357,-3.008,-3.0206,-3.1436,-3.1637,-3.2039,0.0,0.0,0.0,0.0,-4.1656,-4.2283,-4.2037,-4.2585,-4.2986,-4.2986,-4.1957,-4.1275,-4.1275,-4.03,-3.9697,-3.9697,-3.9981,-3.9981,-3.9697,-3.9697,-3.9697,-3.9697,-3.8693,-3.814,-3.7965,-3.7321,-3.693,-3.6803,-3.6803,-3.6803,-3.6803,-3.6803,-3.6218,-3.5283,-3.52,-3.4539,-3.3692,-3.3522,-3.3326,-3.3154,0.0,0.0,0.0,0.0,0.0,0.0,0.0,0.0,0.0,0.0,0.0,0.0,0.0,0.0,0.0,0.0,0.0,0.0,0.0,0.0,0.0,0.0,0.0,0.0,-1.65,-1.7074,-1.8202,-1.9811,-2.1192,-2.2447,-2.3521,-2.3747,-2.2694,-2.0514,-1.9233,-1.798,-1.6999,-1.8103,-1.8556,-1.8632,-1.9484,0.0,0.0,0.0,0.0,0.0,-2.0112,-2.0591,0.0,-2.2272,-2.2849,-2.3175,0.0,0.0,0.0,0.0,-2.4004,-2.4506,-2.4782,-2.6239,-2.767,-2.767,-2.7896,-2.8097,-2.8097,0.0,0.0,0.0,0.0,0.0,0.0,0.0,0.0,0.0,-3.1637,0.0,0.0,0.0,0.0,0.0,-4.2082,-4.264,0.0,-4.2811,-4.2861,-4.2665,-4.1831,-4.1175,-4.0924,-4.0149,-3.9697,-3.9697,-3.9697,-3.9697,-3.9697,-3.9697,-3.9697,-3.9697,-3.8818,-3.8266,-3.7965,-3.7136,-3.6656,-3.6405,-3.6405,-3.6405,-3.6405,-3.6405,-3.5855,-3.5031,-3.4781,-3.4198,-3.342,-3.3212,-3.3111,-3.3111,0.0,0.0,0.0,0.0,0.0,0.0,0.0,0.0,0.0,0.0,0.0,0.0,0.0,0.0,0.0,0.0,0.0,0.0,0.0,0.0,0.0,0.0,0.0,-1.6575,-1.6751,-1.725,-1.8304,-1.9936,-2.1694,-2.31,-2.413,-2.4858,-2.3929,-2.1518,-1.9409,-1.8103,-1.7599,-1.8581,-1.9008,-1.9058,-1.9585,0.0,0.0,0.0,0.0,0.0,0.0,0.0,0.0,-2.3226,-2.3853,-2.4054,-2.4424,0.0,0.0,0.0,0.0,0.0,-2.4205,-2.6063,-2.7971,-2.7871,-2.7971,-2.8097,-2.8097,0.0,0.0,0.0,0.0,0.0,0.0,0.0,0.0,0.0,0.0,0.0,0.0,0.0,0.0,0.0,-4.1957,0.0,-4.2811,-4.2861,-4.2715,-4.2238,-4.158,-4.0949,-4.0551,-3.9998,-3.9697,-3.9697,-3.9622,-3.9572,-3.9572,-3.9647,-3.9647,-3.9572,-3.8994,-3.8442,-3.7864,-3.7312,-3.6857,-3.6405,0.0,0.0,-3.6405,-3.6405,-3.6031,-3.5433,-3.4881,-3.4374,-3.3847,-3.3294,-3.3111,-3.3111,0.0,0.0,0.0,0.0,0.0,0.0,0.0,0.0,0.0,0.0,0.0,0.0,0.0,0.0,0.0,0.0,0.0,0.0,0.0,0.0,0.0,0.0,-1.65,-1.6951,-1.7928,-1.8028,-1.8882,-2.0566,-2.2698,-2.4079,-2.4732,-2.6214,-2.5209,-2.2096,-2.0338,-1.9007,-1.8129,-1.8732,-1.9008,-1.9058,-1.9585,0.0,0.0,0.0,0.0,0.0,0.0,0.0,0.0,-2.2322,-2.3201,-2.3929,-2.3496,0.0,0.0,0.0,0.0,0.0,-2.5109,-2.6364,-2.7293,-2.6876,-2.7419,-2.8097,-2.8097,0.0,0.0,0.0,0.0,0.0,0.0,0.0,0.0,0.0,0.0,0.0,0.0,0.0,0.0,-4.1986,0.0,-4.2766,-4.2363,-4.2338,-4.2313,-4.2213,-4.1229,-4.0601,-4.0526,-3.9998,-3.9697,-3.9697,-3.9245,-3.9045,-3.9045,-3.9471,-3.9471,-3.9045,-3.8417,-3.7839,-3.7287,-3.6782,-3.648,-3.6405,0.0,-3.6405,-3.6405,-3.6405,-3.6031,-3.5433,-3.4881,-3.4374,-3.3847,-3.3294,-3.3111,-3.3111,0.0,0.0,0.0,0.0,0.0,0.0,0.0,0.0,0.0,0.0,0.0,0.0,0.0,0.0,0.0,0.0,0.0,0.0,0.0,0.0,0.0,-1.7378,-1.7426,-1.7654,-1.8204,-1.9083,-2.0338,-2.1995,-2.3929,-2.531,-2.6138,-2.5711,-2.4205,-2.182,-2.0413,-1.9384,-1.8657,-1.9183,-1.9434,-1.9434,0.0,0.0,0.0,0.0,0.0,0.0,0.0,0.0,0.0,0.0,-2.3577,-2.3954,-2.3678,0.0,0.0,0.0,0.0,0.0,-2.4607,-2.5988,-2.7218,-2.7002,-2.7745,-2.8473,-2.8172,0.0,0.0,0.0,0.0,0.0,0.0,0.0,0.0,0.0,0.0,-3.8191,-3.9521,-4.0375,-4.1204,0.0,0.0,-4.2489,-4.2238,-4.2213,-4.1961,-4.1329,-4.0802,-4.0375,-4.0099,-3.9823,-3.9546,-3.927,-3.9045,-3.8718,-3.8417,-3.8668,-3.8642,-3.8391,-3.7839,-3.7437,-3.7161,-3.6656,-3.6405,-3.6405,0.0,-3.6405,-3.6405,-3.6405,-3.6031,-3.5483,-3.5232,-3.4781,-3.4274,-3.3721,-3.3345,-3.3111,0.0,0.0,0.0,0.0,0.0,0.0,0.0,0.0,0.0,0.0,0.0,0.0,0.0,0.0,0.0,0.0,0.0,0.0,0.0,0.0,-1.6951,-1.7978,-1.8254,-1.8631,-1.9158,-2.0413,-2.187,-2.3496,-2.5184,-2.649,-2.7419,-2.5335,-2.3477,-2.182,-2.069,-1.9836,-1.9208,-1.9786,-2.0012,-2.0012,0.0,0.0,0.0,0.0,0.0,0.0,0.0,0.0,0.0,0.0,0.0,0.0,0.0,0.0,0.0,-2.3622,-2.3753,-2.4079,-2.4481,-2.5711,-2.6967,-2.7218,-2.8222,-2.9076,-2.8925,0.0,0.0,0.0,0.0,0.0,0.0,0.0,0.0,0.0,-3.8241,-3.9496,-4.0174,-4.0752,-4.1404,-4.2313,-4.2414,-4.2363,-4.2213,-4.2087,-4.1555,-4.0601,-4.04,-4.0149,-3.9722,-3.9697,-3.9446,-3.8944,-3.8743,-3.8391,-3.7814,-3.7688,-3.7688,-3.7814,-3.7387,-3.7111,-3.6985,-3.6606,-3.6405,-3.6405,-3.6405,-3.6405,-3.6405,-3.6405,-3.6031,-3.5508,-3.5508,-3.5157,-3.465,-3.3947,-3.352,-3.3244,0.0,0.0,0.0,0.0,0.0,0.0,0.0,0.0,0.0,0.0,0.0,0.0,0.0,0.0,0.0,0.0,0.0,0.0,0.0,0.0,-1.6798,-1.7448,-1.843,-1.9885,-2.197,-2.2121,-2.3025,-2.4675,-2.6364,-2.7469,-2.7996,-2.6289,-2.4607,-2.2945,-2.187,-2.0765,-1.9786,-2.039,-2.0641,-2.0666,-2.1194,0.0,0.0,0.0,0.0,0.0,0.0,0.0,0.0,0.0,0.0,0.0,0.0,0.0,-2.4725,-2.4675,-2.4381,-2.433,-2.5896,-2.6047,-2.5963,-2.7017,-2.8524,0.0,-3.0934,-3.1587,0.0,0.0,0.0,0.0,0.0,0.0,0.0,0.0,-3.9647,-4.0777,-4.1886,0.0,-4.2836,-4.2911,-4.2911,-4.2766,-4.2263,-4.1681,-4.11,-4.0551,-4.0049,-3.9747,-3.9697,-3.9697,-3.9446,-3.8944,-3.8341,-3.7789,-3.7236,-3.6782,-3.6782,-3.7236,-3.7211,-3.6958,-3.6455,-3.643,-3.6405,-3.6405,-3.6405,-3.6405,-3.6405,-3.6405,-3.6031,-3.5508,-3.5508,-3.5157,-3.46,-3.352,-3.3445,-3.3771,0.0,0.0,0.0,0.0,0.0,0.0,0.0,0.0,0.0,0.0,0.0,0.0,0.0,0.0,0.0,0.0,0.0,0.0,0.0,0.0,-1.6901,-1.7852,-1.8607,-1.986,-2.1769,-2.315,-2.4682,-2.6339,-2.7318,-2.7896,-2.8047,-2.5335,-2.3697,-2.3045,-2.1619,-2.0767,-2.0415,-2.0968,-2.1194,-2.1219,-2.1418,-2.1694,0.0,0.0,0.0,0.0,0.0,0.0,0.0,0.0,-2.3246,-2.3421,-2.3421,-2.3853,-2.4305,-2.4305,-2.4155,-2.4205,-2.5184,-2.5787,-2.6348,-2.7128,0.0,0.0,0.0,0.0,0.0,0.0,0.0,0.0,0.0,0.0,0.0,-3.9069,-4.03,-4.1304,-4.2112,-4.2389,-4.2514,-4.2514,-4.2158,-4.1756,-4.1178,-4.0953,-4.0601,-4.0049,-3.9798,-3.9697,-3.9697,-3.9371,-3.8919,-3.8341,-3.7789,-3.7236,-3.6732,-3.6505,-3.6505,-3.6732,-3.6732,-3.6606,-3.6405,-3.6405,-3.6405,-3.6405,-3.6405,-3.6405,-3.6405,-3.6405,-3.6031,-3.5458,-3.5132,-3.5082,-3.5107,-3.4374,-3.4223,-3.4374,0.0,0.0,0.0,0.0,0.0,0.0,0.0,0.0,0.0,0.0,0.0,0.0,0.0,0.0,0.0,0.0,0.0,0.0,0.0,-1.65,-1.7002,-1.8154,-1.8707,-1.976,-2.1443,-2.3678,-2.5536,-2.7052,-2.7745,-2.7921,-2.7519,-2.4732,-2.3471,-2.3547,-2.1744,-2.1144,-2.1468,-2.1669,-2.1744,-2.1769,-2.1945,-2.2246,0.0,0.0,0.0,0.0,0.0,0.0,0.0,0.0,-2.3095,-2.317,-2.3521,-2.3898,-2.428,-2.4456,-2.4506,-2.4582,-2.4958,-2.5737,-2.6625,0.0,0.0,0.0,0.0,0.0,0.0,0.0,0.0,0.0,0.0,0.0,0.0,0.0,-4.0626,-4.1455,-4.1856,-4.2112,-4.2137,-4.1907,-4.1555,-4.1075,-4.0576,-4.0526,-4.03,-3.9747,-3.9697,-3.9622,-3.9446,-3.9069,-3.8517,-3.7764,-3.7387,-3.691,-3.6405,-3.6405,-3.6405,-3.6405,-3.6405,-3.6405,-3.6405,-3.6405,-3.6405,-3.6405,-3.6405,-3.6405,-3.6405,-3.6405,-3.6132,-3.5705,-3.4801,-3.5002,-3.5705,-3.4801,-3.4575,-3.468,0.0,0.0,0.0,0.0,0.0,0.0,0.0,0.0,0.0,0.0,0.0,0.0,0.0,0.0,0.0,0.0,0.0,0.0,-1.6436,-1.65,-1.7002,-1.8154,-1.8707,-1.976,-2.1418,-2.3653,-2.5335,-2.6499,-2.7544,-2.7519,-2.6449,-2.4757,-2.428,-2.4675,-2.2498,-2.2121,-2.307,-2.2518,-2.2322,-2.2343,-2.2895,-2.3095,-2.3095,0.0,0.0,0.0,0.0,0.0,0.0,0.0,-2.3095,-2.3296,-2.4424,-2.4775,-2.4901,-2.5435,-2.5586,-2.5611,-2.5586,-2.6047,-2.6625,0.0,0.0,0.0,0.0,0.0,0.0,0.0,0.0,0.0,0.0,0.0,0.0,-3.9496,-4.0601,-4.1275,-4.1275,-4.1806,-4.1932,-4.1351,-4.1275,-4.105,-4.0551,-4.0501,-4.0275,-3.9722,-3.9697,-3.9446,-3.8944,-3.8919,-3.8391,-3.7211,-3.7186,-3.6958,-3.6405,-3.6405,-3.6405,-3.6405,-3.6405,-3.6405,-3.6405,-3.6405,-3.6405,-3.6405,-3.6405,-3.6405,-3.6405,-3.6405,-3.6405,-3.6254,-3.455,-3.4926,-3.6204,-3.45,-3.4248,-3.4726,0.0,0.0,0.0,0.0,0.0,0.0,0.0,0.0,0.0,0.0,0.0,0.0,0.0,0.0,0.0,0.0,0.0,0.0,-1.6479,-1.65,-1.6848,-1.7601,-1.8154,-1.8832,-1.971,-2.192,-2.418,-2.6499,-2.6389,-2.5988,-2.5285,-2.3948,-2.3446,-2.3597,-2.3376,-2.3,-2.2543,-2.2769,-2.2869,-2.2869,-2.3045,-2.3095,-2.3095,0.0,0.0,0.0,0.0,0.0,0.0,0.0,0.0,0.0,-2.3496,-2.4399,-2.5259,-2.4657,-2.5285,-2.6072,-2.5259,-2.5737,0.0,-2.762,0.0,0.0,0.0,0.0,0.0,0.0,0.0,0.0,0.0,0.0,0.0,-3.912,-4.0049,-4.0752,-4.0752,-4.0902,-4.0953,-4.0777,-4.0425,-4.0124,-3.9948,-3.9948,-3.9697,-3.917,-3.912,-3.8868,-3.8291,-3.7889,-3.7538,-3.7186,-3.6857,-3.6581,-3.6405,-3.5981,-3.5981,-3.6405,-3.5579,-3.5604,-3.6405,-3.6405,-3.6405,-3.6405,-3.6405,-3.6132,-3.578,-3.578,-3.6006,-3.6329,-3.5403,-3.5604,-3.6254,-3.4951,-3.4781,-3.5207,0.0,0.0,0.0,0.0,0.0,0.0,0.0,0.0,0.0,0.0,0.0,0.0,0.0,0.0,0.0,0.0,0.0,0.0,0.0,0.0,-1.7526,-1.8304,-1.8656,-1.9309,-2.0287,-2.2042,-2.3477,-2.4513,-2.4808,-2.4682,-2.4123,-2.3873,-2.3873,-2.4098,-2.4481,-2.4255,-2.3602,-2.3496,-2.3446,-2.3446,-2.3446,-2.3446,-2.3446,0.0,0.0,0.0,0.0,0.0,0.0,0.0,0.0,0.0,-2.3371,-2.4155,-2.4883,-2.4456,-2.5184,-2.5963,-2.531,-2.6113,0.0,-2.8499,-3.0834,-3.3571,0.0,0.0,0.0,0.0,0.0,0.0,0.0,-3.9998,0.0,-3.9245,-3.9948,-4.045,-4.0224,-4.0375,-4.0425,-4.0224,-3.9898,-3.9622,-3.9396,-3.9371,-3.912,-3.8567,-3.8517,-3.8291,-3.7713,-3.7362,-3.7086,-3.6908,-3.6581,-3.6304,-3.6031,-3.5931,-3.5805,-3.5705,-3.5253,-3.5278,-3.5705,-3.5931,-3.6031,-3.6031,-3.6031,-3.573,-3.5182,-3.5408,-3.5683,-3.5981,-3.5382,-3.5508,-3.5931,-3.5052,-3.4881,-3.5157,0.0,0.0,0.0,0.0,0.0,0.0,0.0,0.0,0.0,0.0,0.0,0.0,0.0,0.0,0.0,0.0,0.0,0.0,0.0,0.0,-1.8681,-1.9761,-1.9911,-2.069,-2.2272,-2.3276,-2.3025,-2.1493,-2.3125,-2.3602,-2.297,-2.4224,-2.5034,-2.546,-2.5611,-2.5586,-2.5385,-2.4406,-2.4004,-2.4004,-2.4004,-2.4029,-2.4079,-2.4029,0.0,0.0,0.0,0.0,0.0,0.0,0.0,0.0,-2.3828,-2.4029,-2.418,-2.4682,-2.5234,-2.5661,-2.5661,0.0,0.0,-2.9628,-3.2089,0.0,-3.8216,0.0,0.0,0.0,0.0,0.0,-4.1225,-4.045,-3.9747,-3.9697,-4.0124,-4.0275,-3.9772,-4.0124,-4.0249,-3.9697,-3.9622,-3.9396,-3.8894,-3.8844,-3.8542,-3.7965,-3.7939,-3.7663,-3.7061,-3.7086,-3.6908,-3.6355,-3.6329,-3.6031,-3.5508,-3.5981,-3.573,-3.4756,-3.5157,-3.5132,-3.4781,-3.5232,-3.5433,-3.5433,-3.5382,-3.5107,-3.4705,-3.5157,-3.5382,-3.5382,-3.4931,-3.5031,-3.5357,-3.4856,-3.47,-3.468,0.0,0.0,0.0,0.0,0.0,0.0,0.0,0.0,0.0,0.0,0.0,0.0,0.0,0.0,0.0,0.0,0.0,0.0,0.0,0.0,-1.8681,-1.9761,-2.0665,-2.1493,-2.2297,-2.2121,-2.1845,-2.1493,-2.2694,-2.2824,-2.1895,-2.3847,-2.4657,-2.4406,0.0,-2.5594,-2.433,-2.4104,-2.4004,-2.4004,-2.4004,-2.4255,-2.4575,-2.4155,-2.3929,0.0,0.0,0.0,0.0,0.0,0.0,0.0,-2.3828,-2.4305,-2.4625,-2.475,-2.5511,-2.6298,-2.6298,-2.7168,0.0,0.0,-3.3796,0.0,0.0,0.0,0.0,0.0,0.0,-4.115,-4.0777,-4.0501,-4.0199,-3.9772,-3.9798,-3.9823,-3.9722,-3.9798,-3.9672,-3.917,-3.9044,-3.8818,-3.8241,-3.8191,-3.7965,-3.7412,-3.7362,-3.6935,-3.5909,-3.6307,-3.6282,-3.5683,-3.5683,-3.5608,-3.5508,-3.5182,-3.5132,-3.5307,-3.46,-3.4605,-3.5307,-3.5006,-3.4856,-3.4831,-3.4449,-3.4424,-3.47,-3.4374,-3.45,-3.4881,-3.5207,-3.5132,-3.4831,-3.4731,-3.4449,-3.4098,0.0,0.0,0.0,0.0,0.0,0.0,0.0,0.0,0.0,0.0,0.0,0.0,0.0,0.0,0.0,0.0,0.0,0.0,0.0,0.0,0.0,-2.0564,-2.1418,-2.202,-2.2297,-2.202,-2.1744,-2.1493,-2.2322,-2.2543,0.0,0.0,0.0,-2.4833,0.0,-2.5937,-2.4381,-2.4381,-2.423,-2.4004,-2.4004,-2.433,-2.4725,-2.4205,-2.4004,-2.3929,-2.3321,0.0,0.0,0.0,0.0,0.0,0.0,0.0,-2.4531,-2.5034,-2.5435,-2.582,-2.6348,0.0,0.0,-3.224,0.0,0.0,0.0,0.0,0.0,0.0,-4.0777,-4.1125,-4.0626,-4.0526,-4.0325,-3.9798,-3.9697,-3.9697,-3.9697,-3.9471,-3.9195,-3.8944,-3.8617,-3.8241,-3.7663,-3.7613,-3.7262,-3.6458,-3.6408,-3.6031,-3.5157,-3.5429,-3.5454,-3.5107,-3.5107,-3.4981,-3.4731,-3.4726,-3.46,-3.4349,-3.4048,-3.4073,-3.4349,-3.4349,-3.4324,-3.4299,-3.4022,-3.3922,-3.3922,-3.3897,-3.4073,-3.4349,-3.4605,-3.4575,-3.4324,-3.4324,-3.4148,-3.3897,0.0,0.0,0.0,0.0,0.0,0.0,0.0,0.0,0.0,0.0,0.0,0.0,0.0,0.0,0.0,0.0,0.0,0.0,0.0,0.0,0.0,0.0,-2.2146,-2.2498,-2.2598,-2.2498,-2.2221,-2.1769,-2.2322,0.0,0.0,0.0,0.0,-2.5636,0.0,-2.6314,-2.4926,-2.4825,-2.4525,-2.413,-2.4029,-2.433,-2.4725,-2.4205,-2.4004,-2.3929,-2.3321,-2.3095,-2.317,-2.3678,0.0,0.0,0.0,0.0,-2.418,-2.5184,-2.5159,-2.5059,-2.6197,0.0,-3.0231,0.0,0.0,0.0,0.0,0.0,0.0,0.0,-4.035,-4.0874,-4.045,-4.0375,-4.0199,-3.9647,-3.9546,-3.9521,-3.9421,-3.9019,-3.8743,-3.8642,-3.8165,-3.7638,-3.7086,-3.696,-3.6533,-3.5558,-3.5408,-3.5107,-3.46,-3.4675,-3.4675,-3.4575,-3.4575,-3.4349,-3.3897,-3.4349,-3.4123,-3.3219,-3.3671,-3.3621,-3.3136,-3.3445,-3.3671,-3.3746,-3.3746,-3.3495,-3.3119,-3.3571,-3.3746,-3.3771,-3.3847,-3.3847,-3.3771,-3.3872,-3.3847,-3.3771,0.0,0.0,0.0,0.0,0.0,0.0,0.0,0.0,0.0,0.0,0.0,0.0,0.0,0.0,0.0,0.0,0.0,0.0,0.0,0.0,0.0,-2.2171,-2.2694,-2.3221,-2.3753,-2.3246,-2.297,-2.2895,0.0,0.0,0.0,0.0,0.0,-2.5611,0.0,0.0,-2.546,-2.5008,-2.475,-2.465,-2.418,-2.433,-2.4725,0.0,0.0,0.0,0.0,-2.3095,-2.312,-2.3195,-2.3577,0.0,0.0,0.0,-2.413,-2.4732,-2.485,-2.5059,0.0,0.0,0.0,0.0,0.0,0.0,0.0,0.0,0.0,0.0,-3.9471,-3.9898,-3.9823,-3.9798,-3.9622,-3.9069,-3.902,-3.8793,-3.8291,-3.8165,-3.7939,-3.7462,-3.7337,-3.7086,-3.6581,-3.6031,-3.5658,-3.5508,-3.5056,-3.46,-3.4048,-3.4449,-3.45,-3.4022,-3.3997,-3.3972,-3.3897,-3.3972,-3.3922,-3.3796,-3.3872,-3.3621,-3.3068,-3.2641,-3.2717,-3.3237,-3.3237,-3.3187,-3.3136,-3.3169,-3.3237,-3.3244,-3.3721,-3.3621,-3.3244,-3.3721,-3.3596,-3.3244,0.0,0.0,0.0,0.0,0.0,0.0,0.0,0.0,0.0,0.0,0.0,0.0,0.0,0.0,0.0,0.0,0.0,0.0,0.0,0.0,0.0,-2.2297,-2.2246,-2.2623,-2.3471,-2.292,-2.2794,-2.3095,0.0,0.0,0.0,-2.536,-2.5887,0.0,0.0,0.0,0.0,-2.5485,-2.5084,-2.4775,-2.4525,-2.4782,0.0,0.0,0.0,0.0,0.0,0.0,0.0,-2.3948,-2.4023,-2.4054,-2.4356,0.0,0.0,0.0,-2.5001,0.0,-2.6992,0.0,0.0,0.0,0.0,0.0,0.0,0.0,0.0,-3.8266,-3.8567,-3.8843,-3.917,-3.922,-3.9044,-3.8492,-3.8391,-3.8291,-3.804,-3.7462,-3.6985,-3.6807,-3.6458,-3.6157,-3.5931,-3.5633,-3.5382,-3.5056,-3.4575,-3.4022,-3.347,-3.3671,-3.3696,-3.3445,-3.3445,-3.3445,-3.3445,-3.3445,-3.3445,-3.342,-3.2792,-3.2516,-3.2566,-3.2014,-3.224,-3.3068,-3.2742,-3.2591,-3.2616,-3.2943,-3.2893,-3.2641,-3.3219,-3.3294,-3.3119,-3.3345,-3.3294,-3.3119,0.0,0.0,0.0,0.0,0.0,0.0,0.0,0.0,0.0,0.0,0.0,0.0,0.0,0.0,0.0,0.0,0.0,0.0,0.0,0.0,0.0,-2.2297,-2.2046,-2.2297,-2.3095,-2.2694,-2.2694,0.0,0.0,0.0,-2.5812,-2.5963,-2.6917,0.0,-2.7795,0.0,0.0,0.0,0.0,0.0,0.0,0.0,0.0,0.0,0.0,0.0,0.0,0.0,0.0,0.0,0.0,0.0,0.0,-2.48,0.0,0.0,0.0,0.0,0.0,0.0,0.0,0.0,0.0,0.0,0.0,0.0,-3.6508,0.0,-3.7387,-3.7688,-3.7965,-3.8366,-3.8467,-3.7889,-3.7789,-3.7688,-3.7412,-3.6684,-3.6107,-3.5956,-3.5579,-3.5282,-3.5282,-3.5157,-3.4906,-3.455,-3.3997,-3.3445,-3.2893,-3.2867,-3.2792,-3.2641,-3.2684,-3.2684,-3.2684,-3.2684,-3.2684,-3.2641,-3.1788,-3.1612,-3.1989,-3.1436,-3.1712,-3.2616,-3.219,-3.2089,-3.224,-3.2541,-3.2566,-3.2466,-3.2742,-3.2943,-3.3111,-3.3111,-3.3111,-3.3111,0.0,0.0,0.0,0.0,0.0,0.0,0.0,0.0,0.0,0.0,0.0,0.0,0.0,0.0,-2.0238,-2.1317,0.0,0.0,0.0,0.0,0.0,-2.2322,-2.2769,0.0,-2.3095,-2.307,0.0,0.0,0.0,0.0,-2.6449,-2.6977,-2.8097,-2.9654,-2.8549,-2.777,-2.7228,0.0,0.0,0.0,-2.5234,-2.48,0.0,0.0,0.0,0.0,0.0,0.0,0.0,0.0,0.0,0.0,0.0,0.0,0.0,0.0,0.0,0.0,0.0,0.0,0.0,0.0,0.0,0.0,0.0,0.0,0.0,-3.4776,-3.573,-3.6307,-3.5759,-3.701,-3.7864,-3.7312,-3.7236,-3.686,-3.5784,-3.5583,-3.5357,-3.4876,-3.4776,-3.4731,-3.4731,-3.4299,-3.3972,-3.3947,-3.342,-3.2867,-3.229,-3.2265,-3.2014,-3.1486,-3.1486,-3.1486,-3.1486,-3.1486,-3.1486,-3.1486,-3.1411,-3.1411,-3.1411,-3.0884,-3.0959,-3.1486,-3.1461,-3.1738,-3.2164,-3.1687,-3.2089,-3.2993,-3.2466,-3.2591,-3.3111,-3.3111,-3.3111,-3.3111,0.0,0.0,0.0,0.0,0.0,0.0,0.0,0.0,0.0,0.0,0.0,0.0,0.0,-2.1016,-2.1041,-2.1443,-2.1619,0.0,0.0,0.0,0.0,-2.2819,-2.2995,-2.3095,-2.3095,-2.3095,0.0,0.0,0.0,-2.428,-2.5946,-2.6113,-2.6917,-2.8172,-2.8122,-2.8197,-2.8247,-2.7027,0.0,0.0,-2.6163,-2.5896,-2.5896,0.0,0.0,0.0,0.0,0.0,0.0,0.0,0.0,0.0,0.0,0.0,0.0,0.0,0.0,0.0,0.0,0.0,0.0,0.0,0.0,0.0,0.0,0.0,-3.2541,-3.347,-3.3972,-3.4299,-3.4449,-3.583,-3.6659,-3.5755,-3.5604,-3.5454,-3.5031,-3.468,-3.4424,-3.4223,-3.4198,-3.4198,-3.4198,-3.3696,-3.337,-3.337,-3.2516,-3.1888,-3.1687,-3.1687,-3.1587,-3.1411,-3.1386,-3.1386,-3.1386,-3.106,-3.106,-3.1386,-3.0683,-3.0557,-3.0884,-3.0331,-3.0181,-3.0357,-3.0357,-3.0683,-3.1185,-3.1336,-3.1637,-3.2014,-3.2164,-3.2566,-3.3111,-3.3111,-3.3111,-3.2982,0.0,0.0,0.0,0.0,0.0,0.0,0.0,0.0,0.0,0.0,0.0,0.0,0.0,0.0,-2.1568,-2.1744,-2.2272,-2.2569,-2.2569,-2.2895,-2.3095,-2.3095,-2.3095,-2.3095,-2.3095,0.0,0.0,0.0,0.0,0.0,0.0,-2.5787,-2.649,-2.757,-2.7745,-2.8147,0.0,0.0,0.0,-2.7795,-2.7243,-2.7052,-2.7077,0.0,0.0,0.0,0.0,0.0,0.0,0.0,0.0,0.0,0.0,0.0,0.0,0.0,0.0,0.0,0.0,0.0,0.0,0.0,0.0,0.0,0.0,0.0,-3.106,-3.1813,-3.2416,-3.2842,-3.3018,-3.4098,-3.4926,-3.4751,-3.4575,-3.4449,-3.4449,-3.3796,-3.3345,-3.3345,-3.3169,-3.3043,-3.3043,-3.2717,-3.2516,-3.2516,-3.1813,0.0,-3.1135,-3.1135,-3.1035,-3.0859,-3.0859,-3.0859,-3.0859,-3.0507,-3.0507,-3.0834,-3.0131,-2.998,-3.0331,-2.9955,-2.9804,-2.9804,-2.9804,-3.0105,-3.0593,-3.0397,-3.0851,-3.1621,-3.1224,-3.1642,-3.2457,-3.2259,-3.2049,-3.1733,0.0,0.0,0.0,0.0,0.0,0.0,0.0,0.0,0.0,0.0,0.0,0.0,0.0,0.0,0.0,-2.2322,-2.2819,-2.312,-2.3095,-2.3095,-2.3095,-2.3095,0.0,0.0,0.0,0.0,0.0,0.0,0.0,0.0,0.0,0.0,-2.7052,-2.8021,-2.7519,-2.757,-2.8122,0.0,-2.8838,-2.8838,0.0,-2.8097,-2.8197,0.0,0.0,0.0,-2.8687,-2.8549,0.0,-2.7494,0.0,0.0,0.0,0.0,0.0,0.0,0.0,0.0,0.0,0.0,0.0,0.0,0.0,0.0,0.0,0.0,-2.9729,-2.9754,-3.1009,-3.1964,-3.1461,-3.1813,-3.2717,-3.4349,-3.4173,-3.3822,-3.3822,-3.2867,-3.219,-3.219,-3.1712,-3.1386,-3.1386,-3.1386,-3.1361,-3.1361,-3.1361,-3.1135,-3.0608,-3.0583,-3.0357,-2.9804,-2.9804,-2.9804,-2.9804,-2.9804,-2.9804,-2.9804,-2.9804,-2.9804,-2.9804,-2.9804,-2.9804,-2.9804,-2.974,-3.0066,-3.0413,-2.8762,-2.9667,-3.183,-2.9687,-2.9777,-3.1039,-3.0541,-2.9978,-2.9396,0.0,0.0,0.0,0.0,0.0,0.0,0.0,0.0,0.0,0.0,0.0,0.0,0.0,0.0,-2.3803,-2.3552,-2.3678,-2.3577,-2.312,-2.3095,-2.3095,-2.3095,-2.3095,-2.3095,-2.3095,0.0,0.0,0.0,0.0,0.0,0.0,0.0,0.0,0.0,-2.7168,-2.7369,-2.7494,-2.7278,0.0,-2.8813,-2.7896,-2.7996,0.0,0.0,0.0,0.0,0.0,-2.8247,-2.8072,0.0,-2.7871,-2.7795,0.0,0.0,0.0,0.0,0.0,0.0,-2.6449,0.0,0.0,0.0,0.0,0.0,0.0,0.0,-2.8197,-2.9001,-2.949,-2.9991,-3.0708,-3.0959,-3.1336,-3.2164,-3.219,-3.2089,-3.2089,-3.1813,-3.1612,-3.1612,-3.1486,-3.1386,-3.1386,-3.106,-3.0834,0.0,-3.0457,-3.0181,-3.003,-3.003,-2.9955,-2.9804,-2.9804,-2.9804,-2.9804,-2.9804,-2.9804,-2.9804,-2.9804,-2.9804,-2.9804,-2.9804,-2.9804,-2.974,-2.8949,-2.8642,-2.8762,-2.8275,-2.8339,-2.8603,-2.7989,-2.8457,-2.9462,-2.9325,-2.9308,-2.928,0.0,0.0,0.0,0.0,0.0,0.0,0.0,0.0,0.0,0.0,0.0,0.0,0.0,0.0,0.0,-2.4707,-2.4657,-2.4431,-2.3847,-2.3797,-2.3697,-2.3471,-2.3471,-2.3471,-2.3471,0.0,0.0,0.0,0.0,0.0,0.0,0.0,0.0,0.0,0.0,0.0,0.0,0.0,0.0,0.0,-2.8499,0.0,0.0,-2.9176,-2.9001,0.0,0.0,0.0,-2.9377,-2.8674,-2.8298,0.0,0.0,0.0,0.0,0.0,0.0,0.0,0.0,0.0,0.0,0.0,0.0,0.0,-2.7253,-2.7293,-2.7469,-2.8097,-2.8423,-2.8775,-2.9453,-2.9578,-2.9679,-2.998,-3.0005,-3.0331,-3.126,-3.1009,-3.0809,-3.1035,-3.0859,-3.0733,-3.0733,-3.0457,-3.0281,-3.0281,-2.998,-2.9804,-2.9804,-2.9804,-2.9804,-2.9804,-2.9804,-2.9804,-2.9804,-2.9804,-2.9804,-2.9804,-2.9804,-2.9804,-2.9804,-2.9804,-2.9804,-2.974,-2.8585,-2.7844,-2.74,-2.693,-2.696,-2.722,-2.6512,-2.6845,-2.7743,-2.772,-2.7664,-2.7539,0.0,0.0,0.0,0.0,0.0,0.0,0.0,0.0,0.0,0.0,0.0,0.0,0.0,0.0,0.0,0.0,-2.5711,-2.546,-2.4901,-2.4825,-2.4607,-2.4104,-2.4079,-2.4079,-2.4079,-2.4079,0.0,0.0,0.0,0.0,0.0,0.0,0.0,0.0,0.0,0.0,0.0,0.0,0.0,-2.8838,-2.9478,-2.9779,0.0,0.0,-3.0231,-2.9854,-3.0357,-3.0809,-3.0984,-2.9528,-2.8612,0.0,0.0,0.0,0.0,0.0,-2.5506,0.0,0.0,0.0,0.0,0.0,0.0,0.0,-2.7293,-2.7293,-2.7293,-2.7293,-2.767,-2.8021,-2.8097,-2.8097,-2.8097,-2.8097,-2.8097,-2.8825,-3.0834,-3.0256,-2.9829,-3.0457,-2.998,-2.9654,-2.9779,-2.9729,-2.9729,-2.9779,-2.9804,-2.9804,-2.9804,-2.9804,-2.9804,-2.9804,-2.9804,-2.9804,-2.9804,-2.9804,-2.9804,-2.9804,-2.9663,-2.9624,-2.9624,-2.9507,-2.9429,-2.9365,-2.8227,-2.7197,-2.6213,-2.5083,-2.5509,-2.6707,-2.5211,-2.5223,-2.6083,-2.5969,-2.5589,-2.5195,0.0,0.0,0.0,0.0,0.0,0.0,0.0,0.0,0.0,0.0,0.0,0.0,0.0,0.0,0.0,0.0,-2.6575,-2.6097,-2.5485,-2.5059,-2.475,-2.4625,-2.4625,-2.4625,-2.4625,-2.4625,-2.4933,-2.5435,0.0,0.0,0.0,0.0,0.0,0.0,0.0,0.0,0.0,0.0,0.0,-2.8323,-2.8838,0.0,-3.0407,-3.008,-2.988,-2.9804,-2.9905,-3.0005,-3.0055,-2.9729,-2.9252,-2.8712,0.0,0.0,0.0,0.0,0.0,0.0,0.0,0.0,0.0,0.0,0.0,0.0,-2.719,-2.7293,-2.7293,-2.7293,-2.7369,-2.757,-2.8021,-2.8097,-2.8097,-2.8097,-2.8097,-2.8423,-2.9277,-2.885,-2.8825,-2.9829,-2.9051,-2.88,-2.9704,-2.9377,-2.9302,-2.9754,-2.9804,-2.9804,-2.9804,-2.9804,-2.9804,-2.9804,-2.9804,-2.9804,-2.9804,-2.9804,-2.9804,-2.9804,-2.8846,-2.8426,-2.8386,-2.7545,-2.7139,-2.7098,-2.5964,-2.5336,-2.5041,-2.3887,-2.36,-2.3878,-2.3537,-2.4009,-2.4762,-2.4736,-2.511,-2.5577,0.0,0.0,0.0,0.0,0.0,0.0,0.0,0.0,0.0,0.0,0.0,0.0,0.0,0.0,0.0,0.0,0.0,0.0,0.0,-2.6189,-2.5787,-2.5234,-2.5209,-2.5209,-2.5209,-2.5209,-2.5485,-2.6072,0.0,0.0,0.0,0.0,0.0,0.0,0.0,0.0,0.0,0.0,-2.8524,-2.8574,-2.9126,0.0,-3.0583,-3.0306,-3.0357,-3.0557,-3.0306,-3.003,-2.988,-3.0407,-3.003,0.0,0.0,-2.8548,-2.8687,0.0,-2.6745,-2.6381,0.0,0.0,0.0,-2.5152,0.0,0.0,0.0,-2.6262,-2.6384,-2.6086,-2.6118,-2.6141,-2.6137,-2.5944,-2.5814,-2.5814,-2.6239,-2.676,-2.7274,-2.7779,-2.8323,-2.8875,-2.8448,-2.8323,-2.89,-2.8699,-2.875,-2.9327,-2.9628,-2.9804,-2.9804,-2.9804,-2.9804,-2.9804,-2.9804,-2.9804,-2.9804,-2.9804,-2.9482,-2.8949,-2.8386,-2.7804,-2.7279,-2.6771,-2.6524,-2.6442,-2.5294,-2.4787,-2.4702,-2.3541,-2.3101,-2.3101,-2.3101,-2.3491,-2.4141,-2.4336,-2.4824,-2.543,0.0,0.0,0.0,0.0,-2.7027,0.0,0.0,0.0,0.0,0.0,0.0,0.0,0.0,0.0,0.0,0.0,0.0,0.0,0.0,0.0,-2.7042,-2.6113,-2.6088,-2.6038,-2.5912,-2.5912,-2.6197,-2.665,0.0,0.0,0.0,0.0,0.0,0.0,0.0,0.0,0.0,0.0,0.0,-2.9126,0.0,-3.0055,-3.0457,-3.0457,-3.0708,-3.1035,-3.0608,-3.0181,-2.993,-3.0783,-3.0388,-2.9252,-2.8023,-2.8465,0.0,0.0,0.0,0.0,0.0,0.0,0.0,0.0,0.0,-2.5429,0.0,0.0,0.0,-2.4915,-2.4814,0.0,0.0,0.0,0.0,0.0,0.0,0.0,0.0,-2.6638,0.0,-2.8222,-2.7971,-2.7921,-2.8222,-2.8172,-2.8298,-2.8687,-2.9302,-2.9628,-2.9628,-2.9729,-2.9804,-2.9804,-2.9804,-2.9804,-2.9804,-2.9585,-2.9028,-2.8084,-2.7683,-2.7035,-2.6193,-2.5944,-2.5861,-2.5819,-2.4872,-2.4447,-2.4425,-2.3474,-2.3101,-2.3101,-2.3101,-2.3398,-2.3848,-2.4258,-2.4687,-2.5184,-2.4079,-2.4374,0.0,0.0,0.0,0.0,0.0,0.0,0.0,0.0,0.0,0.0,0.0,0.0,0.0,0.0,0.0,0.0,-3.0834,0.0,0.0,-2.7821,-2.7821,-2.7595,-2.7118,-2.7128,-2.7118,-2.7228,-2.6725,0.0,0.0,0.0,0.0,0.0,-2.7795,0.0,0.0,0.0,-2.9227,0.0,-2.9754,-2.9829,0.0,-2.988,-2.993,-2.9955,-2.9905,-2.9854,-2.9804,0.0,-2.9244,-2.8243,0.0,-2.814,-2.8044,0.0,0.0,0.0,0.0,0.0,0.0,0.0,-2.5082,0.0,0.0,0.0,-2.543,-2.4893,0.0,0.0,0.0,0.0,0.0,0.0,0.0,0.0,-2.2845,-2.4981,-2.7228,-2.8612,-2.7544,-2.7218,-2.8662,-2.8398,-2.8122,-2.8197,-2.8662,-2.8988,-2.8988,-2.9528,-2.9804,-2.9804,-2.9804,-2.9804,-2.9804,-2.8806,-2.8227,-2.8084,-2.6108,-2.5126,-2.4957,-2.3973,-2.3474,-2.3474,-2.3343,-2.3299,-2.3256,-2.3125,-2.3101,-2.3101,-2.3101,-2.3398,-2.3848,-2.4258,-2.4687,-2.5184,0.0,-2.5184,0.0,0.0,0.0,0.0,0.0,0.0,0.0,0.0,0.0,0.0,0.0,0.0,0.0,0.0,0.0,-3.0733,0.0,0.0,0.0,0.0,-2.8097,-2.7996,-2.777,-2.777,-2.777,-2.777,-2.7519,0.0,0.0,0.0,0.0,0.0,-2.8473,0.0,-2.9428,0.0,-2.9578,0.0,0.0,0.0,0.0,-3.0156,-3.0256,-3.0256,-3.0256,-3.0055,-2.9804,0.0,-2.9028,0.0,0.0,0.0,0.0,0.0,0.0,0.0,0.0,0.0,0.0,0.0,0.0,0.0,-2.4303,0.0,-2.4507,0.0,0.0,0.0,0.0,0.0,0.0,0.0,-2.2751,0.0,0.0,0.0,-2.5647,0.0,0.0,0.0,-2.7419,-2.757,-2.762,-2.762,-2.8147,-2.8448,-2.8448,-2.8976,-2.9302,-2.9302,-2.8973,-2.8806,-2.8806,-2.7747,-2.683,-2.6191,-2.5231,-2.4447,-2.38,-2.3299,-2.3101,-2.3101,-2.3101,-2.3101,-2.3101,-2.3101,-2.3101,-2.312,-2.3418,-2.3633,-2.3848,-2.4258,-2.4687,-2.5184,0.0,0.0,0.0,0.0,0.0,0.0,0.0,0.0,0.0,0.0,0.0,0.0,-3.6606,-3.573,0.0,0.0,-3.3495,-3.239,0.0,0.0,-2.9302,0.0,0.0,0.0,0.0,-2.8323,-2.8323,-2.8323,-2.8172,0.0,0.0,0.0,0.0,0.0,0.0,-2.9628,-3.0005,0.0,-3.0005,-3.0005,-2.9854,-2.9804,-2.9829,-3.0231,-3.0382,-3.0382,-3.0382,-3.0131,-2.9804,-2.9804,-2.9028,0.0,-2.9067,0.0,0.0,0.0,0.0,0.0,-2.5126,0.0,0.0,0.0,0.0,0.0,0.0,0.0,0.0,0.0,0.0,0.0,0.0,0.0,0.0,0.0,0.0,-2.2363,0.0,0.0,0.0,0.0,0.0,0.0,0.0,-2.6575,-2.6741,-2.7077,0.0,-2.772,-2.7871,-2.8512,-2.8888,-2.8888,-2.8397,-2.8084,-2.8084,-2.6748,-2.563,-2.4787,-2.4489,-2.393,-2.3101,-2.3101,-2.3101,-2.3101,-2.3101,-2.3101,-2.3101,-2.3101,-2.3101,-2.314,-2.3613,-2.3789,-2.3848,-2.4394,-2.4805,-2.5184,-2.7193,-2.6339,0.0,0.0,0.0,0.0,0.0,0.0,0.0,0.0,0.0,0.0,0.0,0.0,0.0,0.0,0.0,-3.4625,-3.4575,0.0,-3.0834,0.0,0.0,-2.9478,0.0,0.0,-2.8863,-2.8863,-2.8373,0.0,0.0,0.0,0.0,0.0,0.0,-3.0583,-3.0583,-3.0583,-3.0583,-3.0532,-3.0005,-2.9804,-2.9804,0.0,-2.9829,-2.9829,-2.9829,0.0,0.0,-2.9804,-2.9028,0.0,0.0,0.0,0.0,0.0,0.0,0.0,0.0,0.0,0.0,-2.3198,0.0,0.0,0.0,0.0,-2.3125,0.0,0.0,0.0,0.0,0.0,0.0,0.0,0.0,0.0,0.0,0.0,0.0,0.0,0.0,0.0,0.0,-2.5511,-2.5335,0.0,-2.6524,0.0,-2.7293,-2.8348,-2.8888,-2.8888,-2.8397,-2.8084,-2.8084,-2.5942,-2.483,-2.4787,-2.3671,-2.3144,-2.3101,-2.3101,-2.3101,-2.3101,-2.3101,-2.3101,-2.3101,-2.3101,-2.3101,-2.314,-2.3613,-2.3789,-2.3887,-2.4773,-2.5106,-2.5184,0.0,0.0,0.0,0.0,0.0,0.0,0.0,-3.3043,0.0,0.0,-3.8391,0.0,0.0,-4.1078,-4.0805,0.0,0.0,-3.7387,-3.5906,-3.4424,0.0,0.0,0.0,-3.1361,0.0,0.0,0.0,0.0,0.0,0.0,0.0,0.0,0.0,0.0,0.0,-3.008,0.0,0.0,0.0,0.0,0.0,-3.0758,-3.1286,0.0,-2.9804,-2.9804,-2.9804,-2.9804,0.0,-2.9804,-2.9028,-2.8203,-2.8988,-2.8727,-2.8044,-2.7643,-2.7562,-2.7319,0.0,0.0,-2.5381,-2.4466,0.0,0.0,0.0,0.0,0.0,0.0,0.0,0.0,0.0,0.0,0.0,0.0,0.0,0.0,0.0,0.0,0.0,0.0,0.0,0.0,0.0,0.0,0.0,0.0,0.0,0.0,-2.5789,-2.7444,-2.7754,-2.6379,-2.68,-2.6666,-2.59,-2.4425,-2.3671,-2.3671,-2.3256,-2.3101,-2.3101,-2.3101,-2.3101,-2.312,-2.3437,-2.3574,-2.3594,-2.3867,-2.3828,-2.3633,-2.4355,-2.4453,-2.4277,-2.4863,-2.5106,-2.5184,-2.8473,0.0,0.0,0.0,0.0,0.0,-3.224,-3.4449,-3.681,-3.9396,-4.0877,0.0,-4.4468,0.0,-4.3639,0.0,-4.1882,-3.9948,-3.7136,-3.6282,0.0,-3.2893,-3.2993,0.0,0.0,0.0,0.0,0.0,0.0,-2.998,0.0,0.0,0.0,0.0,0.0,-2.998,-2.9804,0.0,-3.0457,0.0,0.0,-3.1185,0.0,0.0,-3.0482,-3.0583,0.0,-2.9905,-3.0055,-2.9854,-2.9574,-2.9382,-2.9934,-2.9683,-2.9181,-2.8777,-2.8512,-2.8045,-2.6521,-2.6326,0.0,-2.4595,-2.4489,0.0,-2.3343,0.0,0.0,0.0,0.0,0.0,0.0,0.0,0.0,0.0,0.0,0.0,0.0,-2.1268,0.0,0.0,0.0,0.0,0.0,0.0,0.0,0.0,0.0,0.0,0.0,-2.6432,-2.6562,-2.5547,-2.5765,-2.5546,-2.4787,-2.3671,-2.3101,-2.3101,-2.3101,-2.3101,-2.3101,-2.3257,-2.3379,-2.3354,-2.3828,-2.4004,-2.4043,-2.4297,-2.4258,-2.4082,-2.4832,-2.4902,-2.4707,-2.5137,-2.5312,-2.5352,-2.9189,0.0,0.0,0.0,-3.0357,-3.1788,-3.3011,-3.5906,-3.8818,0.0,-4.2911,-4.4618,-4.6326,-4.6024,-4.5472,-4.492,-4.4292,-4.2333,-3.8567,-3.8266,0.0,0.0,-3.3621,-3.2993,-3.2315,0.0,0.0,0.0,0.0,0.0,0.0,0.0,0.0,0.0,-3.0331,0.0,-2.9854,-3.0909,-3.1085,-3.0683,-3.116,-3.111,-3.0809,-3.121,-3.1738,-3.2089,-3.0457,-3.0206,-3.0583,-3.0055,-3.0557,-3.1311,-3.0809,-3.0984,-3.1182,-3.0055,-2.9338,-2.8438,-2.6217,-2.6,-2.5924,-2.3754,-2.3973,0.0,0.0,0.0,-2.312,0.0,0.0,0.0,0.0,0.0,0.0,0.0,0.0,0.0,0.0,0.0,0.0,0.0,0.0,0.0,0.0,0.0,0.0,0.0,0.0,0.0,0.0,-2.5522,-2.5431,-2.6244,-2.5295,-2.4787,-2.4702,-2.3627,-2.3101,-2.3101,-2.312,-2.312,-2.314,-2.3633,-2.3809,-2.3809,-2.4258,-2.4434,-2.4414,-2.4473,-2.4473,-2.4492,-2.4922,-2.5145,-2.5204,-2.5586,-2.5693,-2.5693,-3.0231,-3.0934,-3.1537,-3.1386,-3.1386,-3.2039,-3.3997,-3.6408,-3.9094,-4.2158,-4.4744,-4.7054,-4.9138,-4.8862,-4.8485,-4.8335,-4.6702,0.0,0.0,0.0,0.0,-3.7688,-3.7036,-3.5705,-3.352,-3.3319,0.0,-3.0407,0.0,0.0,-2.9804,0.0,0.0,0.0,0.0,0.0,-2.9829,-3.0532,-3.0959,-3.116,-3.0909,-3.1712,-3.2893,0.0,-3.1913,-3.3244,-3.1587,-3.106,-3.116,-3.1035,-3.116,-3.1361,-3.1235,-3.1286,-3.1345,-3.1034,-3.0209,-2.9295,-2.868,-2.7123,-2.5528,-2.4941,-2.4173,-2.3474,0.0,0.0,0.0,0.0,0.0,0.0,0.0,0.0,0.0,0.0,0.0,0.0,0.0,0.0,0.0,-2.1055,0.0,0.0,0.0,0.0,0.0,0.0,0.0,0.0,0.0,0.0,-2.516,-2.3143,-2.42,-2.4382,-2.356,-2.3256,-2.3101,-2.3101,-2.3477,-2.3633,-2.3633,-2.4062,-2.4082,-2.3828,-2.457,-2.4727,-2.4473,-2.5089,-2.5195,-2.4941,-2.5391,-2.5566,-2.5586,-2.5635,-2.5693,-2.5693,-3.1009,-3.2215,0.0,-3.3577,-3.4223,-3.5077,-3.6332,-3.799,-4.03,-4.3639,-4.5849,0.0,-4.9163,-4.949,-4.949,-4.9264,-4.7883,0.0,-4.4719,0.0,0.0,-3.9697,-3.8818,-3.7211,-3.4675,-3.4148,0.0,-3.0608,0.0,0.0,-2.9804,0.0,0.0,0.0,0.0,-2.993,0.0,-3.0984,-3.1637,-3.2089,-3.1813,-3.229,0.0,-3.2064,-3.2466,-3.342,-3.2466,-3.1964,-3.1712,-3.1461,-3.1712,-3.2089,-3.1838,-3.1913,-3.2031,-3.1501,-3.1052,-3.0519,-2.9539,-2.8125,-2.6689,-2.5741,-2.4669,-2.3714,-2.3212,-2.3276,-2.3437,0.0,-2.3296,-2.3437,0.0,0.0,0.0,0.0,0.0,0.0,0.0,0.0,0.0,0.0,-2.0761,0.0,0.0,0.0,0.0,0.0,0.0,0.0,0.0,0.0,-2.4036,-2.2574,-2.3872,-2.4139,-2.3101,-2.3471,-2.3569,-2.3437,-2.3672,-2.3887,-2.4082,-2.4512,-2.457,-2.4394,-2.5059,-2.5215,-2.5039,-2.5479,-2.5586,-2.5391,-2.5596,-2.5693,-2.5693,-2.5693,-2.5693,-2.5693,-3.1913,0.0,0.0,0.0,-3.7613,-3.932,-3.9724,-4.0626,-4.2384,-4.5522,-4.7004,-4.7958,-4.841,-4.9264,-4.959,-4.9038,0.0,-4.7104,-4.5171,-4.4342,-4.2986,-4.0927,-3.9722,-3.804,-3.5759,-3.4675,0.0,0.0,0.0,-3.0432,-2.9905,0.0,0.0,0.0,0.0,0.0,0.0,-3.1712,-3.2491,-3.3111,-3.296,-3.2641,-3.2365,-3.2792,-3.3061,-3.3111,-3.3111,-3.2742,-3.2265,-3.1763,-3.2265,-3.2993,-3.2491,-3.2667,-3.2853,-3.1577,-3.1482,-3.1376,-2.9238,-2.8532,-2.795,-2.5913,-2.5096,-2.444,-2.3363,-2.314,-2.3159,-2.3101,-2.3101,-2.3101,0.0,0.0,0.0,0.0,0.0,0.0,0.0,0.0,0.0,0.0,0.0,0.0,0.0,0.0,0.0,0.0,0.0,0.0,0.0,0.0,-2.277,-2.3101,-2.3819,-2.39,-2.3276,-2.3984,-2.4199,-2.3965,-2.3965,-2.4141,-2.4512,-2.4961,-2.5165,-2.5145,-2.5547,-2.5654,-2.5615,-2.5674,-2.5693,-2.5693,-2.5693,-2.5693,-2.5693,-2.5693,-2.5693,-2.5693,-3.4148,0.0,0.0,0.0,-3.8818,-4.1681,-4.3966,-4.4869,-4.5999,-4.7933,-4.9967,-5.1272,-5.1348,-5.1147,-5.0745,-5.0167,-4.8761,0.0,0.0,0.0,0.0,-4.261,-4.1053,-3.9195,-3.6935,-3.583,-3.4399,0.0,-3.1712,-3.0984,-3.0457,0.0,0.0,0.0,0.0,0.0,-3.126,-3.1461,0.0,-3.3036,-3.2064,-3.219,-3.2893,-3.2516,-3.2667,-3.3111,-3.3111,-3.3061,-3.2918,-3.2817,-3.2918,-3.3068,-3.3011,-3.2993,-3.2853,-3.1577,-3.0573,-2.9602,-2.82,-2.6822,-2.5589,-2.4788,-2.4558,-2.4211,-2.3301,-2.3418,-2.3574,-2.3179,-2.3101,-2.3101,-2.3101,0.0,0.0,0.0,0.0,0.0,0.0,0.0,0.0,0.0,0.0,-2.165,0.0,0.0,0.0,0.0,0.0,0.0,0.0,0.0,-2.2839,0.0,-2.2918,0.0,0.0,0.0,-2.4219,-2.4891,-2.4891,-2.493,-2.4961,-2.541,-2.541,-2.5145,-2.5547,-2.5527,-2.5215,-2.5538,-2.5693,-2.5693,-2.5693,-2.5693,-2.5693,-2.5693,-2.5693,-2.5693,-3.7186,0.0,0.0,0.0,-4.2082,-4.4644,-4.6853,-4.841,-4.9289,-4.9213,-4.9615,-4.9916,-4.9916,-5.0218,-5.0293,-5.0017,-4.8711,-4.7908,-4.7908,-4.5849,-4.4267,-4.3438,-4.1831,0.0,-3.7663,-3.621,-3.4726,-3.3111,-3.1662,-3.0859,-3.0608,0.0,0.0,0.0,0.0,-3.1235,0.0,0.0,0.0,-3.342,-3.2591,-3.2634,-3.3086,-3.2767,-3.2842,-3.3111,-3.3111,-3.3111,-3.3111,-3.3111,-3.3111,-3.3111,-3.3111,-3.2655,-3.1996,-3.1356,-3.035,-2.9258,-2.868,-2.7336,-2.5965,-2.5762,-2.5033,-2.4316,-2.3842,-2.3789,-2.373,-2.3516,-2.3257,-2.3101,-2.3101,-2.3101,0.0,0.0,0.0,0.0,0.0,0.0,0.0,0.0,0.0,0.0,0.0,0.0,0.0,0.0,0.0,-2.1484,-2.128,0.0,-2.2569,0.0,0.0,0.0,-2.4102,0.0,-2.4883,-2.5106,-2.5106,-2.5195,-2.543,-2.5596,-2.5577,-2.543,-2.5644,-2.5557,-2.543,-2.5596,-2.583,-2.6074,-2.6074,-2.6074,-2.6074,-2.6074,-2.5937,-2.5693,0.0,-4.0852,0.0,0.0,-4.5372,-4.7456,-4.8761,-5.0845,-5.18,-5.0469,-4.9414,-4.8761,-4.8636,-4.9314,-4.9715,-4.9615,-4.856,-4.7908,-4.7908,-4.5849,-4.4317,-4.3664,-4.2158,-4.0297,-3.8241,-3.6558,-3.5027,0.0,-3.1813,-3.0959,0.0,0.0,0.0,0.0,0.0,0.0,0.0,0.0,-3.3319,-3.3696,-3.3244,-3.3111,-3.3111,-3.3111,-3.3111,-3.3111,-3.3111,-3.3111,-3.3111,-3.3111,-3.3111,-3.3111,-3.3111,-3.2413,-3.1488,-3.0956,-3.0124,-2.9258,-2.8773,-2.7632,-2.6594,-2.6558,-2.5611,-2.4648,-2.4453,-2.4238,-2.4004,-2.3828,-2.3437,-2.3101,-2.3101,-2.3101,0.0,0.0,0.0,0.0,0.0,0.0,0.0,0.0,0.0,0.0,-2.1502,0.0,0.0,0.0,0.0,-2.0977,-2.0723,-2.1777,-2.2266,0.0,0.0,-2.4473,-2.4062,0.0,-2.543,-2.5399,-2.5302,-2.5391,-2.5693,-2.5693,-2.5693,-2.5693,-2.5693,-2.5693,-2.5693,-2.5693,-2.5996,-2.6387,-2.6387,-2.6445,-2.6523,-2.6523,-2.6309,-2.5947,0.0,0.0,-4.4292,-4.4443,-4.7129,-4.9339,-4.949,-5.1423,-5.2804,-5.2628,-5.2076,-5.1523,-5.1021,-5.0594,-5.0142,-4.964,-4.856,-4.7908,-4.7908,-4.5849,-4.4141,-4.3112,-4.1957,-4.0551,-3.8818,-3.7184,-3.5956,0.0,-3.3119,-3.2064,0.0,0.0,0.0,0.0,0.0,0.0,0.0,-3.2842,-3.3119,-3.3144,-3.3093,-3.3111,-3.3111,-3.3111,-3.3111,-3.3111,-3.3111,-3.3111,-3.3111,-3.3111,-3.3111,-3.3111,-3.3111,-3.3025,-3.2481,-3.0237,-2.951,-2.889,-2.6668,-2.5945,-2.5711,-2.5346,-2.5428,-2.5362,-2.4609,-2.4687,-2.4773,-2.3945,-2.3437,-2.3101,-2.3101,-2.3101,-2.3101,0.0,0.0,0.0,0.0,0.0,0.0,0.0,0.0,0.0,0.0,-2.1639,0.0,0.0,-2.0879,-2.0781,-2.1112,-2.166,-2.2109,-2.2441,-2.2964,-2.3848,-2.4988,-2.4668,-2.5117,-2.6269,-2.5859,-2.5654,-2.5693,-2.5693,-2.5693,-2.5693,-2.5693,-2.5693,-2.5693,-2.5693,-2.5996,-2.6387,-2.6387,-2.6621,-2.6953,-2.6953,-2.6934,-2.6836,-4.4493,-4.5171,-4.605,-4.738,-4.8711,-5.0042,-5.1398,-5.2352,-5.2929,-5.2929,-5.2151,-5.1523,-5.1297,-5.0469,-4.969,-4.9163,-4.836,-4.7782,-4.7456,-4.5673,-4.4267,-4.3514,-4.2108,-4.0727,-3.9396,-3.7713,-3.6433,0.0,0.0,0.0,0.0,0.0,0.0,0.0,0.0,-3.2416,-3.2742,-3.2993,-3.3111,-3.3111,-3.3111,-3.3111,-3.3111,-3.3111,-3.3111,-3.3111,-3.3111,-3.3111,-3.3111,-3.3111,-3.3111,-3.3111,-3.3111,-3.2568,-3.1645,-2.9897,-2.8912,-2.7955,-2.6207,-2.5693,-2.5635,-2.5508,-2.5605,-2.5596,-2.5245,-2.5137,-2.5008,-2.4675,-2.4004,-2.3535,-2.3535,-2.3276,-2.3101,-2.3101,0.0,0.0,0.0,0.0,0.0,0.0,0.0,0.0,0.0,0.0,0.0,0.0,0.0,-2.1055,-2.119,-2.1894,-2.2344,-2.25,0.0,-2.416,-2.4668,-2.5039,-2.5421,-2.5996,-2.5771,-2.583,-2.6133,-2.6133,-2.6269,-2.6504,-2.6504,-2.6504,-2.6504,-2.6504,-2.6758,-2.7148,-2.7148,-2.7266,-2.7402,-2.7402,-2.709,-2.6641,-4.6828,-4.7154,-4.7933,-4.9967,-5.0469,-5.1096,-5.2678,-5.2779,-5.2754,-5.2904,-5.1825,-5.1096,-5.1272,-5.0419,-4.9615,-4.9063,-4.8335,-4.7757,-4.738,-4.5648,-4.4367,-4.3815,-4.2384,0.0,-3.9948,-3.8467,-3.7136,-3.5984,-3.4926,0.0,0.0,0.0,0.0,0.0,-3.2943,-3.3169,-3.3545,-3.3395,-3.3319,-3.3294,-3.3144,-3.3111,-3.3111,-3.3111,-3.3111,-3.3111,-3.3111,-3.3111,-3.3111,-3.3111,-3.3111,-3.3111,-3.3111,-3.2239,-3.0956,-2.9761,-2.8541,-2.7315,-2.6062,-2.5693,-2.5693,-2.5693,-2.5693,-2.5693,-2.5693,-2.5488,-2.5234,-2.5145,-2.4492,-2.3945,-2.3809,-2.3535,-2.3237,-2.312,0.0,0.0,0.0,0.0,0.0,0.0,-2.2828,-2.2695,-2.2695,-2.2324,0.0,0.0,0.0,-2.158,-2.158,-2.2187,-2.2559,0.0,0.0,0.0,-2.4414,-2.5156,-2.5664,-2.5937,-2.5937,-2.6152,-2.6562,-2.6562,-2.6738,-2.7012,-2.7012,-2.7012,-2.7012,-2.7012,-2.7266,-2.7728,-2.7728,-2.7787,-2.7904,-2.7904,-2.7461,-2.6973,-4.8309,-4.9188,-5.0092,-5.1774,-5.2528,-5.2904,-5.2929,-5.2477,-5.2302,-5.2854,-5.1473,-5.0645,-5.1222,-5.077,-5.0193,-4.964,-4.856,-4.7908,-4.7908,-4.5849,-4.4367,0.0,0.0,-4.1685,-4.0526,-3.9421,-3.8291,-3.7161,0.0,0.0,-3.4655,0.0,-3.47,-3.47,-3.47,-3.4655,-3.4675,-3.4123,-3.3897,-3.3847,-3.3294,-3.3111,-3.3111,-3.3111,-3.3111,-3.3111,-3.3111,-3.3111,-3.3111,-3.3111,-3.3111,-3.3111,-3.3111,-3.2239,-3.0956,-2.9761,-2.8541,-2.7315,-2.6062,-2.5693,-2.5693,-2.5693,-2.5693,-2.5693,-2.5693,-2.5693,-2.5605,-2.5156,-2.4727,-2.4277,-2.3867,-2.3789,-2.3633,-2.3159,0.0,0.0,0.0,0.0,0.0,0.0,-2.3081,-2.3081,-2.3081,-2.2711,0.0,0.0,0.0,0.0,0.0,0.0,0.0,-2.3081,-2.3574,0.0,-2.4414,-2.4863,-2.5556,-2.6387,-2.6387,-2.6602,-2.7012,-2.7012,-2.7012,-2.7012,-2.7012,-2.7012,-2.7012,-2.7012,-2.7266,-2.7728,-2.7728,-2.793,-2.8281,-2.8281,-2.8281,-2.8203,-4.969,-5.0645,-5.1473,-5.2026,-5.2553,-5.2929,-5.2929,-5.2779,-5.2729,-5.2904,-5.2126,-5.1624,-5.1825,-5.0645,-4.964,0.0,-4.8335,-4.7757,0.0,-4.6024,-4.4794,-4.384,-4.3112,-4.2032,-4.0551,-3.9798,-3.8868,-3.7739,0.0,0.0,0.0,-3.5454,-3.5031,-3.468,-3.468,-3.468,-3.463,-3.4123,-3.4123,-3.4374,-3.3445,-3.3294,-3.3596,-3.3262,-3.3111,-3.3111,-3.3111,-3.3111,-3.3111,-3.3111,-3.3111,-3.2939,-3.2108,-3.1557,-3.0956,-2.9761,-2.8541,-2.7315,-2.6062,-2.5693,-2.5693,-2.5693,-2.5693,-2.5693,-2.5693,-2.5693,-2.5654,-2.5547,-2.5176,-2.4824,-2.4734,-2.418,-2.375,-2.3613,-2.3296,0.0,-2.3101,0.0,0.0,-2.3101,-2.3101,-2.3101,-2.3101,-2.2984,0.0,0.0,0.0,0.0,0.0,0.0,0.0,0.0,-2.4004,0.0,-2.4863,-2.5312,-2.582,-2.6387,-2.6387,-2.6758,-2.748,-2.7754,-2.7891,-2.7891,-2.7891,-2.7891,-2.7891,-2.7891,-2.7969,-2.8086,-2.8086,-2.8184,-2.8301,-2.8301,-2.8105,-2.7851,-5.0896,-5.1624,-5.2176,-5.2377,-5.2703,-5.2929,-5.2929,-5.2754,-5.2628,-5.2628,-5.195,-5.1473,-5.1473,-5.0343,-4.954,-4.9414,-4.8485,-4.7782,-4.7431,-4.62,-4.507,-4.4141,-4.3589,-4.2509,-4.0852,-4.0501,0.0,-3.8341,-3.8115,-3.7538,-3.6707,-3.6307,-3.5855,-3.5328,-3.5328,-3.5328,-3.5303,-3.4751,-3.468,-3.4906,-3.4048,-3.3771,-3.3847,-3.352,-3.3269,-3.3111,-3.3111,-3.3111,-3.3111,-3.3111,-3.3111,-3.2896,-3.1601,-3.0911,-3.0259,-2.9096,-2.7861,-2.6716,-2.5917,-2.5693,-2.5693,-2.5693,-2.5693,-2.5693,-2.5693,-2.5693,-2.5693,-2.5693,-2.5508,-2.5273,-2.5145,-2.4675,-2.416,-2.3848,-2.3555,-2.3276,-2.312,0.0,-2.3101,0.0,0.0,0.0,0.0,-2.3101,-2.3101,0.0,0.0,0.0,0.0,0.0,-2.3516,-2.3789,-2.4355,-2.4883,-2.5312,-2.5762,-2.6269,-2.6875,-2.7031,-2.7383,-2.791,-2.8184,-2.8301,-2.8301,-2.8301,-2.8301,-2.8301,-2.8301,-2.8301,-2.8301,-2.8301,-2.8301,-2.8301,-2.8301,-2.8125,-2.7963,-5.19,-5.2126,-5.2327,-5.2829,-5.2929,-5.2929,-5.2929,-5.2503,-5.2151,-5.2101,-5.1147,-5.0469,-5.0469,-4.9941,-4.9791,-5.0318,0.0,0.0,-4.7857,-4.6376,-4.5221,-4.4644,-4.4066,-4.2986,-4.1326,-4.125,-4.0501,-3.8969,-3.8341,-3.7789,-3.7236,-3.7211,-3.6885,-3.6405,-3.6405,-3.6405,-3.638,-3.578,-3.5508,-3.5508,-3.4906,-3.4424,-3.3997,-3.3972,-3.3646,-3.3237,-3.3144,-3.3187,-3.3162,-3.3093,-3.3111,-3.2853,-3.1488,-3.0305,-2.9189,-2.7955,-2.6716,-2.5693,-2.5693,-2.5693,-2.5693,-2.5693,-2.5693,-2.5693,-2.5732,-2.5713,-2.5693,-2.5732,-2.5713,-2.5605,-2.5195,-2.5145,-2.4832,-2.3965,-2.3809,-2.3633,-2.3159,-2.3101,-2.3101,0.0,0.0,0.0,-2.3101,-2.312,-2.314,0.0,0.0,0.0,0.0,0.0,-2.3906,-2.3887,-2.4687,-2.5352,-2.5771,-2.623,-2.6855,-2.7728,-2.8086,-2.8301,-2.8301,-2.8301,-2.8301,-2.8301,-2.8301,-2.8301,-2.8301,-2.8301,-2.8301,-2.8301,-2.8301,-2.8301,-2.8301,-2.8301,-2.8301,-2.8301,-5.2051,-5.2452,-5.2779,-5.2904,-5.2929,-5.2929,-5.2929,-5.2829,-5.2578,-5.2151,-5.1498,-5.1071,-5.1071,-5.0193,-4.964,-4.9766,-4.8636,-4.7732,-4.733,-4.6175,-4.5221,-4.4644,-4.3689,-4.261,-4.13,-4.0874,-4.03,-3.9496,-3.8944,-3.8366,-3.7789,-3.7387,-3.6885,-3.6405,-3.6405,-3.6405,-3.638,-3.578,-3.578,-3.6081,-3.5102,-3.4856,-3.5056,-3.47,-3.4449,-3.4274,-3.3847,-3.3696,-3.3646,-3.3262,-3.3111,-3.2698,-3.0508,-2.9624,-2.9189,-2.7955,-2.6716,-2.5693,-2.5693,-2.5693,-2.5693,-2.5693,-2.5693,-2.5771,-2.6152,-2.5977,-2.5791,-2.6172,-2.5977,-2.5654,-2.5605,-2.5293,-2.4949,-2.4355,-2.4004,-2.3633,-2.3159,-2.3101,-2.3101,0.0,-2.3437,-2.3496,-2.312,-2.3437,-2.3633,0.0,0.0,-2.3887,-2.4102,-2.4844,-2.5117,-2.4832,-2.5293,-2.5937,-2.6649,-2.6816,-2.7129,-2.7728,-2.8086,-2.8301,-2.8301,-2.8301,-2.8301,-2.8301,-2.8301,-2.8301,-2.8301,-2.8301,-2.8301,-2.8301,-2.8301,-2.8301,-2.8301,-2.8301,-2.8301,-2.8301,-5.2427,-5.2729,-5.2929,-5.2929,-5.2929,-5.2929,-5.2929,-5.2929,-5.2628,-5.1825,-5.1473,-5.0996,-5.0218,-4.959,-4.9012,-4.851,-4.8134,-4.7682,-4.7179,-4.61,-4.5221,-4.4644,-4.3815,-4.2735,-4.13,-4.1,-4.0501,-3.9697,-3.9145,-3.8567,-3.799,-3.7437,-3.6885,-3.6405,-3.6405,-3.6405,-3.638,-3.6031,-3.6081,-3.6355,-3.5705,-3.5504,-3.5458,-3.5182,-3.4906,-3.465,-3.4098,-3.3897,-3.3847,-3.3545,-3.3445,-3.3077,-3.0813,-3.009,-2.9714,-2.789,-2.6554,-2.5693,-2.5693,-2.583,-2.6074,-2.6269,-2.6278,-2.6387,-2.6621,-2.6484,-2.6387,-2.6621,-2.6484,-2.6269,-2.6074,-2.584,-2.5391,-2.4551,-2.4394,-2.416,-2.3516,-2.3594,-2.3686,-2.3686,-2.4102,-2.4199,-2.3725,-2.4316,-2.4512,-2.4102,-2.4453,0.0,-2.4707,-2.5547,-2.584,-2.5391,-2.5996,-2.6641,-2.7305,-2.75,-2.7715,-2.7949,-2.8184,-2.8301,-2.8301,-2.8301,-2.8301,-2.8301,-2.8301,-2.8301,-2.8301,-2.8301,-2.8301,-2.8301,-2.8301,-2.8301,-2.8301,-2.8301,-2.8301,-2.8301,-5.2829,-5.2929,-5.2929,-5.2929,-5.2929,-5.2929,-5.2929,-5.2929,-5.2528,-5.1423,-5.1272,-5.067,-4.9063,-4.8887,-4.8485,-4.7481,-4.7707,-4.7606,-4.6928,-4.5924,-4.5095,-4.4518,-4.3815,-4.2785,-4.1326,-4.1125,-4.0626,-3.9697,-3.922,-3.8668,-3.799,-3.7538,-3.696,-3.6405,-3.6405,-3.6405,-3.6405,-3.6405,-3.6405,-3.6405,-3.6405,-3.6081,-3.5633,-3.5633,-3.5332,-3.4901,-3.4349,-3.4148,-3.4148,-3.4048,-3.4022,-3.3628,-3.1572,-3.0897,-3.0414,-2.7784,-2.6504,-2.5888,-2.5888,-2.6211,-2.6562,-2.6914,-2.7012,-2.7031,-2.709,-2.707,-2.7031,-2.709,-2.707,-2.6894,-2.6465,-2.6387,-2.5977,-2.4727,-2.4824,-2.4832,-2.4004,0.0,-2.4434,-2.4512,-2.4902,-2.5019,-2.4648,-2.5304,-2.5527,-2.4766,-2.541,-2.5703,-2.5371,-2.6133,-2.6406,-2.5986,-2.6738,-2.7324,-2.7806,-2.8125,-2.832,-2.8379,-2.832,-2.832,-2.8379,-2.832,-2.8301,-2.8301,-2.8301,-2.8301,-2.8301,-2.8301,-2.8301,-2.8301,-2.8301,-2.8301,-2.8301,-2.8301,-2.8301,-2.8301,-5.2904,-5.2929,-5.2929,-5.2929,-5.2929,-5.2929,-5.2929,-5.2929,-5.2528,-5.1423,-5.1272,-5.082,-4.959,-4.9464,-4.9213,-4.856,-4.8134,-4.728,-4.5824,-4.5121,-4.4518,-4.394,-4.2509,-4.1551,-4.13,-4.0425,-3.9873,-3.9697,-3.9622,-3.9044,-3.8015,-3.7914,-3.7337,-3.6405,-3.6405,-3.6405,-3.6405,-3.6405,-3.6405,-3.6405,-3.6405,-3.6355,-3.6279,-3.6279,-3.6229,-3.6078,-3.5433,-3.5232,-3.5182,-3.4705,-3.46,-3.4123,-3.1687,-3.0897,-3.0414,-2.7784,-2.6914,-2.6816,-2.6816,-2.6855,-2.6934,-2.6992,-2.7012,-2.7109,-2.748,-2.7285,-2.7129,-2.748,-2.7266,-2.6894,-2.6465,-2.6387,-2.6074,-2.5117,-2.5067,-2.4883,-2.4394,0.0,-2.4551,-2.4922,-2.5371,-2.5557,-2.5499,-2.5996,-2.623,-2.6094,-2.6211,-2.6406,-2.6699,-2.7187,-2.7441,-2.7363,-2.75,-2.7773,-2.8184,-2.8262,-2.8476,-2.8809,-2.8457,-2.8476,-2.8809,-2.8457,-2.8301,-2.8301,-2.8301,-2.8301,-2.8301,-2.8301,-2.8301,-2.8301,-2.8301,-2.8301,-2.8301,-2.8301,-2.8301,-2.8301,-5.2929,-5.2929,-5.2929,-5.2929,-5.2929,-5.2929,-5.2929,-5.2678,-5.2201,-5.1398,-5.1021,-5.0393,-4.9264,-4.9163,-4.8812,-4.7958,-4.7631,-4.6928,-4.5573,-4.4945,-4.4367,-4.3815,-4.2785,-4.1957,-4.13,-4.0249,-3.9697,-3.9697,-3.9396,-3.8969,-3.8467,-3.7839,-3.7287,-3.6832,-3.6531,-3.6405,-3.6405,-3.6405,-3.6405,-3.6405,-3.6405,-3.6405,-3.6405,-3.6405,-3.6405,-3.6329,-3.5708,-3.5508,-3.5365,-3.4372,-3.4042,-3.3739,-3.2179,-3.1164,-3.0335,-2.9137,-2.791,-2.707,-2.7305,-2.7363,-2.7422,-2.7656,-2.7695,-2.7754,-2.7949,-2.7851,-2.7754,-2.7969,-2.7851,-2.7578,-2.7148,-2.6875,-2.6523,-2.5879,-2.5586,-2.5352,-2.5109,-2.5332,-2.5547,-2.5762,-2.6367,-2.668,-2.6395,-2.7031,-2.7324,-2.7141,-2.7285,-2.7598,-2.8027,-2.8008,-2.8105,-2.834,-2.834,-2.8437,-2.8633,-2.8867,-2.9082,-2.9258,-2.9082,-2.9082,-2.9258,-2.8828,-2.8633,-2.8613,-2.8398,-2.8301,-2.8301,-2.8301,-2.8301,-2.8301,-2.8301,-2.8301,-2.8301,-2.8301,-2.8301,-2.8301,-5.2929,-5.2929,-5.2929,-5.2929,-5.2929,-5.2929,-5.2929,-5.2452,-5.19,-5.1348,-5.077,-5.0042,-4.9063,-4.8962,-4.856,-4.7606,-4.738,-4.6853,-4.5748,-4.502,-4.4367,-4.3815,-4.3037,-4.2133,-4.1125,-4.0199,-3.9697,-3.9697,-3.927,-3.9045,-3.8894,-3.799,-3.7513,-3.7362,-3.6983,-3.6732,-3.6606,-3.6606,-3.6531,-3.6405,-3.6405,-3.6405,-3.6405,-3.6405,-3.6405,-3.6355,-3.5881,-3.5683,-3.5497,-3.415,-3.3719,-3.3477,-3.2219,-3.1197,-3.037,-3.0077,-2.885,-2.7656,-2.7891,-2.7891,-2.7963,-2.834,-2.8359,-2.8301,-2.8301,-2.8301,-2.832,-2.8418,-2.8437,-2.832,-2.7891,-2.7539,-2.7129,-2.6621,0.0,-2.5986,-2.5986,-2.6328,-2.6602,-2.6816,-2.7422,-2.7754,-2.7617,-2.8203,-2.8457,-2.8178,-2.8398,-2.873,-2.9062,-2.8769,-2.873,-2.9062,-2.8965,-2.8965,-2.9062,-2.9394,-2.9685,-2.9707,-2.9609,-2.9685,-2.9707,-2.9258,-2.9004,-2.8906,-2.8574,-2.8379,-2.8301,-2.8301,-2.8301,-2.8301,-2.8301,-2.8359,-2.8418,-2.832,-2.8418,-2.8555,-5.2929,-5.2929,-5.2929,-5.2929,-5.2929,-5.2929,-5.2929,-5.2452,-5.19,-5.1348,-5.077,-5.0193,-4.959,-4.954,-4.9289,-4.8711,-4.8159,-4.7405,-4.6326,-4.5221,-4.4367,-4.3815,-4.2308,-4.1125,-4.0601,-3.9998,-3.9697,-3.9697,-3.9647,-3.9371,-3.8919,-3.8844,-3.8467,-3.7939,-3.7889,-3.7613,-3.7136,-3.7136,-3.6835,-3.6405,-3.6405,-3.6405,-3.6405,-3.6405,-3.6405,-3.6405,-3.6355,-3.6355,-3.6141,-3.4776,-3.4314,-3.3873,-3.1265,-3.0674,-3.0713,-2.9391,-2.9211,-2.9297,-2.8926,-2.8535,-2.834,-2.8769,-2.8574,-2.8301,-2.8301,-2.8301,-2.8398,-2.8789,-2.8867,-2.875,-2.832,-2.8223,-2.793,-2.7109,0.0,0.0,-2.6914,-2.6953,-2.7266,-2.8047,-2.8203,-2.8535,-2.9316,-2.9489,-2.9473,-2.9489,-2.9509,-2.9548,-2.9531,-2.9492,-2.9548,-2.9531,-2.9141,-2.9121,-2.9512,-2.9551,-2.9766,-3.0137,-2.9766,-2.9785,-3.0137,-2.9707,-2.9297,-2.8926,-2.8887,-2.8652,-2.8301,-2.8301,-2.8301,-2.8301,-2.8301,-2.8535,-2.8828,-2.8437,-2.8789,-2.9411,-5.2929,-5.2929,-5.2929,-5.2929,-5.2929,-5.2929,-5.2929,-5.2452,-5.19,-5.1348,-5.077,-5.0218,-4.9665,-4.959,-4.9213,-4.8309,-4.8033,-4.7456,-4.6376,-4.5246,-4.4217,-4.3338,-4.2359,-4.158,-4.0974,-4.0475,-4.0049,-3.9697,-3.9697,-3.9597,-3.9371,-3.907,-3.8793,-3.8517,-3.8165,-3.7889,-3.7688,-3.7688,-3.7387,-3.6933,-3.6933,-3.6707,-3.6405,-3.6405,-3.6405,-3.6405,-3.6405,-3.6405,-3.6216,-3.4824,-3.3822,-3.2951,-3.2178,-3.0927,-2.9653,-2.9404,-2.9434,-2.959,-2.9687,-2.9414,-2.9121,-2.9277,-2.9199,-2.9082,-2.9082,-2.9082,-2.9121,-2.9297,-2.9316,-2.9277,-2.9121,-2.8867,-2.8672,-2.8613,0.0,-2.7891,-2.8164,-2.8203,-2.832,-2.8652,-2.8926,-2.9274,-2.9607,-2.9626,-2.9668,-2.9941,-2.9961,-3.0078,-3.0371,-3.0117,-2.9961,-2.9961,-2.9805,-2.9785,-2.9961,-3.0254,-3.0469,-3.0625,-3.0469,-3.0469,-3.0605,-3.0156,-2.9863,-2.9687,-2.9434,-2.9238,-2.9082,-2.9082,-2.9082,-2.9082,-2.9082,-2.918,-2.9297,-2.9141,-2.9297,-2.9492,-5.2929,-5.2929,-5.2929,-5.2929,-5.2929,-5.2929,-5.2929,-5.2452,-5.19,-5.1348,-5.077,-5.0218,-4.9665,-4.959,-4.9138,-4.8008,-4.7908,-4.7456,-4.6376,-4.5246,-4.4141,-4.3037,-4.2514,-4.1907,-4.13,-4.0802,-4.0249,-3.9697,-3.9697,-3.9697,-3.9697,-3.9295,-3.912,-3.912,-3.8718,-3.8442,-3.8266,-3.8266,-3.7965,-3.7437,-3.7437,-3.7111,-3.6681,-3.6857,-3.6832,-3.6656,-3.6656,-3.6782,-3.6643,-3.5162,-3.38,-3.2744,-3.2633,-3.11,-2.9414,-2.9863,-2.998,-3.0039,-3.0332,-3.0215,-2.9941,-2.9805,-2.9668,-2.9626,-2.9626,-2.9626,-2.9665,-2.9746,-2.9766,-2.9766,-2.9766,-2.9531,-2.9375,-2.9551,-2.9082,-2.8789,-2.9082,-2.9121,-2.918,-2.9297,-2.959,-2.9824,-2.998,-2.998,-3.0098,-3.0391,-3.041,-3.0547,-3.0879,-3.0586,-3.041,-3.041,-3.041,-3.041,-3.041,-3.0723,-3.0898,-3.0898,-3.0898,-3.0898,-3.0879,-3.0566,-3.0332,-3.0176,-2.9902,-2.9744,-2.9626,-2.9626,-2.9626,-2.9626,-2.9626,-2.9704,-2.9746,-2.9685,-2.9746,-2.9902,-5.2929,-5.2929,-5.2929,-5.2929,-5.2929,-5.2929,-5.2929,-5.2452,-5.19,-5.1348,-5.077,-5.0218,-4.9665,-4.959,-4.9138,-4.8008,-4.7908,-4.7456,-4.6376,-4.5246,-4.4141,-4.3037,-4.2514,-4.1907,-4.13,-4.0802,-4.0249,-3.9697,-3.9697,-3.9697,-3.9697,-3.9697,-3.9697,-3.9697,-3.9697,-3.9396,-3.8919,-3.8919,-3.8542,-3.8015,-3.8015,-3.7688,-3.7236,-3.7789,-3.7663,-3.7186,-3.7186,-3.7538,-3.7717,-3.5813,-3.4593,-3.3546,-3.2233,-3.1055,-3.0293,-3.0762,-3.0898,-3.0898,-3.0898,-3.0898,-3.0781,-3.0312,-2.9883,-2.9646,-2.9646,-2.9646,-2.9707,-3.0117,-3.0195,-3.0195,-3.0195,-3.0195,-3.0059,-2.9704,-2.9646,-2.9646,-2.9646,-2.9646,-2.9726,-3.0156,-3.0195,-3.0391,-3.084,-3.0898,-3.0898,-3.0898,-3.0898,-3.0898,-3.0898,-3.0898,-3.0898,-3.0898,-3.0898,-3.0898,-3.0898,-3.0898,-3.0898,-3.0898,-3.0898,-3.0898,-3.0898,-3.0898,-3.0644,-3.0195,-3.0195,-2.9961,-2.9646,-2.9646,-2.9646,-2.9646,-2.9646,-2.9844,-3.0156,-2.9726,-3.0137,-3.0762,-5.2929,-5.2929,-5.2929,-5.2929,-5.2929,-5.2804,-5.2402,-5.2201,-5.1774,-5.0795,-5.0519,-5.0218,-4.9665,-4.959,-4.9138,-4.8008,-4.7908,-4.728,-4.5824,-4.5045,-4.4292,-4.3589,-4.3037,-4.2283,-4.13,-4.1125,-4.0827,-4.0275,-3.9873,-3.9898,-4.0249,-3.9873,-3.9697,-3.9697,-3.9697,-3.9597,-3.9446,-3.9446,-3.912,-3.8617,-3.8617,-3.8266,-3.7789,-3.7939,-3.7914,-3.7764,-3.7764,-3.7196,-3.6365,-3.5792,-3.4094,-3.206,-3.1005,-3.0712,-3.0703,-3.0859,-3.0898,-3.0898,-3.0898,-3.0898,-3.0859,-3.0723,-3.0586,-3.0488,-3.0488,-3.0488,-3.0527,-3.0664,-3.0684,-3.0684,-3.0684,-3.0684,-3.0644,-3.0508,-3.0488,-3.0488,-3.0488,-3.0488,-3.0547,-3.0664,-3.0684,-3.0742,-3.0879,-3.0898,-3.0898,-3.0898,-3.0898,-3.0898,-3.0898,-3.0898,-3.0898,-3.0898,-3.0898,-3.0898,-3.0898,-3.0898,-3.0898,-3.0898,-3.0898,-3.0898,-3.0898,-3.0898,-3.082,-3.0684,-3.0684,-3.0605,-3.0488,-3.0488,-3.0488,-3.0488,-3.0488,-3.0566,-3.0664,-3.0547,-3.0664,-3.0801,-5.2929,-5.2929,-5.2929,-5.2929,-5.2929,-5.2804,-5.2477,-5.2251,-5.1774,-5.087,-5.0569,-5.0218,-4.9665,-4.959,-4.9138,-4.8008,-4.7531,-4.6853,-4.5874,-4.5271,-4.4719,-4.4141,-4.3589,-4.2785,-4.1681,-4.1656,-4.1279,-4.0526,-4.04,-4.03,-4.0199,-4.0074,-3.9898,-3.9697,-3.9697,-3.9697,-3.9697,-3.9697,-3.9496,-3.9195,-3.9195,-3.8843,-3.8366,-3.8592,-3.8542,-3.8291,-3.7715,-3.7052,-3.6346,-3.5486,-3.3915,-3.2024,-3.0829,-3.0664,-3.0898,-3.0898,-3.0898,-3.0898,-3.0898,-3.0898,-3.0898,-3.0898,-3.0898,-3.0898,-3.0898,-3.0898,-3.0898,-3.0898,-3.0898,-3.0898,-3.0898,-3.0898,-3.0898,-3.0898,-3.0898,-3.0898,-3.0898,-3.0898,-3.0898,-3.0898,-3.0898,-3.0898,-3.0898,-3.0898,-3.0898,-3.0898,-3.0898,-3.0898,-3.0898,-3.0898,-3.0898,-3.0898,-3.0898,-3.0898,-3.0898,-3.0898,-3.0898,-3.0898,-3.0898,-3.0898,-3.0898,-3.0898,-3.0898,-3.0898,-3.0898,-3.0898,-3.0898,-3.0898,-3.0898,-3.0898,-3.0898,-3.0898,-3.0898,-3.0898,-3.0898,-3.0781,-5.2929,-5.2929,-5.2929,-5.2929,-5.2929,-5.2904,-5.2854,-5.2377,-5.1825,-5.1272,-5.0695,-5.0142,-4.964,-4.959,-4.9163,-4.8083,-4.7004,-4.6351,-4.6301,-4.5799,-4.5246,-4.4719,-4.4166,-4.3413,-4.2464,-4.2288,-4.1656,-4.0651,-4.1075,-4.0774,-3.9848,-4.03,-4.0224,-3.9697,-3.9697,-3.9697,-3.9697,-3.9697,-3.9697,-3.9697,-3.9697,-3.9396,-3.8994,-3.9496,-3.9371,-3.8767,-3.7308,-3.6996,-3.6955,-3.4805,-3.3535,-3.2701,-3.1325,-3.0898,-3.0898,-3.0898,-3.0898,-3.0898,-3.0898,-3.0898,-3.0898,-3.0898,-3.0898,-3.0898,-3.0898,-3.0898,-3.0898,-3.0898,-3.0898,-3.0898,-3.0898,-3.0898,-3.0898,-3.0898,-3.0898,-3.0898,-3.0898,-3.0898,-3.0898,-3.0898,-3.0898,-3.0898,-3.0898,-3.0898,-3.0898,-3.0898,-3.0898,-3.0898,-3.0898,-3.0898,-3.0898,-3.0898,-3.0898,-3.0898,-3.0898,-3.0898,-3.0898,-3.0898,-3.0898,-3.0898,-3.0898,-3.0898,-3.0898,-3.0898,-3.0898,-3.0898,-3.0898,-3.0898,-3.0898,-3.0898,-3.0898,-3.0898,-3.0898,-3.0898,-3.0898,-3.0645,-5.2929,-5.2929,-5.2929,-5.2929,-5.2929,-5.2779,-5.2352,-5.1825,-5.1247,-5.067,-5.0117,-4.9715,-4.9615,-4.959,-4.9314,-4.8636,-4.7581,-4.6778,-4.6326,-4.5799,-4.5422,-4.5296,-4.4744,-4.4342,-4.4091,-4.2811,-4.2087,-4.1861,-4.148,-4.1175,-4.0924,-4.0651,-4.0224,-3.9697,-3.9697,-3.9697,-3.9697,-3.9697,-3.9697,-3.9697,-3.9697,-3.9622,-3.9521,-3.9647,-3.9622,-3.9342,-3.7839,-3.6664,-3.5376,-3.2597,-3.1514,-3.1325,-3.0995,-3.0898,-3.0898,-3.0898,-3.0898,-3.0898,-3.0898,-3.0898,-3.0898,-3.0898,-3.0898,-3.0898,-3.0898,-3.0898,-3.0898,-3.0898,-3.0898,-3.0898,-3.0898,-3.0898,-3.0898,-3.0898,-3.0898,-3.0898,-3.0898,-3.0898,-3.0898,-3.0898,-3.0898,-3.0898,-3.0898,-3.0898,-3.0898,-3.0898,-3.0898,-3.0898,-3.0898,-3.0898,-3.0898,-3.0898,-3.0898,-3.0898,-3.0898,-3.0898,-3.0898,-3.0898,-3.0898,-3.0898,-3.0898,-3.0898,-3.0898,-3.0898,-3.0898,-3.0898,-3.0898,-3.0898,-3.0898,-3.0898,-3.0898,-3.0898,-3.0898,-3.0898,-3.0898,-3.0645,-5.2929,-5.2929,-5.2929,-5.2929,-5.2929,-5.2729,-5.2176,-5.1624,-5.1071,-5.0494,-4.9941,-4.959,-4.959,-4.959,-4.9264,-4.8435,-4.7606,-4.6842,-4.6351,-4.605,-4.5773,-4.5497,-4.4945,-4.4493,-4.4242,-4.3112,-4.2615,-4.2615,-4.2258,-4.1856,-4.1275,-4.1304,-4.0877,-4.0099,-4.0099,-3.9948,-3.9697,-3.9697,-3.9697,-3.9697,-3.9697,-3.9697,-3.9697,-3.9697,-3.9697,-3.9517,-3.8031,-3.6108,-3.3923,-3.1672,-3.0898,-3.0898,-3.0898,-3.1035,-3.1152,-3.0957,-3.1035,-3.1152,-3.0937,-3.0898,-3.0898,-3.0898,-3.1035,-3.1191,-3.1191,-3.1035,-3.1016,-3.1406,-3.1328,-3.125,-3.1465,-3.1504,-3.1504,-3.1504,-3.1328,-3.1191,-3.1191,-3.1016,-3.0898,-3.0898,-3.0898,-3.0898,-3.0898,-3.1074,-3.1191,-3.1191,-3.1387,-3.1504,-3.1504,-3.1504,-3.1406,-3.1191,-3.1191,-3.1094,-3.0898,-3.0898,-3.0898,-3.0898,-3.0898,-3.0898,-3.0898,-3.0898,-3.0898,-3.0898,-3.0898,-3.0898,-3.0898,-3.0898,-3.0898,-3.0898,-3.0898,-3.0898,-3.0898,-3.0898,-2.9903,-2.8307,-5.2929,-5.2929,-5.2929,-5.2929,-5.2929,-5.2729,-5.2176,-5.1724,-5.1222,-5.0645,-5.0167,-4.9841,-4.9741,-4.964,-4.9188,-4.8134,-4.7581,-4.7029,-4.6476,-4.6351,-4.61,-4.5648,-4.507,-4.4593,-4.4242,-4.3489,-4.3062,-4.2986,-4.2986,-4.2459,-4.148,-4.1957,-4.163,-4.0651,-4.0651,-4.035,-3.9848,-3.9848,-3.9772,-3.9697,-3.9697,-3.9697,-3.9697,-3.9697,-3.9697,-3.9465,-3.7743,-3.5211,-3.253,-3.1325,-3.0898,-3.0898,-3.0898,-3.1133,-3.1367,-3.1074,-3.125,-3.1445,-3.1191,-3.1113,-3.1113,-3.1113,-3.1367,-3.1641,-3.1719,-3.1348,-3.1211,-3.2012,-3.1816,-3.166,-3.209,-3.2229,-3.2229,-3.2229,-3.1875,-3.1621,-3.1621,-3.1328,-3.1113,-3.1113,-3.1113,-3.1113,-3.1113,-3.1426,-3.1621,-3.1621,-3.1953,-3.2129,-3.207,-3.2051,-3.1855,-3.1426,-3.1406,-3.125,-3.0898,-3.0898,-3.0898,-3.0898,-3.0898,-3.0898,-3.0898,-3.0898,-3.0898,-3.0898,-3.0898,-3.0898,-3.0898,-3.0898,-3.0898,-3.0898,-3.0898,-3.0898,-3.0898,-3.0587,-2.8545,-2.5741,-5.2929,-5.2929,-5.2929,-5.2929,-5.2929,-5.2729,-5.2176,-5.2051,-5.18,-5.1247,-5.1096,-5.087,-5.0368,-4.9891,-4.9339,-4.8711,-4.8134,-4.7581,-4.7054,-4.6577,-4.6276,-4.62,-4.5673,-4.5547,-4.5949,-4.4468,-4.3463,-4.2986,-4.2986,-4.266,-4.2112,-4.2162,-4.1831,-4.1175,-4.1175,-4.0874,-4.04,-4.04,-4.0124,-3.9697,-3.9697,-3.9697,-3.9697,-3.9697,-3.9697,-3.9362,-3.6595,-3.3698,-3.117,-3.0937,-3.0898,-3.0898,-3.0898,-3.0937,-3.1035,-3.1348,-3.1465,-3.1582,-3.1914,-3.1992,-3.1992,-3.1992,-3.2051,-3.2168,-3.2539,-3.2012,-3.1582,-3.207,-3.1816,-3.166,-3.209,-3.2229,-3.2229,-3.2229,-3.2129,-3.209,-3.209,-3.2031,-3.1992,-3.1992,-3.1992,-3.1992,-3.1992,-3.2051,-3.209,-3.209,-3.2129,-3.2012,-3.1621,-3.1601,-3.1406,-3.0996,-3.0976,-3.0957,-3.0898,-3.0898,-3.0898,-3.0898,-3.0898,-3.0898,-3.0898,-3.0898,-3.0898,-3.0898,-3.0898,-3.0898,-3.0898,-3.0898,-3.0898,-3.0898,-3.0898,-3.0898,-3.0704,-2.9275,-2.7572,-2.5741,-5.2528,-5.2703,-5.2929,-5.2929,-5.2678,-5.2277,-5.1724,-5.1649,-5.1322,-5.0444,-5.0619,-5.0594,-5.0017,-4.9741,-4.9238,-4.836,-4.8058,-4.7556,-4.6728,-4.6451,-4.6301,-4.6301,-4.5773,-4.5447,-4.5372,-4.4342,-4.3539,-4.2986,-4.2986,-4.2861,-4.2665,-4.2665,-4.2308,-4.1781,-4.1781,-4.1329,-4.0526,-4.0526,-4.0199,-3.9697,-3.9697,-3.9697,-3.9697,-3.9697,-3.9697,-3.9335,-3.6593,-3.4138,-3.2058,-3.1722,-3.1445,-3.1289,-3.1523,-3.1758,-3.1953,-3.1894,-3.2051,-3.2226,-3.2168,-3.2229,-3.2229,-3.2229,-3.2344,-3.2559,-3.2754,-3.25,-3.2363,-3.2773,-3.2519,-3.2363,-3.2793,-3.2871,-3.2871,-3.2871,-3.2676,-3.2519,-3.2519,-3.2324,-3.2229,-3.2229,-3.2229,-3.2229,-3.2229,-3.2383,-3.2519,-3.2519,-3.2734,-3.2793,-3.2598,-3.2578,-3.2383,-3.1973,-3.1719,-3.1484,-3.125,-3.1016,-3.0898,-3.0898,-3.0898,-3.0898,-3.0898,-3.0898,-3.0898,-3.0898,-3.0898,-3.0898,-3.0898,-3.0898,-3.0898,-3.0898,-3.0898,-3.0333,-2.9216,-2.6668,-2.5269,-2.4409]},{"header":{"parameterUnit":"m.s-1","parameterCategory":1,"la1":30.6,"la2":28.766,"lo1":-90.7593,"lo2":-88.6598,"dy":0.0162,"dx":0.0183,"nx":116,"ny":114,"refTime":"2023-04-16T12:00:00:Z","depth":0,"parameterNumber":3,"parameterNumberName":"V-component_of_WINDS"},"data":[0.0,0.0,0.0,0.0,0.0,0.0,0.0,0.0,0.0,0.0,0.0,0.0,0.0,0.0,0.0,0.0,0.0,0.0,0.0,0.0,0.0,0.0,0.0,0.0,0.0,0.0,0.0,0.0,0.0,0.0,0.0,0.0,0.0,0.0,0.0,0.0,0.0,0.0,0.0,0.0,0.0,0.0,0.0,0.0,0.0,0.0,0.0,0.0,0.0,0.0,0.0,0.0,0.0,0.0,0.0,0.0,0.0,0.0,0.0,0.0,0.0,0.0,0.0,0.0,0.0,0.0,0.0,0.0,0.0,0.0,0.0,0.0,0.0,0.0,0.0,0.0,0.0,0.0,0.0,0.0,0.0,0.0,0.0,0.0,0.0,0.0,0.0,0.0,0.0,0.0,0.0,0.0,0.0,0.0,0.0,0.0,0.0,0.0,0.0,0.0,0.0,0.0,0.0,0.0,0.0,0.0,0.0,0.0,0.0,0.0,0.0,0.0,0.0,0.0,0.0,0.0,0.0,0.0,0.0,0.0,0.0,0.0,0.0,0.0,0.0,0.0,0.0,0.0,0.0,0.0,0.0,0.0,0.0,0.0,0.0,0.0,0.0,0.0,0.0,0.0,0.0,0.0,0.0,0.0,0.0,0.0,0.0,0.0,0.0,0.0,0.0,0.0,0.0,0.0,0.0,0.0,0.0,0.0,0.0,0.0,0.0,0.0,0.0,0.0,0.0,0.0,0.0,0.0,0.0,0.0,0.0,0.0,0.0,0.0,0.0,0.0,0.0,0.0,0.0,0.0,0.0,0.0,0.0,0.0,0.0,0.0,0.0,0.0,0.0,0.0,0.0,0.0,0.0,0.0,0.0,0.0,0.0,0.0,0.0,0.0,0.0,0.0,0.0,0.0,0.0,0.0,0.0,0.0,0.0,0.0,0.0,0.0,0.0,0.0,0.0,0.0,0.0,0.0,0.0,0.0,0.0,0.0,0.0,0.0,0.0,0.0,0.0,0.0,0.0,0.0,0.0,0.0,0.0,0.0,0.0,0.0,0.0,0.0,0.0,0.0,0.0,0.0,0.0,0.0,0.0,0.0,0.0,0.0,0.0,0.0,0.0,0.0,0.0,0.0,0.0,0.0,0.0,0.0,0.0,0.0,0.0,0.0,0.0,0.0,0.0,0.0,0.0,0.0,0.0,0.0,0.0,0.0,0.0,0.0,0.0,0.0,0.0,0.0,0.0,0.0,0.0,0.0,0.0,0.0,0.0,0.0,0.0,0.0,0.0,0.0,0.0,0.0,0.0,0.0,0.0,0.0,0.0,0.0,0.0,0.0,0.0,0.0,0.0,0.0,0.0,0.0,0.0,0.0,0.0,0.0,0.0,0.0,0.0,0.0,0.0,0.0,0.0,0.0,0.0,0.0,0.0,0.0,0.0,0.0,0.0,0.0,0.0,0.0,0.0,0.0,0.0,0.0,0.0,0.0,0.0,0.0,0.0,0.0,0.0,0.0,0.0,0.0,0.0,0.0,0.0,0.0,0.0,0.0,0.0,0.0,0.0,0.0,0.0,0.0,0.0,0.0,0.0,0.0,0.0,0.0,0.0,0.0,0.0,0.0,0.0,0.0,0.0,0.0,0.0,0.0,0.0,0.0,0.0,0.0,0.0,0.0,0.0,0.0,0.0,0.0,0.0,0.0,0.0,0.0,0.0,0.0,0.0,0.0,0.0,0.0,0.0,0.0,0.0,0.0,0.0,0.0,0.0,0.0,0.0,0.0,0.0,0.0,0.0,0.0,0.0,0.0,0.0,0.0,0.0,0.0,0.0,0.0,0.0,0.0,0.0,0.0,0.0,0.0,0.0,0.0,0.0,0.0,0.0,0.0,0.0,0.0,0.0,0.0,0.0,0.0,0.0,0.0,0.0,0.0,0.0,0.0,0.0,0.0,0.0,0.0,0.0,0.0,0.0,0.0,0.0,0.0,0.0,0.0,0.0,0.0,0.0,0.0,0.0,0.0,0.0,0.0,0.0,0.0,0.0,0.0,0.0,0.0,0.0,0.0,0.0,0.0,0.0,0.0,0.0,0.0,0.0,0.0,0.0,0.0,0.0,0.0,0.0,0.0,0.0,0.0,0.0,0.0,0.0,0.0,0.0,0.0,0.0,0.0,0.0,0.0,0.0,0.0,0.0,0.0,0.0,0.0,0.0,0.0,0.0,0.0,0.0,0.0,0.0,0.0,0.0,0.0,0.0,0.0,0.0,0.0,0.0,0.0,0.0,0.0,0.0,0.0,0.0,0.0,0.0,0.0,0.0,0.0,0.0,0.0,0.0,0.0,0.0,0.0,0.0,0.0,0.0,0.0,0.0,0.0,0.0,0.0,0.0,0.0,0.0,0.0,0.0,0.0,0.0,0.0,0.0,0.0,0.0,0.0,0.0,0.0,0.0,0.0,0.0,0.0,0.0,0.0,0.0,0.0,0.0,0.0,0.0,0.0,0.0,0.0,0.0,0.0,0.0,0.0,0.0,0.0,0.0,0.0,0.0,0.0,0.0,0.0,0.0,0.0,0.0,0.0,0.0,0.0,0.0,0.0,0.0,0.0,0.0,0.0,0.0,0.0,0.0,0.0,0.0,0.0,0.0,0.0,0.0,0.0,0.0,0.0,0.0,0.0,0.0,0.0,0.0,0.0,0.0,0.0,0.0,0.0,0.0,0.0,0.0,0.0,0.0,0.0,0.0,0.0,0.0,0.0,0.0,0.0,0.0,0.0,0.0,0.0,0.0,0.0,0.0,0.0,0.0,0.0,0.0,0.0,0.0,0.0,0.0,0.0,0.0,0.0,0.0,0.0,0.0,0.0,0.0,0.0,0.0,0.0,0.0,0.0,0.0,0.0,0.0,0.0,0.0,0.0,0.0,0.0,0.0,0.0,0.0,0.0,0.0,0.0,0.0,0.0,0.0,0.0,0.0,0.0,0.0,0.0,0.0,0.0,0.0,0.0,0.0,0.0,0.0,0.0,0.0,0.0,0.0,0.0,0.0,0.0,0.0,0.0,0.0,0.0,0.0,0.0,0.0,0.0,0.0,0.0,0.0,0.0,0.0,0.0,0.0,0.0,0.0,0.0,0.0,0.0,0.0,0.0,0.0,0.0,0.0,0.0,0.0,0.0,0.0,0.0,0.0,0.0,0.0,0.0,0.0,0.0,0.0,0.0,0.0,0.0,0.0,0.0,0.0,0.0,0.0,0.0,0.0,0.0,0.0,0.0,0.0,0.0,0.0,0.0,0.0,0.0,0.0,0.0,0.0,0.0,0.0,0.0,0.0,0.0,0.0,0.0,0.0,0.0,0.0,0.0,0.0,0.0,0.0,0.0,0.0,0.0,0.0,0.0,0.0,0.0,0.0,0.0,0.0,0.0,0.0,0.0,0.0,0.0,0.0,0.0,0.0,0.0,0.0,0.0,0.0,0.0,0.0,0.0,0.0,0.0,0.0,0.0,0.0,0.0,0.0,0.0,0.0,0.0,0.0,0.0,0.0,0.0,0.0,0.0,0.0,0.0,0.0,0.0,0.0,0.0,0.0,0.0,0.0,0.0,0.0,0.0,0.0,0.0,0.0,0.0,0.0,0.0,0.0,0.0,0.0,0.0,0.0,0.0,0.0,0.0,0.0,0.0,0.0,0.0,0.0,0.0,0.0,0.0,0.0,0.0,0.0,0.0,0.0,0.0,0.0,0.0,0.0,0.0,0.0,0.0,0.0,0.0,0.0,0.0,0.0,0.0,0.0,0.0,0.0,0.0,0.0,0.0,0.0,0.0,0.0,0.0,0.0,0.0,0.0,0.0,0.0,0.0,0.0,0.0,0.0,0.0,0.0,0.0,0.0,0.0,0.0,0.0,0.0,0.0,0.0,0.0,0.0,0.0,0.0,0.0,0.0,0.0,0.0,0.0,0.0,0.0,0.0,0.0,0.0,0.0,0.0,0.0,0.0,0.0,0.0,0.0,0.0,0.0,0.0,0.0,0.0,0.0,0.0,0.0,0.0,0.0,0.0,0.0,0.0,0.0,0.0,0.0,0.0,0.0,0.0,0.0,0.0,0.0,0.0,0.0,0.0,0.0,0.0,0.0,0.0,0.0,0.0,0.0,0.0,0.0,0.0,0.0,0.0,0.0,0.0,0.0,0.0,0.0,0.0,0.0,0.0,0.0,0.0,0.0,0.0,0.0,0.0,0.0,0.0,0.0,0.0,0.0,0.0,0.0,0.0,0.0,0.0,0.0,0.0,0.0,0.0,0.0,0.0,0.0,0.0,0.0,0.0,0.0,0.0,0.0,0.0,0.0,0.0,0.0,0.0,0.0,0.0,0.0,0.0,0.0,0.0,0.0,0.0,0.0,0.0,0.0,0.0,0.0,0.0,0.0,0.0,0.0,0.0,0.0,0.0,0.0,0.0,0.0,0.0,0.0,0.0,0.0,0.0,0.0,0.0,0.0,0.0,0.0,0.0,0.0,0.0,0.0,0.0,0.0,0.0,0.0,0.0,0.0,0.0,0.0,0.0,0.0,0.0,0.0,0.0,0.0,0.0,0.0,0.0,0.0,0.0,0.0,0.0,0.0,0.0,0.0,0.0,0.0,0.0,0.0,0.0,0.0,0.0,0.0,0.0,0.0,0.0,0.0,0.0,0.0,0.0,0.0,0.0,0.0,0.0,0.0,0.0,0.0,0.0,0.0,0.0,0.0,0.0,0.0,0.0,0.0,0.0,0.0,0.0,0.0,0.0,0.0,0.0,0.0,0.0,0.0,0.0,0.0,0.0,0.0,0.0,0.0,0.0,0.0,0.0,0.0,0.0,0.0,0.0,0.0,0.0,0.0,0.0,0.0,0.0,0.0,0.0,0.0,0.0,0.0,0.0,0.0,0.0,0.0,0.0,0.0,0.0,0.0,0.0,0.0,0.0,0.0,0.0,0.0,0.0,0.0,0.0,0.0,0.0,0.0,0.0,0.0,0.0,0.0,0.0,0.0,0.0,0.0,0.0,0.0,0.0,0.0,0.0,0.0,0.0,0.0,0.0,0.0,0.0,0.0,0.0,0.0,0.0,0.0,0.0,0.0,0.0,0.0,0.0,0.0,0.0,0.0,0.0,0.0,0.0,0.0,0.0,0.0,0.0,0.0,0.0,0.0,0.0,0.0,0.0,0.0,0.0,0.0,0.0,0.0,0.0,0.0,0.0,0.0,0.0,0.0,0.0,0.0,0.0,0.0,0.0,0.0,0.0,0.0,0.0,0.0,0.0,0.0,0.0,0.0,0.0,0.0,0.0,0.0,0.0,0.0,0.0,0.0,0.0,0.0,0.0,0.0,0.0,0.0,0.0,0.0,0.0,0.0,0.0,0.0,0.0,0.0,0.0,0.0,0.0,0.0,0.0,0.0,0.0,0.0,0.0,0.0,0.0,0.0,0.0,0.0,0.0,0.0,0.0,0.0,0.0,0.0,0.0,0.0,0.0,0.0,0.0,0.0,0.0,0.0,0.0,0.0,0.0,0.0,0.0,0.0,0.0,0.0,0.0,0.0,0.0,0.0,0.0,0.0,0.0,0.0,0.0,0.0,0.0,0.0,0.0,0.0,0.0,0.0,0.0,0.0,0.0,0.0,0.0,0.0,0.0,0.0,0.0,0.0,0.0,0.0,0.0,0.0,0.0,0.0,0.0,0.0,0.0,0.0,0.0,0.0,0.0,0.0,0.0,0.0,0.0,0.0,0.0,0.0,0.0,0.0,0.0,0.0,0.0,0.0,0.0,0.0,0.0,0.0,0.0,0.0,0.0,0.0,0.0,0.0,0.0,0.0,0.0,0.0,0.0,0.0,0.0,0.0,0.0,0.0,0.0,0.0,0.0,0.0,0.0,0.0,0.0,0.0,0.0,0.0,0.0,0.0,0.0,0.0,0.0,0.0,0.0,0.0,0.0,0.0,0.0,0.0,0.0,0.0,0.0,0.0,0.0,0.0,0.0,0.0,0.0,0.0,0.0,0.0,0.0,0.0,0.0,0.0,0.0,0.0,0.0,0.0,0.0,0.0,0.0,0.0,0.0,0.0,0.0,0.0,0.0,0.0,0.0,0.0,1.6193,0.0,0.0,0.0,0.0,0.0,0.0,0.0,0.0,0.0,0.0,0.0,0.0,0.0,0.0,0.0,0.0,0.0,0.0,0.0,0.0,0.0,0.0,0.0,0.0,0.0,0.0,0.0,0.0,0.0,0.0,0.0,0.0,0.0,0.0,0.0,0.0,0.0,0.0,0.0,0.0,0.0,0.0,0.0,0.0,0.0,0.0,0.0,0.0,0.0,0.0,0.0,0.0,0.0,0.0,0.0,0.0,0.0,0.0,0.0,0.0,0.0,0.0,0.0,0.0,0.0,0.0,0.0,0.0,0.0,0.0,0.0,0.0,0.0,0.0,0.0,0.0,0.0,0.0,0.0,0.0,0.0,0.0,0.0,0.0,0.0,0.0,0.0,0.0,0.0,0.0,0.0,0.0,0.0,0.0,0.0,0.0,0.0,0.0,0.0,0.0,0.0,0.0,0.0,0.0,0.0,0.0,0.0,0.0,0.0,0.0,0.0,0.0,0.0,0.0,0.0,0.0,1.6903,0.0,0.0,0.0,0.0,0.0,0.0,0.0,0.0,0.0,0.0,0.0,0.0,0.0,0.0,0.0,0.0,0.0,0.0,0.0,0.0,0.0,0.0,0.0,0.0,0.0,0.0,0.0,0.0,0.0,0.0,0.0,0.0,0.0,0.0,0.0,0.0,0.0,0.0,0.0,0.0,0.0,0.0,0.0,0.0,0.0,0.0,0.0,0.0,0.0,0.0,0.0,0.0,0.0,0.0,0.0,0.0,0.0,0.0,0.0,0.0,0.0,0.0,0.0,0.0,0.0,0.0,0.0,0.0,0.0,0.0,0.0,0.0,0.0,0.0,0.0,0.0,0.0,0.0,0.0,0.0,0.0,0.0,0.0,0.0,0.0,0.0,0.0,0.0,0.0,0.0,0.0,0.0,0.0,0.0,0.0,0.0,0.0,0.0,0.0,0.0,0.0,0.0,0.0,0.0,0.0,0.0,0.0,0.0,2.2347,2.2598,2.2096,2.2548,2.2498,2.1942,1.9611,1.8314,1.7825,1.7725,0.0,0.0,0.0,0.0,0.0,0.0,0.0,0.0,0.0,0.0,0.0,0.0,0.0,0.0,0.0,0.0,0.0,0.0,0.0,0.0,0.0,0.0,0.0,0.0,0.0,0.0,0.0,0.0,0.0,0.0,0.0,0.0,0.0,0.0,0.0,0.0,0.0,0.0,2.6146,2.7764,2.841,2.8019,0.0,0.0,0.0,0.0,0.0,0.0,0.0,0.0,0.0,0.0,0.0,0.0,0.0,0.0,0.0,0.0,0.0,0.0,0.0,0.0,0.0,0.0,0.0,0.0,0.0,0.0,0.0,0.0,0.0,0.0,0.0,0.0,0.0,0.0,0.0,0.0,0.0,0.0,0.0,0.0,0.0,0.0,0.0,0.0,1.9987,1.9008,0.0,0.0,0.0,0.0,0.0,0.0,0.0,0.0,0.0,0.0,0.0,0.0,0.0,2.192,2.2443,2.3572,2.3954,2.3577,2.4657,2.4883,2.4349,2.4424,2.4424,2.4324,2.396,0.0,1.9459,1.8983,0.0,0.0,0.0,0.0,0.0,0.0,0.0,0.0,0.0,0.0,0.0,0.0,0.0,0.0,0.0,0.0,0.0,0.0,0.0,0.0,0.0,0.0,0.0,0.0,0.0,0.0,0.0,0.0,0.0,0.0,0.0,0.0,0.0,0.0,0.0,0.0,2.6414,2.8323,2.8825,3.0519,3.1337,3.1236,2.9166,2.7966,2.7473,2.6776,0.0,0.0,0.0,0.0,0.0,0.0,0.0,0.0,0.0,0.0,0.0,0.0,0.0,0.0,0.0,0.0,0.0,0.0,0.0,0.0,0.0,0.0,0.0,0.0,0.0,0.0,0.0,0.0,0.0,0.0,0.0,0.0,0.0,0.0,0.0,0.0,0.0,0.0,0.0,2.0891,2.1192,2.0087,2.069,2.0539,0.0,0.0,0.0,0.0,0.0,0.0,0.0,0.0,0.0,2.2397,2.3246,2.3948,2.4506,2.5937,2.6691,2.6791,2.7896,2.7971,2.7107,2.7469,2.7268,2.6666,2.6666,2.5485,2.3401,2.1619,2.0037,1.8681,0.0,0.0,0.0,0.0,1.7904,1.7955,0.0,0.0,0.0,0.0,0.0,0.0,0.0,0.0,0.0,0.0,0.0,0.0,0.0,0.0,0.0,2.1493,0.0,0.0,0.0,0.0,0.0,0.0,0.0,0.0,0.0,0.0,0.0,0.0,2.9829,3.1813,3.2139,3.3646,3.4349,3.4299,3.3319,3.1511,2.9194,2.8415,2.7423,0.0,0.0,0.0,0.0,0.0,0.0,0.0,0.0,0.0,0.0,0.0,0.0,0.0,0.0,0.0,0.0,0.0,0.0,0.0,0.0,0.0,0.0,0.0,0.0,0.0,0.0,0.0,0.0,0.0,0.0,0.0,0.0,0.0,0.0,0.0,0.0,0.0,0.0,2.182,2.2171,2.1219,2.2297,2.2297,0.0,0.0,0.0,0.0,0.0,0.0,2.3351,2.4123,2.465,2.48,2.5753,2.6565,2.7067,2.8323,2.9151,2.9578,3.0407,3.0306,2.9339,2.9804,2.9478,2.8524,2.8524,2.7996,2.6927,2.423,2.2171,2.0589,2.0036,1.9509,1.9083,1.9484,1.9635,1.9685,0.0,0.0,0.0,0.0,0.0,0.0,0.0,0.0,0.0,0.0,0.0,0.0,0.0,0.0,2.3853,2.5971,2.531,2.4933,0.0,0.0,0.0,0.0,0.0,0.0,0.0,0.0,0.0,2.9553,3.2893,3.5077,3.6132,3.7236,3.7764,3.7739,3.7161,3.559,3.3172,2.9829,2.8478,2.8498,0.0,0.0,0.0,0.0,0.0,0.0,0.0,0.0,0.0,0.0,0.0,0.0,0.0,0.0,0.0,0.0,0.0,0.0,0.0,0.0,0.0,0.0,0.0,0.0,0.0,0.0,0.0,0.0,0.0,0.0,0.0,0.0,0.0,0.0,0.0,0.0,0.0,0.0,0.0,2.2297,2.413,0.0,0.0,0.0,0.0,2.3828,2.5317,2.6248,2.6273,2.777,2.8875,2.9428,3.003,3.0583,3.1085,3.1185,3.1235,3.126,3.1311,3.106,3.0532,3.0557,3.0256,2.9704,2.9704,2.9377,2.8587,2.6364,2.4456,2.2869,2.2318,2.182,2.1317,2.1343,2.1368,2.1368,0.0,0.0,0.0,0.0,0.0,0.0,0.0,0.0,0.0,0.0,0.0,0.0,0.0,2.546,2.7745,2.8524,2.9553,2.9302,2.7344,0.0,0.0,0.0,0.0,0.0,0.0,0.0,3.0557,3.3452,3.6107,3.7965,3.9069,3.9798,3.9948,3.9597,3.9044,3.7934,3.6233,3.295,3.0598,2.8999,2.8316,2.7141,0.0,0.0,0.0,0.0,0.0,0.0,0.0,0.0,0.0,0.0,0.0,0.0,0.0,0.0,0.0,0.0,0.0,0.0,0.0,0.0,0.0,0.0,0.0,0.0,0.0,0.0,0.0,0.0,0.0,0.0,0.0,0.0,0.0,0.0,0.0,0.0,0.0,2.5536,2.7168,0.0,2.5686,2.6063,2.6615,2.7143,2.8398,2.9428,3.0131,3.1085,3.1512,3.1361,3.224,3.2466,3.1913,3.2641,3.2817,3.2466,3.2466,3.219,3.1637,3.1286,3.0834,3.0306,2.9955,2.9679,2.9428,2.8624,2.7092,2.5209,2.4657,2.4104,2.3627,2.3627,2.3627,2.3627,0.0,0.0,0.0,0.0,0.0,0.0,0.0,0.0,0.0,0.0,0.0,2.2472,2.433,2.8172,3.0909,3.1662,3.2365,3.1687,2.9126,0.0,0.0,0.0,0.0,0.0,0.0,3.1311,3.3997,3.6887,3.8793,4.0174,4.1078,4.1254,4.11,4.0724,4.04,3.9722,3.8668,3.6233,3.3389,3.0465,3.0239,2.9286,2.7936,0.0,0.0,0.0,0.0,0.0,0.0,0.0,0.0,0.0,0.0,0.0,0.0,0.0,0.0,0.0,0.0,0.0,0.0,0.0,0.0,0.0,0.0,0.0,0.0,0.0,0.0,0.0,0.0,0.0,0.0,0.0,0.0,0.0,0.0,0.0,2.8047,2.8599,2.998,3.0306,2.8825,2.9001,2.9453,2.9966,3.1085,3.2039,3.2742,3.3319,3.3445,3.3068,3.3796,3.3822,3.3068,3.3796,3.3897,3.3345,3.3345,3.2943,3.219,3.1838,3.1286,3.0608,3.0231,2.9955,2.9804,2.9804,2.8963,2.7555,2.6942,2.6389,2.5904,2.5904,2.5904,2.5912,0.0,0.0,0.0,0.0,0.0,0.0,0.0,0.0,0.0,0.0,2.0665,2.3678,2.6992,3.0306,3.3169,3.5332,3.3477,3.1763,3.0683,2.6465,0.0,0.0,0.0,0.0,3.0758,3.4525,3.7612,3.9772,4.0852,4.1681,4.2263,4.1656,4.1351,4.1351,4.1351,4.1025,4.0501,3.9396,3.6807,3.3265,3.2631,0.0,2.9889,0.0,0.0,0.0,0.0,0.0,0.0,0.0,0.0,0.0,0.0,0.0,0.0,0.0,0.0,0.0,0.0,0.0,0.0,0.0,0.0,0.0,0.0,0.0,0.0,0.0,0.0,0.0,0.0,0.0,0.0,0.0,0.0,0.0,2.6549,2.8021,2.9704,3.1361,3.2541,3.2767,3.1687,3.2541,3.2943,3.2416,3.3395,3.3997,3.4022,3.4525,3.4801,3.4731,3.4731,3.4751,3.468,3.4751,3.4474,3.3922,3.3897,3.3319,3.2265,3.224,3.1637,3.0633,3.0633,3.0306,2.9804,2.9804,2.9804,2.9729,2.9176,2.8624,2.8147,2.8147,2.8122,2.8021,0.0,0.0,0.0,0.0,0.0,0.0,0.0,0.0,0.0,0.0,2.2246,2.5812,2.8775,3.2064,3.46,3.6006,3.4123,3.2215,3.0708,0.0,0.0,0.0,0.0,0.0,3.5328,3.7613,3.9672,4.1534,4.2183,4.2811,4.3338,4.3187,4.3112,4.3112,4.271,4.2233,4.1656,4.0953,3.9823,3.8189,0.0,0.0,3.1639,0.0,0.0,0.0,0.0,0.0,0.0,0.0,0.0,0.0,0.0,0.0,0.0,0.0,0.0,0.0,0.0,0.0,0.0,0.0,0.0,0.0,0.0,0.0,0.0,0.0,0.0,0.0,0.0,0.0,0.0,0.0,0.0,2.9277,2.9453,3.1235,3.3144,3.4846,3.5676,3.5931,3.5629,3.555,3.56,3.5805,3.6107,3.6458,3.686,3.6634,3.6332,3.5931,3.5906,3.5529,3.4726,3.5082,3.5006,3.45,3.4098,3.3746,3.342,3.2591,3.1838,3.116,3.0783,3.0306,2.9804,2.9804,2.9804,2.9779,2.9628,2.9453,2.9277,2.885,2.8411,2.8021,0.0,0.0,0.0,0.0,0.0,0.0,0.0,0.0,0.0,0.0,2.2924,2.6766,2.885,3.2265,3.4625,3.5278,3.352,3.1386,2.9026,0.0,0.0,0.0,0.0,3.5403,3.8191,4.0099,4.1882,4.3564,4.3614,4.3966,4.4493,4.4267,4.4141,4.4141,4.3815,4.3363,4.2811,4.2258,0.0,0.0,0.0,0.0,3.4984,3.3203,3.2142,3.1452,3.0516,3.0464,3.069,2.9401,0.0,0.0,0.0,0.0,0.0,0.0,0.0,0.0,0.0,0.0,0.0,0.0,0.0,0.0,0.0,0.0,0.0,0.0,0.0,0.0,0.0,0.0,0.0,0.0,2.993,3.2064,3.3194,3.4274,3.5554,3.726,3.7487,3.7613,3.7864,3.7387,3.7186,3.7513,3.7538,3.7663,3.799,3.7688,3.7287,3.6782,3.6757,3.6282,3.5429,3.573,3.5604,3.5006,3.4751,3.4349,3.3872,3.3219,3.2491,3.1712,3.116,3.0633,3.0131,2.988,2.9804,0.0,0.0,0.0,0.0,0.0,2.8925,2.8398,0.0,0.0,0.0,0.0,0.0,0.0,0.0,0.0,0.0,0.0,0.0,2.665,2.7795,3.121,3.3495,3.3596,3.2089,2.9854,0.0,0.0,0.0,3.0934,3.4154,3.7186,3.9923,4.2057,4.389,4.5397,4.4995,4.507,4.5573,4.5045,4.4844,4.4895,4.4769,4.4443,4.3966,0.0,0.0,0.0,0.0,0.0,3.8767,3.6603,3.5817,3.566,3.4232,3.3277,3.2523,3.1298,0.0,0.0,0.0,0.0,0.0,0.0,0.0,0.0,0.0,0.0,0.0,0.0,0.0,0.0,0.0,0.0,0.0,0.0,0.0,0.0,0.0,0.0,0.0,0.0,3.239,3.4469,3.701,3.7109,3.741,3.8844,3.8517,3.8391,3.8919,3.8492,3.8191,3.8191,3.8191,3.8191,3.8191,0.0,0.0,0.0,0.0,3.701,3.6505,3.6505,3.6182,3.5583,3.5533,3.4981,3.4073,3.3947,3.3319,3.229,3.1712,3.116,3.0583,3.008,2.9854,2.9804,2.9804,2.9804,2.9804,2.9804,2.9478,2.8988,0.0,0.0,0.0,0.0,0.0,0.0,0.0,0.0,0.0,1.8732,2.2146,2.5059,2.665,2.9051,3.0934,3.1788,3.0357,2.9088,0.0,0.0,3.0457,3.3727,3.6684,3.932,4.1685,4.3413,4.4468,4.4794,4.5598,4.605,4.615,4.6024,4.6225,4.6602,4.5723,4.5271,0.0,0.0,0.0,0.0,0.0,0.0,3.9346,3.7546,3.6654,3.6134,3.4927,3.5556,3.6707,3.54,3.4981,3.4858,3.3824,0.0,0.0,0.0,0.0,0.0,0.0,0.0,0.0,0.0,0.0,0.0,0.0,0.0,0.0,0.0,0.0,0.0,0.0,0.0,0.0,3.229,3.4726,3.6885,3.8391,3.922,3.9672,3.9546,3.9446,3.9421,3.9521,3.9446,3.9371,3.9371,3.9371,3.9371,3.9371,3.8944,3.8668,3.8542,3.809,3.7588,3.7036,3.7036,3.6759,3.6207,0.0,0.0,3.5157,3.4299,3.3545,3.2867,3.2315,3.1512,3.0608,3.0507,3.0206,2.9804,2.9804,2.9804,2.9804,2.9804,2.9729,2.9553,0.0,0.0,0.0,0.0,0.0,0.0,0.0,0.0,0.0,0.0,2.1267,2.3577,2.4682,2.6289,2.7419,2.767,2.6631,0.0,0.0,2.998,3.2315,3.6207,3.8768,4.1003,4.2936,4.4618,4.5598,4.5874,4.6702,4.6979,4.6728,4.6728,4.6728,4.6702,0.0,0.0,0.0,0.0,0.0,0.0,0.0,0.0,4.158,3.9898,3.8919,3.8366,3.7814,3.78,3.7917,3.6975,3.6373,3.5843,3.4673,3.2815,3.0848,0.0,0.0,0.0,0.0,0.0,0.0,0.0,0.0,0.0,0.0,0.0,0.0,0.0,0.0,2.8828,0.0,0.0,3.3219,3.4876,3.6508,3.799,3.912,3.9747,3.9998,3.9722,3.9948,3.9998,3.9722,3.9697,3.9697,3.9697,3.9697,3.9697,3.9697,3.9421,3.917,3.8919,3.8592,3.8165,3.7613,3.7312,3.7036,3.6807,3.6207,3.5655,3.5082,3.453,3.3847,3.3086,3.2466,3.1913,3.1361,3.0834,3.0281,2.9804,2.9804,2.9804,2.9804,2.9804,2.9804,2.9754,0.0,0.0,0.0,0.0,0.0,0.0,0.0,0.0,0.0,0.0,2.0162,2.1816,2.2268,2.3321,2.3879,0.0,0.0,0.0,0.0,3.0909,3.3847,3.8291,4.0425,4.2333,4.4091,4.5573,4.6627,4.728,4.7807,4.7857,4.7456,4.7456,4.7205,0.0,0.0,0.0,0.0,0.0,0.0,0.0,0.0,0.0,4.3639,4.2208,4.12,4.0651,4.0425,3.9195,3.7638,3.7412,3.6609,3.5479,3.4515,3.3836,3.2975,3.1167,2.9943,0.0,0.0,0.0,0.0,0.0,0.0,0.0,0.0,0.0,2.9011,2.9164,3.0382,3.1671,3.2667,3.4223,3.5805,3.7136,3.809,3.8894,3.9597,3.9873,3.9923,3.9722,4.0099,4.0174,3.9747,3.9697,3.9697,3.9697,3.9697,3.9697,3.9697,3.9697,3.9496,3.9095,3.907,3.8743,3.8191,3.7739,3.7412,3.7186,3.6782,3.6006,3.5027,3.4826,3.4248,3.3345,3.2566,3.2215,3.2139,3.106,3.0357,2.9955,2.9829,2.9804,2.9804,2.9804,2.9804,2.9804,0.0,0.0,0.0,0.0,0.0,0.0,0.0,0.0,0.0,0.0,0.0,0.0,0.0,0.0,0.0,0.0,0.0,0.0,3.0206,3.2416,3.5604,4.0049,4.1404,4.3087,4.5246,4.5974,4.6803,4.7832,4.8385,4.8636,4.8586,0.0,0.0,0.0,0.0,0.0,0.0,0.0,0.0,0.0,0.0,0.0,4.374,4.3062,4.2158,4.1075,4.0149,3.8391,3.6732,3.7613,3.7186,3.6496,3.7779,3.7306,3.6095,3.5143,0.0,3.1365,3.1131,3.0368,2.9369,2.8272,2.8163,2.8743,0.0,0.0,3.1483,3.2943,3.3796,3.4405,3.5006,3.6486,3.7688,3.7889,3.9622,4.0623,3.9823,4.0551,4.0802,3.9798,3.9747,3.9772,3.9697,3.9697,3.9697,3.9697,3.9697,3.9697,3.9697,3.9697,3.9672,3.9597,3.9597,3.9346,3.8768,3.8768,3.8165,3.7186,3.7111,3.6759,3.6204,3.5177,3.4605,3.4449,3.2893,3.2215,3.2139,3.106,3.0583,3.0482,2.998,2.9804,2.9804,2.9804,2.9804,2.9804,0.0,0.0,0.0,0.0,0.0,0.0,0.0,0.0,0.0,0.0,0.0,0.0,0.0,0.0,0.0,0.0,0.0,0.0,2.8925,3.2139,3.5881,4.0325,4.158,4.2942,4.4468,4.5698,4.6527,4.6979,4.7857,4.8109,0.0,0.0,0.0,0.0,0.0,0.0,0.0,0.0,0.0,0.0,0.0,0.0,4.374,4.3187,4.148,3.9295,3.8517,3.7211,0.0,0.0,3.5303,3.5118,3.608,3.5168,3.3814,3.447,3.2916,0.0,3.0876,3.0903,0.0,0.0,3.0407,3.1451,3.26,3.3345,3.4098,3.5127,3.6282,3.7211,3.7437,3.8843,3.9848,0.0,4.0473,4.1025,4.0275,4.0576,4.045,3.9346,3.9496,3.9697,3.9697,3.9697,3.9697,3.9697,3.9697,3.9697,3.9697,3.9697,3.9697,3.9697,3.9697,3.9421,3.8919,3.8542,3.7965,3.7186,3.6908,3.6408,3.5855,3.5077,3.4374,3.3721,3.3018,3.2516,3.2164,3.1386,3.0884,3.0557,3.0005,2.9804,2.9804,2.9804,2.9804,2.9804,0.0,0.0,0.0,0.0,0.0,0.0,0.0,0.0,0.0,0.0,0.0,0.0,0.0,0.0,0.0,0.0,0.0,0.0,0.0,3.0834,3.4901,3.9195,4.0727,0.0,4.3539,4.507,4.5999,4.6301,4.7079,4.728,0.0,0.0,0.0,0.0,0.0,0.0,0.0,0.0,0.0,0.0,0.0,0.0,4.2811,4.1932,3.9647,3.6835,3.6584,3.5541,0.0,0.0,3.298,3.298,3.4101,3.3317,3.2335,3.399,3.3038,3.1316,3.1056,0.0,0.0,3.1436,3.2641,3.4148,3.4675,3.578,3.681,3.7186,3.8366,3.927,3.912,4.0199,4.0924,4.0576,4.1103,4.1329,4.0626,4.0651,4.0275,3.907,3.922,3.9471,3.9471,3.9597,3.9697,3.9697,3.9697,3.9697,3.9697,3.9697,3.9697,3.9697,3.9697,3.9421,3.8919,3.8467,3.7889,3.7186,3.6832,3.6307,3.5708,3.5052,3.4198,3.3294,3.3144,3.2842,3.239,3.1687,3.116,3.0758,3.0055,2.9804,2.9804,2.9804,2.9804,2.9804,0.0,0.0,0.0,0.0,0.0,0.0,0.0,0.0,0.0,0.0,0.0,0.0,0.0,0.0,0.0,0.0,0.0,0.0,0.0,2.8549,3.2441,3.6355,3.8592,4.0777,4.2961,4.4091,4.5221,4.6301,4.6351,0.0,0.0,0.0,0.0,0.0,0.0,0.0,0.0,0.0,0.0,0.0,0.0,0.0,4.0425,3.8793,3.6433,3.4098,3.46,0.0,0.0,0.0,3.0611,3.0577,3.3024,3.3661,0.0,3.5069,3.4711,0.0,0.0,0.0,3.3535,3.314,3.4675,3.6458,3.696,3.8366,3.9572,3.9597,4.0049,4.03,3.9772,4.0149,4.0526,4.0526,4.143,4.181,4.0676,4.0924,4.0701,3.9069,3.8894,3.8944,0.0,3.9371,3.9697,3.9697,3.9697,3.9697,3.9697,3.9697,3.9697,3.9697,3.9697,3.9421,3.8919,3.8894,3.8291,3.7186,3.7161,3.686,3.6355,3.5203,3.4399,3.3847,3.3319,3.3111,3.3011,3.1838,3.1386,3.126,3.0206,2.9804,2.9804,2.9804,2.9804,2.9804,0.0,0.0,0.0,0.0,0.0,0.0,0.0,0.0,0.0,0.0,0.0,0.0,0.0,0.0,0.0,0.0,0.0,0.0,0.0,2.644,2.9955,3.3445,3.5755,3.7789,3.9647,4.0777,4.1907,4.2955,4.3388,0.0,0.0,0.0,0.0,0.0,0.0,0.0,0.0,0.0,0.0,0.0,0.0,0.0,3.8165,3.6812,3.4439,3.1664,0.0,0.0,0.0,0.0,2.8093,0.0,2.9882,0.0,0.0,3.0799,3.2433,3.3718,0.0,0.0,3.4959,3.6063,3.7211,3.8391,3.9647,4.0099,4.0149,3.9772,3.9245,3.8693,3.814,3.8492,3.9094,3.9848,4.1204,4.2087,4.1656,4.2082,4.153,3.9196,3.9195,0.0,0.0,0.0,0.0,3.9672,3.9697,3.9697,3.9697,3.9697,3.9697,3.9697,3.9697,3.9421,3.8919,3.8919,3.8316,3.7186,3.6857,3.6157,3.5253,3.4901,3.4223,3.3345,3.3169,3.3111,3.3061,3.224,3.1712,3.1361,3.0984,3.0407,2.9829,3.0206,3.0105,2.9804,0.0,0.0,0.0,0.0,0.0,0.0,0.0,0.0,0.0,0.0,0.0,0.0,0.0,0.0,0.0,0.0,0.0,0.0,0.0,0.0,2.6515,2.9453,3.1311,3.3169,3.5027,3.578,3.6784,3.8041,3.8843,0.0,0.0,0.0,0.0,0.0,0.0,0.0,0.0,0.0,0.0,0.0,0.0,0.0,3.4863,3.3707,3.15,0.0,0.0,0.0,0.0,0.0,0.0,0.0,0.0,2.8263,2.8604,2.9876,3.1882,3.3936,3.4921,3.5643,3.6621,3.844,3.9471,4.0275,4.1075,4.1025,4.0475,3.932,3.8366,3.7437,3.6483,3.6609,3.7262,3.8592,3.9697,4.0704,4.1455,4.1706,4.1153,3.9371,3.9295,3.8969,0.0,0.0,0.0,3.9371,3.9572,3.9697,3.9697,3.9697,3.9697,3.9697,3.9697,3.9421,3.8919,3.8919,3.8316,3.7186,3.6681,3.6028,3.5303,3.4901,3.4324,3.3646,3.3244,3.3111,3.3061,3.224,3.1813,3.1637,3.126,3.0809,3.0382,3.0557,3.0382,3.0055,0.0,0.0,0.0,0.0,0.0,0.0,0.0,0.0,0.0,0.0,0.0,0.0,0.0,0.0,0.0,0.0,0.0,0.0,0.0,0.0,0.0,2.4506,2.5753,2.74,2.9516,2.963,3.0435,3.203,3.3154,0.0,0.0,0.0,0.0,0.0,0.0,0.0,0.0,0.0,0.0,0.0,0.0,0.0,3.0686,2.9592,0.0,0.0,0.0,0.0,0.0,0.0,0.0,0.0,0.0,0.0,3.1012,3.2132,3.3116,3.4406,3.709,3.7957,3.8542,4.0199,4.1354,4.1982,4.1401,4.12,4.0498,3.8366,3.7387,3.6433,0.0,0.0,3.5177,3.6835,3.7211,3.809,4.03,4.0174,3.9848,0.0,0.0,0.0,0.0,0.0,0.0,3.8969,0.0,3.9697,3.9697,3.9697,3.9697,3.9697,3.9697,3.9446,3.8969,3.8894,3.8366,3.7211,3.6707,3.643,3.6329,3.5203,3.47,3.4625,3.3545,3.3111,3.3036,3.1913,3.1763,3.2114,3.1135,3.1009,3.1336,3.0859,3.0643,3.0583,0.0,0.0,0.0,0.0,0.0,0.0,0.0,0.0,0.0,0.0,0.0,0.0,0.0,0.0,0.0,0.0,0.0,0.0,0.0,0.0,0.0,0.0,0.0,0.0,0.0,0.0,0.0,0.0,0.0,0.0,0.0,0.0,0.0,0.0,0.0,0.0,0.0,0.0,0.0,0.0,0.0,0.0,2.8346,0.0,0.0,0.0,0.0,0.0,0.0,0.0,0.0,0.0,0.0,2.938,3.0835,3.2144,3.3855,3.5765,3.7483,3.8894,4.0174,4.143,4.163,4.1505,4.1326,3.9997,3.8467,3.7061,3.5027,3.3219,0.0,0.0,0.0,3.5658,3.7713,0.0,4.148,4.1957,0.0,4.1003,0.0,4.0375,3.9572,3.9496,0.0,0.0,3.9622,3.9697,3.9697,3.9697,3.9697,3.9697,3.9697,3.9622,3.9496,3.9069,3.8517,3.7789,3.7236,3.6533,3.573,3.4981,3.45,3.4073,3.337,3.3111,3.3086,3.281,3.2466,3.224,3.239,3.2014,3.1411,3.1712,3.1537,3.111,0.0,0.0,0.0,0.0,0.0,0.0,0.0,0.0,0.0,0.0,0.0,0.0,0.0,0.0,0.0,0.0,0.0,0.0,0.0,0.0,0.0,0.0,0.0,0.0,0.0,0.0,0.0,0.0,0.0,0.0,0.0,0.0,0.0,0.0,0.0,0.0,0.0,0.0,0.0,0.0,0.0,0.0,0.0,0.0,0.0,0.0,0.0,0.0,0.0,0.0,0.0,2.8118,2.8924,3.0293,3.1992,3.3698,0.0,3.7271,3.8944,4.0325,4.1379,4.2062,4.1756,4.1025,4.0047,3.8542,3.6684,3.4645,3.2943,0.0,0.0,0.0,0.0,0.0,0.0,0.0,4.1078,4.1505,4.158,0.0,4.148,0.0,4.0475,4.0199,4.0049,0.0,3.9823,3.9697,3.9697,3.9697,3.9697,3.9697,3.9697,3.9697,3.9697,3.8894,3.8341,3.799,3.7211,3.6508,3.5881,3.5077,3.455,3.4223,0.0,3.3111,3.3068,3.2792,3.2641,3.2591,3.2667,3.2466,3.2139,3.219,3.2014,3.1662,0.0,0.0,0.0,0.0,0.0,0.0,0.0,0.0,0.0,0.0,0.0,0.0,0.0,0.0,0.0,0.0,0.0,0.0,0.0,0.0,0.0,0.0,0.0,0.0,0.0,0.0,0.0,0.0,0.0,0.0,0.0,0.0,0.0,0.0,0.0,0.0,0.0,0.0,0.0,0.0,0.0,0.0,0.0,0.0,0.0,0.0,0.0,0.0,0.0,0.0,2.8232,2.8831,2.9896,3.1687,3.3847,3.6081,3.7437,3.8693,4.0852,4.1856,4.2313,4.2238,4.163,4.0498,3.8391,3.681,3.4997,3.1913,0.0,3.0457,2.8473,2.9528,3.126,3.2918,0.0,3.6135,4.0074,4.0149,4.0425,4.2112,4.1831,4.1501,4.1501,4.1053,4.0727,4.0727,4.0224,3.9848,3.9697,3.9697,3.9697,3.9697,3.9697,3.9697,3.9697,3.8718,3.8165,3.799,3.7036,3.6556,3.638,3.5228,3.468,3.463,3.3545,3.3162,3.3144,3.2641,3.2767,3.3244,3.2667,3.2742,3.3119,3.2541,3.2315,3.224,0.0,0.0,0.0,0.0,0.0,0.0,0.0,0.0,0.0,0.0,1.9429,1.876,0.0,0.0,0.0,0.0,0.0,0.0,0.0,0.0,0.0,0.0,0.0,0.0,0.0,0.0,0.0,0.0,0.0,0.0,0.0,0.0,0.0,0.0,0.0,0.0,0.0,0.0,0.0,0.0,0.0,0.0,0.0,0.0,0.0,0.0,0.0,0.0,0.0,0.0,2.9934,3.1044,3.2156,3.3721,3.5508,3.7789,3.8894,3.9798,4.153,4.2464,4.2766,4.2313,4.1053,3.9521,3.7739,3.5052,0.0,0.0,0.0,2.9063,2.8273,2.9829,0.0,3.3495,0.0,0.0,0.0,0.0,4.0978,0.0,0.0,0.0,0.0,0.0,0.0,0.0,4.1354,4.0651,3.9747,3.9697,3.9697,3.9697,3.9697,3.9697,3.9697,3.9496,3.8944,3.8015,3.7814,3.7236,3.638,3.5228,3.468,3.463,3.3545,0.0,3.3746,3.3646,3.3947,3.4374,3.3822,3.3671,3.3696,3.3144,3.2918,3.2842,0.0,0.0,0.0,0.0,0.0,0.0,0.0,2.0438,2.0587,2.1605,2.1248,2.0617,1.9902,1.9313,1.8817,0.0,0.0,0.0,0.0,0.0,0.0,0.0,0.0,0.0,0.0,0.0,0.0,0.0,0.0,0.0,0.0,0.0,0.0,0.0,0.0,0.0,0.0,0.0,0.0,0.0,0.0,0.0,0.0,0.0,0.0,0.0,0.0,0.0,0.0,0.0,2.9662,3.1826,3.3424,3.5253,3.7161,3.8818,3.9898,4.0777,4.1911,4.2615,4.2785,4.1932,4.0249,3.8291,3.6358,0.0,0.0,0.0,0.0,2.8323,2.777,0.0,0.0,0.0,0.0,0.0,0.0,0.0,0.0,0.0,0.0,0.0,0.0,0.0,0.0,0.0,4.1656,4.0924,4.0174,3.9848,3.9697,3.9697,3.9697,3.9697,3.9697,3.9396,3.8843,3.8015,3.7713,3.7161,3.638,3.5529,3.5107,3.5056,3.4299,3.4073,3.4324,3.4324,3.4474,3.4655,3.4424,3.4148,3.3872,3.3596,3.3319,3.3086,0.0,0.0,0.0,0.0,0.0,0.0,0.0,2.1156,2.1395,2.2733,2.2793,2.2313,2.1246,2.0528,1.9842,0.0,0.0,0.0,0.0,0.0,0.0,0.0,0.0,0.0,0.0,0.0,0.0,0.0,0.0,0.0,0.0,0.0,0.0,0.0,0.0,0.0,0.0,0.0,0.0,0.0,0.0,0.0,0.0,0.0,0.0,0.0,0.0,0.0,0.0,0.0,2.8702,3.1075,3.3409,3.5679,3.7713,3.8969,4.0124,4.1153,4.1986,4.2615,4.271,4.1551,3.9572,3.7287,3.5203,3.2373,0.0,0.0,2.8363,2.8134,2.7992,0.0,0.0,0.0,0.0,0.0,0.0,0.0,0.0,0.0,0.0,0.0,0.0,0.0,0.0,0.0,4.2569,4.169,4.0551,3.9998,3.9697,3.9697,3.9697,3.9697,3.9697,3.927,3.8693,3.799,3.7563,3.701,3.638,3.5805,3.5508,3.5458,3.4906,3.4801,3.4856,3.4856,3.4977,3.5052,3.4826,3.4449,3.4048,3.3796,3.3445,3.3111,0.0,0.0,0.0,0.0,0.0,0.0,0.0,2.1276,2.2054,2.334,2.3032,2.2643,2.2523,2.1924,2.0987,0.0,0.0,0.0,0.0,0.0,0.0,0.0,0.0,0.0,0.0,0.0,0.0,0.0,0.0,0.0,0.0,0.0,0.0,0.0,0.0,0.0,0.0,0.0,0.0,0.0,0.0,0.0,0.0,0.0,0.0,0.0,0.0,0.0,0.0,0.0,0.0,2.7953,3.128,3.3908,3.6034,3.7688,0.0,0.0,4.1785,4.2615,4.271,4.1551,3.9295,3.681,3.5102,0.0,0.0,3.0032,2.9258,2.8777,2.9898,3.0904,3.1675,0.0,0.0,0.0,0.0,0.0,0.0,0.0,0.0,0.0,0.0,0.0,0.0,4.6548,4.561,4.3654,4.0656,3.9998,3.9697,3.9697,3.9697,3.9697,3.9697,3.9647,3.9069,3.8015,3.7965,3.7387,3.638,3.5805,3.5508,3.5458,3.4906,3.4956,0.0,3.5433,3.5755,3.6153,3.5102,3.47,3.4525,3.352,3.3162,3.3111,0.0,0.0,0.0,0.0,0.0,0.0,2.1126,2.1186,2.1695,2.337,2.337,2.3122,2.2733,2.2463,2.1595,1.9857,0.0,0.0,0.0,0.0,0.0,0.0,0.0,0.0,0.0,0.0,0.0,0.0,0.0,0.0,0.0,0.0,0.0,0.0,0.0,0.0,0.0,0.0,0.0,0.0,0.0,0.0,0.0,0.0,0.0,0.0,0.0,0.0,0.0,0.0,0.0,0.0,2.8126,3.0279,0.0,0.0,3.767,3.9421,4.04,4.1609,4.2308,4.1476,3.8693,3.6071,3.5667,0.0,2.8977,3.085,2.9824,2.9164,3.0899,3.1985,3.2569,0.0,0.0,0.0,0.0,0.0,0.0,0.0,0.0,0.0,0.0,0.0,4.6474,4.7043,4.5989,4.4743,4.3472,4.1767,4.0844,4.0844,4.0844,4.0844,4.0844,4.0844,4.043,3.9677,3.8536,3.8,3.7987,3.6633,3.6031,3.6031,3.5805,3.583,0.0,3.6031,3.6157,3.6355,3.5881,3.5303,3.4675,3.4223,3.3646,3.3111,0.0,0.0,0.0,0.0,0.0,2.0267,2.1398,2.1252,2.1575,2.3131,2.331,2.3182,2.2733,2.2343,2.1535,2.0109,1.9828,0.0,0.0,0.0,0.0,0.0,0.0,0.0,0.0,0.0,0.0,0.0,0.0,0.0,0.0,0.0,0.0,0.0,0.0,0.0,0.0,0.0,0.0,0.0,0.0,0.0,0.0,0.0,0.0,0.0,0.0,0.0,0.0,0.0,0.0,0.0,0.0,0.0,0.0,0.0,3.6006,3.8182,3.902,4.04,4.153,4.0978,3.8364,3.5941,0.0,0.0,2.9802,3.2021,3.1019,3.0315,3.2115,3.3073,3.3359,0.0,0.0,0.0,0.0,0.0,0.0,0.0,0.0,0.0,0.0,4.7978,4.8204,4.8034,4.7093,4.622,4.5685,4.3767,4.2544,4.2181,4.1789,4.1789,4.2181,4.2181,4.1887,4.1346,3.9804,3.9275,3.9524,3.7707,3.6896,3.6896,3.6896,3.6896,0.0,3.6896,3.6896,3.6845,3.6514,3.5882,3.5143,3.4812,3.4435,3.3969,0.0,0.0,0.0,0.0,0.0,0.0,2.1193,2.1523,2.1934,2.2613,2.2703,2.2703,2.2703,2.1515,2.0718,2.0688,2.0079,0.0,0.0,0.0,0.0,0.0,0.0,0.0,0.0,0.0,0.0,1.9708,0.0,0.0,0.0,0.0,0.0,0.0,0.0,0.0,0.0,0.0,0.0,0.0,0.0,0.0,0.0,0.0,0.0,0.0,0.0,0.0,0.0,0.0,0.0,0.0,0.0,0.0,0.0,0.0,3.3807,3.6308,3.7655,3.9245,4.04,3.9848,3.8338,3.6708,0.0,3.3461,3.2186,3.3665,3.3005,3.2547,3.3748,3.4247,3.4044,3.2828,0.0,0.0,0.0,0.0,0.0,0.0,0.0,0.0,0.0,5.0016,5.0883,5.0209,4.9598,0.0,4.6489,4.5734,4.4794,4.3504,4.2279,4.223,4.3456,4.3504,4.32,4.2685,4.1984,4.1377,4.0741,3.8889,3.8062,3.8062,3.8062,3.8062,0.0,3.8062,3.8062,3.7957,3.6779,3.6262,3.6174,3.5099,3.5319,3.6013,0.0,0.0,0.0,0.0,0.0,0.0,0.0,2.0448,2.0557,2.1246,2.1335,2.1515,2.1984,2.1246,2.0688,2.0688,2.0079,0.0,0.0,0.0,0.0,0.0,0.0,0.0,0.0,0.0,2.0157,2.1085,2.1276,2.1515,0.0,0.0,0.0,0.0,0.0,0.0,0.0,0.0,0.0,0.0,0.0,0.0,0.0,0.0,0.0,0.0,0.0,0.0,0.0,0.0,0.0,0.0,0.0,0.0,0.0,0.0,0.0,0.0,3.5599,3.7396,3.8905,3.8277,3.6919,3.5777,3.6069,3.3872,3.2392,3.4559,3.3871,3.3325,3.4758,3.5115,3.5356,3.579,3.631,0.0,0.0,0.0,0.0,0.0,0.0,0.0,0.0,0.0,5.1139,5.0883,4.9883,4.9029,4.8429,4.6496,4.5207,4.484,4.4396,4.4396,4.4794,4.4794,4.4726,4.4527,4.259,4.2049,4.2621,4.0355,3.9316,3.9316,3.9316,3.9316,3.9316,3.9316,3.9071,3.8592,3.8211,3.7585,3.6824,3.6484,3.6277,3.6172,0.0,0.0,0.0,0.0,0.0,0.0,0.0,2.0193,2.0007,2.0277,2.0318,2.0587,2.1246,2.0737,2.0438,2.0688,2.0079,0.0,0.0,0.0,0.0,0.0,0.0,0.0,0.0,1.9708,2.0367,2.1695,2.2173,2.2622,2.3032,2.3131,2.2413,0.0,0.0,0.0,0.0,0.0,0.0,0.0,0.0,0.0,2.361,0.0,0.0,0.0,0.0,0.0,0.0,0.0,0.0,0.0,0.0,0.0,0.0,0.0,3.0544,0.0,0.0,3.5749,3.7301,3.6905,3.6026,0.0,0.0,3.4254,3.3273,3.4818,3.4564,3.4368,3.5332,3.5519,3.5759,3.6567,3.6686,0.0,0.0,0.0,0.0,0.0,0.0,0.0,0.0,5.093,5.1229,5.1229,5.0002,4.9299,4.9299,4.7302,4.6121,4.6121,4.5644,4.5644,4.6121,4.6121,4.6121,4.6092,4.4263,4.3703,4.4163,4.1953,4.08,4.0532,4.0532,4.0532,0.0,4.0532,4.0167,3.9536,3.9242,3.8542,3.7618,3.7461,3.7399,3.7367,0.0,0.0,0.0,0.0,0.0,0.0,0.0,2.0665,2.021,1.9815,1.9744,1.9966,2.0557,2.0079,1.9959,2.0569,0.0,0.0,0.0,0.0,0.0,0.0,0.0,0.0,0.0,1.9738,2.0456,2.1844,2.3101,2.3789,2.3909,2.5166,2.4358,2.1814,2.1784,2.0996,1.9798,2.1126,2.1695,2.1814,2.3101,2.361,0.0,0.0,0.0,0.0,0.0,0.0,0.0,0.0,0.0,0.0,0.0,0.0,0.0,0.0,0.0,0.0,0.0,0.0,0.0,0.0,0.0,0.0,3.4702,3.4563,0.0,3.4503,3.5011,3.5519,3.5579,3.5549,3.5549,3.5699,3.5699,0.0,0.0,0.0,0.0,0.0,0.0,0.0,4.9329,5.0481,5.1229,5.1229,5.0002,4.9299,4.9299,4.8027,4.7309,4.7309,4.6166,4.6121,4.7309,4.7309,4.7309,4.7309,4.6591,4.5903,4.5233,4.3432,4.2331,0.0,4.1711,4.1711,4.1711,4.1711,4.1295,4.0602,3.9985,3.9283,3.8592,3.8121,3.8546,3.9265,0.0,0.0,0.0,0.0,0.0,0.0,0.0,0.0,0.0,0.0,2.0158,2.0098,1.9936,1.9798,1.9768,0.0,0.0,0.0,0.0,0.0,0.0,0.0,0.0,0.0,0.0,2.0198,2.1365,2.3161,2.4477,2.5644,2.6656,2.6986,2.5728,2.3131,2.2673,2.1445,1.9798,2.1126,2.1695,2.1814,2.3101,2.361,0.0,0.0,0.0,0.0,2.361,2.4007,0.0,0.0,0.0,0.0,0.0,0.0,0.0,0.0,2.9056,2.9811,3.0837,0.0,3.329,3.329,3.363,3.394,0.0,3.4165,0.0,0.0,0.0,0.0,3.6178,3.5848,3.5998,3.7464,3.7704,3.8182,0.0,0.0,0.0,0.0,4.9643,5.0391,4.9986,5.075,5.1229,5.1229,5.0002,4.9299,4.9299,4.8027,4.7309,4.7309,4.7019,4.7019,4.7309,4.7309,4.7309,4.7309,4.6112,4.5454,4.5244,4.3794,4.3049,4.29,4.29,4.29,4.29,4.29,4.2219,4.1219,4.1033,4.0262,3.9187,3.9076,3.9192,3.9337,0.0,0.0,0.0,0.0,0.0,0.0,0.0,0.0,0.0,0.0,0.0,0.0,0.0,0.0,0.0,0.0,0.0,0.0,0.0,0.0,0.0,0.0,0.0,0.0,1.9708,2.0348,2.1645,2.361,2.5255,2.6752,2.8094,2.8364,2.7106,2.4448,2.2921,2.1475,2.0258,2.1575,2.2164,2.2254,2.3221,0.0,0.0,0.0,0.0,0.0,2.3969,2.4485,0.0,2.6542,2.723,2.7619,0.0,0.0,0.0,0.0,2.8607,2.9205,2.9535,3.127,3.2976,3.2976,3.3245,3.3484,3.3484,0.0,0.0,0.0,0.0,0.0,0.0,0.0,0.0,0.0,3.7704,0.0,0.0,0.0,0.0,0.0,5.0152,5.0704,0.0,5.102,5.1079,5.0734,4.9853,4.9179,4.888,4.7848,4.7309,4.7309,4.7309,4.7309,4.7309,4.7309,4.7309,4.7309,4.6262,4.5603,4.5244,4.4257,4.3589,4.329,4.329,4.329,4.329,4.329,4.2731,4.1841,4.1542,4.0756,3.9828,3.9493,3.9373,3.9373,0.0,0.0,0.0,0.0,0.0,0.0,0.0,0.0,0.0,0.0,0.0,0.0,0.0,0.0,0.0,0.0,0.0,0.0,0.0,0.0,0.0,0.0,0.0,1.9798,2.0007,2.0557,2.1814,2.3759,2.5854,2.753,2.8757,2.9624,2.8517,2.5644,2.3131,2.1575,2.0927,2.2194,2.2703,2.2763,2.334,0.0,0.0,0.0,0.0,0.0,0.0,0.0,0.0,2.7679,2.8427,2.8667,2.9172,0.0,0.0,0.0,0.0,0.0,2.8846,3.1061,3.3335,3.3215,3.3335,3.3484,3.3484,0.0,0.0,0.0,0.0,0.0,0.0,0.0,0.0,0.0,0.0,0.0,0.0,0.0,0.0,0.0,5.0002,0.0,5.102,5.1079,5.0794,5.0226,4.9553,4.891,4.8327,4.7668,4.7309,4.7309,4.7219,4.716,4.716,4.7249,4.7249,4.716,4.6471,4.5813,4.5125,4.4466,4.3828,4.329,0.0,0.0,4.329,4.329,4.294,4.2321,4.1662,4.0965,4.0337,3.9679,3.9373,3.9373,0.0,0.0,0.0,0.0,0.0,0.0,0.0,0.0,0.0,0.0,0.0,0.0,0.0,0.0,0.0,0.0,0.0,0.0,0.0,0.0,0.0,0.0,1.9708,2.0247,2.1365,2.1485,2.2503,2.4455,2.7051,2.8697,2.9475,3.124,3.0043,2.6333,2.4238,2.2652,2.1605,2.2373,2.2703,2.2763,2.334,0.0,0.0,0.0,0.0,0.0,0.0,0.0,0.0,2.6602,2.7649,2.8517,2.8064,0.0,0.0,0.0,0.0,0.0,2.9924,3.142,3.2527,3.1959,3.2677,3.3484,3.3484,0.0,0.0,0.0,0.0,0.0,0.0,0.0,0.0,0.0,0.0,0.0,0.0,0.0,0.0,4.9927,0.0,5.0853,5.0375,5.0345,5.0315,5.0196,4.9134,4.8386,4.8297,4.7668,4.7309,4.7309,4.677,4.6429,4.6429,4.704,4.704,4.6429,4.5783,4.5095,4.4436,4.3738,4.3379,4.329,0.0,4.329,4.329,4.329,4.294,4.2321,4.1662,4.0965,4.0337,3.9679,3.9373,3.9373,0.0,0.0,0.0,0.0,0.0,0.0,0.0,0.0,0.0,0.0,0.0,0.0,0.0,0.0,0.0,0.0,0.0,0.0,0.0,0.0,0.0,2.0756,2.0767,2.1085,2.1695,2.2742,2.4238,2.6213,2.8517,3.0163,3.115,3.0642,2.8846,2.6004,2.4328,2.3101,2.2283,2.2912,2.3212,2.3212,0.0,0.0,0.0,0.0,0.0,0.0,0.0,0.0,0.0,0.0,2.8098,2.8547,2.8218,0.0,0.0,0.0,0.0,0.0,2.9325,3.0971,3.2437,3.2108,3.3066,3.3933,3.3574,0.0,0.0,0.0,0.0,0.0,0.0,0.0,0.0,0.0,0.0,4.5514,4.71,4.8117,4.9105,0.0,0.0,5.0524,5.0226,5.0196,4.9897,4.9254,4.8626,4.8117,4.7788,4.7459,4.713,4.68,4.6429,4.6142,4.5783,4.6082,4.6052,4.5753,4.5095,4.4616,4.4287,4.3589,4.329,4.329,0.0,4.329,4.329,4.329,4.294,4.2381,4.2081,4.1542,4.0846,4.0187,3.9738,3.9373,0.0,0.0,0.0,0.0,0.0,0.0,0.0,0.0,0.0,0.0,0.0,0.0,0.0,0.0,0.0,0.0,0.0,0.0,0.0,0.0,2.0247,2.1425,2.1754,2.2203,2.2832,2.4328,2.6063,2.8064,3.0013,3.1569,3.2677,3.0193,2.7979,2.6004,2.4657,2.364,2.2942,2.358,2.3849,2.3849,0.0,0.0,0.0,0.0,0.0,0.0,0.0,0.0,0.0,0.0,0.0,0.0,0.0,0.0,0.0,2.8214,2.8308,2.8697,2.9175,3.0642,3.2138,3.2437,3.3634,3.4651,3.4472,0.0,0.0,0.0,0.0,0.0,0.0,0.0,0.0,0.0,4.5574,4.707,4.7878,4.8566,4.9344,5.0315,5.0435,5.0375,5.0196,5.0046,4.9523,4.8386,4.8147,4.7848,4.7339,4.7309,4.701,4.6309,4.6172,4.5753,4.5065,4.4915,4.4915,4.5065,4.4556,4.4227,4.4077,4.3529,4.329,4.329,4.329,4.329,4.329,4.329,4.294,4.241,4.241,4.1991,4.1294,4.0457,3.9948,3.9619,0.0,0.0,0.0,0.0,0.0,0.0,0.0,0.0,0.0,0.0,0.0,0.0,0.0,0.0,0.0,0.0,0.0,0.0,0.0,0.0,2.0019,2.0748,2.1964,2.3751,2.6183,2.6363,2.744,2.9472,3.142,3.2736,3.3365,3.133,2.9325,2.7405,2.6063,2.4747,2.358,2.4246,2.4545,2.4575,2.5202,0.0,0.0,0.0,0.0,0.0,0.0,0.0,0.0,0.0,0.0,0.0,0.0,0.0,2.9532,2.9472,2.9056,2.8996,3.0793,3.0972,3.0941,3.2198,3.3993,0.0,3.6866,3.7644,0.0,0.0,0.0,0.0,0.0,0.0,0.0,0.0,4.7249,4.8596,4.9807,0.0,5.105,5.1139,5.1139,5.0853,5.0255,4.9673,4.909,4.8327,4.7728,4.7369,4.7309,4.7309,4.701,4.6309,4.5693,4.5035,4.4377,4.3738,4.3738,4.4377,4.4347,4.3947,4.3349,4.3319,4.329,4.329,4.329,4.329,4.329,4.329,4.294,4.241,4.241,4.1991,4.1235,3.9948,3.9858,4.0247,0.0,0.0,0.0,0.0,0.0,0.0,0.0,0.0,0.0,0.0,0.0,0.0,0.0,0.0,0.0,0.0,0.0,0.0,0.0,0.0,2.0187,2.1276,2.2224,2.3721,2.5944,2.759,2.9415,3.139,3.2557,3.3245,3.3425,3.0193,2.8304,2.7525,2.5764,2.4694,2.4276,2.4933,2.5202,2.5232,2.5525,2.5854,0.0,0.0,0.0,0.0,0.0,0.0,0.0,0.0,2.7764,2.7974,2.7974,2.8427,2.8966,2.8966,2.8786,2.8846,3.0013,3.0731,3.1331,3.2258,0.0,0.0,0.0,0.0,0.0,0.0,0.0,0.0,0.0,0.0,0.0,4.6561,4.8027,4.9224,5.0076,5.0405,5.0554,5.0554,5.0242,4.9763,4.9075,4.8805,4.8386,4.7728,4.7429,4.7309,4.7309,4.692,4.6381,4.5693,4.5035,4.4377,4.3678,4.3409,4.3409,4.3678,4.3678,4.3529,4.329,4.329,4.329,4.329,4.329,4.329,4.329,4.329,4.294,4.2351,4.1961,4.1901,4.1931,4.0965,4.0786,4.0965,0.0,0.0,0.0,0.0,0.0,0.0,0.0,0.0,0.0,0.0,0.0,0.0,0.0,0.0,0.0,0.0,0.0,0.0,0.0,1.9708,2.0307,2.1635,2.2343,2.3601,2.5555,2.8218,3.0432,3.2168,3.3066,3.3275,3.2796,2.9475,2.8034,2.8124,2.5914,2.5143,2.5585,2.5824,2.5914,2.5944,2.6153,2.6512,0.0,0.0,0.0,0.0,0.0,0.0,0.0,0.0,2.7585,2.7675,2.8094,2.8543,2.8936,2.9146,2.9205,2.9295,2.9744,3.0672,3.166,0.0,0.0,0.0,0.0,0.0,0.0,0.0,0.0,0.0,0.0,0.0,0.0,0.0,4.8416,4.9404,4.9883,5.0076,5.0106,4.9942,4.9523,4.906,4.8356,4.8297,4.8027,4.7369,4.7309,4.7219,4.701,4.6561,4.5903,4.5005,4.4556,4.3988,4.329,4.329,4.329,4.329,4.329,4.329,4.329,4.329,4.329,4.329,4.329,4.329,4.329,4.329,4.306,4.2551,4.1474,4.1713,4.2551,4.1474,4.1205,4.1422,0.0,0.0,0.0,0.0,0.0,0.0,0.0,0.0,0.0,0.0,0.0,0.0,0.0,0.0,0.0,0.0,0.0,0.0,1.9762,1.9708,2.0307,2.1635,2.2343,2.3601,2.5525,2.8188,3.0193,3.1511,3.2826,3.2796,3.1451,2.9505,2.8936,2.9472,2.6811,2.6363,2.7555,2.6896,2.6602,2.6686,2.7345,2.7585,2.7585,0.0,0.0,0.0,0.0,0.0,0.0,0.0,2.7585,2.7824,2.9172,2.9592,2.9741,3.0313,3.0492,3.0522,3.0492,3.0972,3.166,0.0,0.0,0.0,0.0,0.0,0.0,0.0,0.0,0.0,0.0,0.0,0.0,4.707,4.8386,4.9299,4.9299,4.9823,4.9972,4.9389,4.9299,4.903,4.8327,4.8267,4.7997,4.7339,4.7309,4.701,4.6309,4.6279,4.5651,4.4347,4.4317,4.3947,4.329,4.329,4.329,4.329,4.329,4.329,4.329,4.329,4.329,4.329,4.329,4.329,4.329,4.329,4.329,4.311,4.1175,4.1624,4.305,4.1115,4.0816,4.1384,0.0,0.0,0.0,0.0,0.0,0.0,0.0,0.0,0.0,0.0,0.0,0.0,0.0,0.0,0.0,0.0,0.0,0.0,1.9726,1.9708,2.0079,2.0976,2.1635,2.2493,2.3541,2.6123,2.8816,3.1511,3.145,3.0971,3.0133,2.8603,2.8004,2.8184,2.7859,2.741,2.6926,2.7195,2.7315,2.7315,2.7525,2.7585,2.7585,0.0,0.0,0.0,0.0,0.0,0.0,0.0,0.0,0.0,2.8064,2.9142,3.0103,2.9385,3.0133,3.1002,3.0103,3.0672,0.0,3.2916,0.0,0.0,0.0,0.0,0.0,0.0,0.0,0.0,0.0,0.0,0.0,4.6621,4.7728,4.8566,4.8566,4.8745,4.8805,4.8596,4.8177,4.7818,4.7608,4.7608,4.7309,4.6681,4.6621,4.6322,4.5633,4.5155,4.4736,4.4317,4.3828,4.3499,4.329,4.288,4.288,4.329,4.2402,4.2432,4.329,4.329,4.329,4.329,4.329,4.306,4.2641,4.2641,4.291,4.32,4.2192,4.2432,4.311,4.1654,4.1542,4.2051,0.0,0.0,0.0,0.0,0.0,0.0,0.0,0.0,0.0,0.0,0.0,0.0,0.0,0.0,0.0,0.0,0.0,0.0,0.0,0.0,2.0887,2.1814,2.2233,2.3011,2.423,2.6327,2.7979,2.9149,2.9564,2.9415,2.8813,2.8513,2.8513,2.8783,2.9175,2.8906,2.8128,2.8064,2.8004,2.8004,2.8004,2.8004,2.8004,0.0,0.0,0.0,0.0,0.0,0.0,0.0,0.0,0.0,2.7914,2.8786,2.9654,2.9146,3.0013,3.0941,3.0163,3.112,0.0,3.3963,3.6746,4.0008,0.0,0.0,0.0,0.0,0.0,0.0,0.0,4.7668,0.0,4.677,4.7608,4.8207,4.7938,4.8117,4.8177,4.7938,4.7549,4.7219,4.695,4.692,4.6621,4.5963,4.5903,4.5633,4.4945,4.4526,4.4197,4.3888,4.3499,4.317,4.294,4.2821,4.2671,4.2551,4.2013,4.2043,4.2551,4.2821,4.294,4.294,4.294,4.2581,4.2021,4.2291,4.262,4.288,4.2261,4.241,4.2821,4.1773,4.1662,4.1991,0.0,0.0,0.0,0.0,0.0,0.0,0.0,0.0,0.0,0.0,0.0,0.0,0.0,0.0,0.0,0.0,0.0,0.0,0.0,0.0,2.2263,2.355,2.3729,2.4657,2.6542,2.7739,2.744,2.5615,2.756,2.8128,2.7435,2.8933,2.9834,3.0342,3.0522,3.0492,3.0253,2.9086,2.8607,2.8607,2.8607,2.8637,2.8697,2.8637,0.0,0.0,0.0,0.0,0.0,0.0,0.0,0.0,2.8397,2.8637,2.8816,2.9415,3.0073,3.0582,3.0582,0.0,0.0,3.531,3.8242,0.0,4.5544,0.0,0.0,0.0,0.0,0.0,4.9239,4.8207,4.7369,4.7309,4.7818,4.7997,4.7399,4.7818,4.7967,4.7309,4.7219,4.695,4.6249,4.619,4.5933,4.5244,4.5214,4.4885,4.4167,4.4197,4.3888,4.323,4.32,4.294,4.241,4.288,4.2581,4.1512,4.1991,4.1961,4.1542,4.2081,4.2321,4.2321,4.2261,4.1931,4.1452,4.1991,4.2261,4.2261,4.1722,4.1841,4.2231,4.1632,4.1354,4.1422,0.0,0.0,0.0,0.0,0.0,0.0,0.0,0.0,0.0,0.0,0.0,0.0,0.0,0.0,0.0,0.0,0.0,0.0,0.0,0.0,2.2263,2.355,2.4627,2.5615,2.6572,2.6363,2.6033,2.5615,2.7106,2.72,2.6093,2.8483,2.9385,2.9086,0.0,3.0434,2.8996,2.8727,2.8607,2.8607,2.8607,2.8906,2.9352,2.8786,2.8517,0.0,0.0,0.0,0.0,0.0,0.0,0.0,2.8397,2.8966,2.9412,2.9562,3.0402,3.1271,3.1271,3.2377,0.0,0.0,4.0277,0.0,0.0,0.0,0.0,0.0,0.0,4.9149,4.8596,4.8267,4.7908,4.7399,4.7429,4.7459,4.7339,4.7429,4.7279,4.6578,4.6531,4.6262,4.5574,4.5514,4.5244,4.4586,4.4526,4.4018,4.289,4.3269,4.324,4.262,4.262,4.253,4.241,4.2021,4.1961,4.2171,4.1235,4.1332,4.2171,4.1811,4.1632,4.1602,4.1055,4.1025,4.1354,4.0965,4.1115,4.1662,4.2051,4.1961,4.1602,4.1482,4.1055,4.0636,0.0,0.0,0.0,0.0,0.0,0.0,0.0,0.0,0.0,0.0,0.0,0.0,0.0,0.0,0.0,0.0,0.0,0.0,0.0,0.0,0.0,2.4507,2.5525,2.6243,2.6572,2.6243,2.5914,2.5615,2.6602,2.6926,0.0,0.0,0.0,2.9594,0.0,3.0911,2.9056,2.9056,2.8876,2.8607,2.8607,2.8996,2.9532,2.8846,2.8607,2.8517,2.7854,0.0,0.0,0.0,0.0,0.0,0.0,0.0,2.9235,2.9834,3.0313,3.0703,3.1331,0.0,0.0,3.8422,0.0,0.0,0.0,0.0,0.0,0.0,4.8596,4.912,4.8416,4.8297,4.8057,4.7429,4.7309,4.7309,4.7309,4.704,4.6711,4.6309,4.6022,4.5574,4.4885,4.4825,4.4407,4.3449,4.3389,4.294,4.1991,4.2222,4.2252,4.1931,4.1931,4.1782,4.1482,4.1384,4.1235,4.0935,4.0576,4.0606,4.0935,4.0935,4.0905,4.0876,4.0546,4.0427,4.0427,4.0397,4.0606,4.0935,4.1332,4.1205,4.0905,4.0905,4.0696,4.0397,0.0,0.0,0.0,0.0,0.0,0.0,0.0,0.0,0.0,0.0,0.0,0.0,0.0,0.0,0.0,0.0,0.0,0.0,0.0,0.0,0.0,0.0,2.6393,2.6811,2.6931,2.6811,2.6482,2.5944,2.6602,0.0,0.0,0.0,0.0,3.0552,0.0,3.136,2.9771,2.9651,2.9292,2.8757,2.8637,2.8996,2.9532,2.8846,2.8607,2.8517,2.7854,2.7585,2.7675,2.8218,0.0,0.0,0.0,0.0,2.8816,3.0013,2.9983,2.9864,3.1152,0.0,3.6028,0.0,0.0,0.0,0.0,0.0,0.0,0.0,4.8087,4.882,4.8207,4.8117,4.7908,4.7249,4.713,4.71,4.698,4.6501,4.607,4.595,4.5484,4.4855,4.4197,4.4047,4.3539,4.247,4.2291,4.1931,4.1235,4.1324,4.1324,4.1205,4.1205,4.0935,4.0397,4.0935,4.0666,3.9589,4.0127,4.0068,3.9403,3.9858,4.0127,4.0217,4.0217,3.9918,3.9469,4.0008,4.0217,4.0247,4.0337,4.0337,4.0247,4.0367,4.0337,4.0247,0.0,0.0,0.0,0.0,0.0,0.0,0.0,0.0,0.0,0.0,0.0,0.0,0.0,0.0,0.0,0.0,0.0,0.0,0.0,0.0,0.0,2.6422,2.7106,2.7735,2.8308,2.7764,2.7435,2.7345,0.0,0.0,0.0,0.0,0.0,3.0522,0.0,0.0,3.0342,2.9804,2.9562,2.9442,2.8816,2.8996,2.9532,0.0,0.0,0.0,0.0,2.7585,2.7615,2.7705,2.8098,0.0,0.0,0.0,2.8757,2.9475,2.9681,2.9864,0.0,0.0,0.0,0.0,0.0,0.0,0.0,0.0,0.0,0.0,4.704,4.7549,4.7459,4.7429,4.7219,4.6561,4.6399,4.6232,4.5633,4.5484,4.5214,4.4646,4.4496,4.4197,4.3499,4.294,4.259,4.241,4.1871,4.1235,4.0576,4.1055,4.1115,4.0546,4.0516,4.0487,4.0397,4.0487,4.0427,4.0277,4.0367,4.0068,3.9409,3.8901,3.899,3.9523,3.9523,3.9463,3.9403,3.9529,3.9523,3.9619,4.0187,4.0068,3.9619,4.0187,4.0038,3.9619,0.0,0.0,0.0,0.0,0.0,0.0,0.0,0.0,0.0,0.0,0.0,0.0,0.0,0.0,0.0,0.0,0.0,0.0,0.0,0.0,0.0,2.6572,2.6512,2.6961,2.8034,2.7375,2.7225,2.7585,0.0,0.0,0.0,3.0223,3.0851,0.0,0.0,0.0,0.0,3.0372,2.9894,2.9592,2.9292,2.9535,0.0,0.0,0.0,0.0,0.0,0.0,0.0,2.8603,2.8693,2.8667,2.9026,0.0,0.0,0.0,2.9861,0.0,3.2168,0.0,0.0,0.0,0.0,0.0,0.0,0.0,0.0,4.5603,4.5963,4.6292,4.6681,4.6741,4.6531,4.5873,4.5753,4.5633,4.5334,4.4646,4.4077,4.3768,4.3449,4.309,4.2821,4.256,4.2261,4.1871,4.1205,4.0546,3.9888,4.0127,4.0157,3.9858,3.9858,3.9858,3.9858,3.9858,3.9858,3.9828,3.908,3.8751,3.8811,3.8153,3.8422,3.9409,3.902,3.8841,3.8871,3.926,3.92,3.8901,3.9589,3.9679,3.9469,3.9738,3.9679,3.9469,0.0,0.0,0.0,0.0,0.0,0.0,0.0,0.0,0.0,0.0,0.0,0.0,0.0,0.0,0.0,0.0,0.0,0.0,0.0,0.0,0.0,2.6572,2.6273,2.6572,2.7585,2.7106,2.7106,0.0,0.0,0.0,3.0761,3.0941,3.2078,0.0,3.3125,0.0,0.0,0.0,0.0,0.0,0.0,0.0,0.0,0.0,0.0,0.0,0.0,0.0,0.0,0.0,0.0,0.0,0.0,2.9621,0.0,0.0,0.0,0.0,0.0,0.0,0.0,0.0,0.0,0.0,0.0,0.0,4.3509,0.0,4.4556,4.4915,4.5244,4.5723,4.5843,4.5155,4.5035,4.4915,4.4586,4.3718,4.303,4.2851,4.2402,4.2141,4.2141,4.1991,4.1692,4.1175,4.0516,3.9858,3.92,3.917,3.908,3.8901,3.8865,3.8865,3.8865,3.8865,3.8865,3.8901,3.7883,3.7674,3.8123,3.7464,3.7793,3.8871,3.8362,3.8242,3.8422,3.8781,3.8811,3.8691,3.902,3.926,3.9373,3.9373,3.9373,3.9373,0.0,0.0,0.0,0.0,0.0,0.0,0.0,0.0,0.0,0.0,0.0,0.0,0.0,0.0,2.4118,2.5405,0.0,0.0,0.0,0.0,0.0,2.6602,2.7195,0.0,2.7585,2.7555,0.0,0.0,0.0,0.0,3.1451,3.2079,3.3484,3.534,3.4023,3.3095,3.2378,0.0,0.0,0.0,3.0073,2.9621,0.0,0.0,0.0,0.0,0.0,0.0,0.0,0.0,0.0,0.0,0.0,0.0,0.0,0.0,0.0,0.0,0.0,0.0,0.0,0.0,0.0,0.0,0.0,0.0,0.0,4.1444,4.2581,4.3269,4.271,4.4107,4.5125,4.4466,4.4377,4.3928,4.274,4.25,4.2231,4.1564,4.1444,4.1482,4.1482,4.0876,4.0487,4.0457,3.9828,3.917,3.8482,3.8452,3.8153,3.7524,3.7524,3.7524,3.7524,3.7524,3.7524,3.7524,3.7434,3.7434,3.7434,3.6806,3.6896,3.7524,3.7494,3.7823,3.8332,3.7764,3.8242,3.932,3.8691,3.8841,3.9373,3.9373,3.9373,3.9373,0.0,0.0,0.0,0.0,0.0,0.0,0.0,0.0,0.0,0.0,0.0,0.0,0.0,2.5046,2.5076,2.5555,2.5764,0.0,0.0,0.0,0.0,2.7255,2.7465,2.7585,2.7585,2.7585,0.0,0.0,0.0,2.8936,3.0853,3.112,3.2078,3.3574,3.3514,3.3604,3.3664,3.2138,0.0,0.0,3.118,3.0793,3.0793,0.0,0.0,0.0,0.0,0.0,0.0,0.0,0.0,0.0,0.0,0.0,0.0,0.0,0.0,0.0,0.0,0.0,0.0,0.0,0.0,0.0,0.0,0.0,3.8781,3.9888,4.0487,4.0876,4.1055,4.2701,4.3688,4.2611,4.2432,4.2252,4.1841,4.1422,4.1025,4.0786,4.0756,4.0756,4.0756,4.0157,3.9768,3.9768,3.8751,3.8003,3.7764,3.7764,3.7644,3.7434,3.7404,3.7404,3.7404,3.7015,3.7015,3.7404,3.6567,3.6417,3.6806,3.6148,3.5968,3.6178,3.6178,3.6567,3.7165,3.7345,3.7704,3.8153,3.8332,3.8811,3.9373,3.9373,3.9373,3.9481,0.0,0.0,0.0,0.0,0.0,0.0,0.0,0.0,0.0,0.0,0.0,0.0,0.0,0.0,2.5704,2.5914,2.6542,2.6956,2.6956,2.7345,2.7585,2.7585,2.7585,2.7585,2.7585,0.0,0.0,0.0,0.0,0.0,0.0,3.0731,3.1569,3.2856,3.3066,3.3544,0.0,0.0,0.0,3.3125,3.2467,3.2168,3.2198,0.0,0.0,0.0,0.0,0.0,0.0,0.0,0.0,0.0,0.0,0.0,0.0,0.0,0.0,0.0,0.0,0.0,0.0,0.0,0.0,0.0,0.0,0.0,3.7015,3.7913,3.8631,3.914,3.9349,4.0636,4.1624,4.1414,4.1205,4.1055,4.1055,4.0277,3.9738,3.9738,3.9529,3.9379,3.9379,3.899,3.8751,3.8751,3.7913,0.0,3.7105,3.7105,3.6985,3.6776,3.6776,3.6776,3.6776,3.6357,3.6357,3.6746,3.5908,3.5729,3.6148,3.5699,3.5519,3.5519,3.5519,3.5878,3.654,3.6957,3.7342,3.7768,3.8047,3.8815,3.9814,3.9571,3.9843,4.0343,0.0,0.0,0.0,0.0,0.0,0.0,0.0,0.0,0.0,0.0,0.0,0.0,0.0,0.0,0.0,2.6602,2.7255,2.7615,2.7585,2.7585,2.7585,2.7585,0.0,0.0,0.0,0.0,0.0,0.0,0.0,0.0,0.0,0.0,3.2168,3.3395,3.2796,3.2856,3.3514,0.0,3.4444,3.4444,0.0,3.3484,3.3604,0.0,0.0,0.0,3.4264,3.4023,0.0,3.2766,0.0,0.0,0.0,0.0,0.0,0.0,0.0,0.0,0.0,0.0,0.0,0.0,0.0,0.0,0.0,0.0,3.5429,3.5459,3.6956,3.8093,3.7494,3.7913,3.899,4.0935,4.0726,4.0307,4.0307,3.917,3.8362,3.8362,3.7793,3.7404,3.7404,3.7404,3.7375,3.7375,3.7375,3.7105,3.6477,3.6447,3.6178,3.5519,3.5519,3.5519,3.5519,3.5519,3.5519,3.5519,3.5519,3.5519,3.5519,3.5519,3.5519,3.5519,3.5522,3.5911,3.6487,3.6567,3.7296,3.8357,3.7827,3.8894,4.0634,3.9982,4.0698,4.1981,0.0,0.0,0.0,0.0,0.0,0.0,0.0,0.0,0.0,0.0,0.0,0.0,0.0,0.0,2.8368,2.8068,2.8218,2.8098,2.7615,2.7585,2.7585,2.7585,2.7585,2.7585,2.7585,0.0,0.0,0.0,0.0,0.0,0.0,0.0,0.0,0.0,3.2377,3.2617,3.2766,3.2437,0.0,3.4414,3.3245,3.3365,0.0,0.0,0.0,0.0,0.0,3.3664,3.3455,0.0,3.3215,3.3125,0.0,0.0,0.0,0.0,0.0,0.0,3.1451,0.0,0.0,0.0,0.0,0.0,0.0,0.0,3.3604,3.4562,3.5222,3.5821,3.6596,3.6896,3.7345,3.8332,3.8362,3.8242,3.8242,3.7913,3.7674,3.7674,3.7524,3.7404,3.7404,3.7015,3.6746,0.0,3.6297,3.5968,3.5789,3.5789,3.5699,3.5519,3.5519,3.5519,3.5519,3.5519,3.5519,3.5519,3.5519,3.5519,3.5519,3.5519,3.5519,3.5522,3.607,3.6413,3.6567,3.66,3.7437,3.8654,3.8523,3.9438,4.0832,4.0642,4.1183,4.2109,0.0,0.0,0.0,0.0,0.0,0.0,0.0,0.0,0.0,0.0,0.0,0.0,0.0,0.0,0.0,2.9445,2.9385,2.9116,2.8483,2.8423,2.8304,2.8034,2.8034,2.8034,2.8034,0.0,0.0,0.0,0.0,0.0,0.0,0.0,0.0,0.0,0.0,0.0,0.0,0.0,0.0,0.0,3.3963,0.0,0.0,3.4771,3.4562,0.0,0.0,0.0,3.5011,3.4173,3.3724,0.0,0.0,0.0,0.0,0.0,0.0,0.0,0.0,0.0,0.0,0.0,0.0,0.0,3.2407,3.2527,3.2736,3.3484,3.3873,3.4292,3.51,3.525,3.537,3.5729,3.5759,3.6148,3.7255,3.6956,3.6716,3.6985,3.6776,3.6626,3.6626,3.6297,3.6088,3.6088,3.5729,3.5519,3.5519,3.5519,3.5519,3.5519,3.5519,3.5519,3.5519,3.5519,3.5519,3.5519,3.5519,3.5519,3.5519,3.5519,3.5519,3.5522,3.6259,3.6783,3.7114,3.7408,3.8059,3.8784,3.8847,3.9706,4.0938,4.1001,4.1697,4.2712,0.0,0.0,0.0,0.0,0.0,0.0,0.0,0.0,0.0,0.0,0.0,0.0,0.0,0.0,0.0,0.0,3.0642,3.0342,2.9741,2.9651,2.9325,2.8727,2.8697,2.8697,2.8697,2.8697,0.0,0.0,0.0,0.0,0.0,0.0,0.0,0.0,0.0,0.0,0.0,0.0,0.0,3.4444,3.513,3.5489,0.0,0.0,3.6028,3.5579,3.6178,3.6716,3.6926,3.519,3.4174,0.0,0.0,0.0,0.0,0.0,3.4628,0.0,0.0,0.0,0.0,0.0,0.0,0.0,3.2527,3.2527,3.2527,3.2527,3.2976,3.3395,3.3484,3.3484,3.3484,3.3484,3.3484,3.4352,3.6746,3.6058,3.5549,3.6297,3.5729,3.534,3.5489,3.5429,3.5429,3.5489,3.5519,3.5519,3.5519,3.5519,3.5519,3.5519,3.5519,3.5519,3.5519,3.5519,3.5519,3.5519,3.5587,3.5619,3.5619,3.5716,3.578,3.5782,3.6538,3.7263,3.7962,3.8718,3.9,3.895,3.9007,3.988,4.1139,4.1257,4.2273,4.3639,0.0,0.0,0.0,0.0,0.0,0.0,0.0,0.0,0.0,0.0,0.0,0.0,0.0,0.0,0.0,0.0,3.16,3.1032,3.0372,2.9864,2.9562,2.9412,2.9412,2.9412,2.9412,2.9412,2.9714,3.0313,0.0,0.0,0.0,0.0,0.0,0.0,0.0,0.0,0.0,0.0,0.0,3.3754,3.4444,0.0,3.6237,3.5848,3.5609,3.5519,3.5639,3.5759,3.5818,3.5429,3.4861,3.4294,0.0,0.0,0.0,0.0,0.0,0.0,0.0,0.0,0.0,0.0,0.0,0.0,3.2765,3.2527,3.2527,3.2527,3.2617,3.2856,3.3395,3.3484,3.3484,3.3484,3.3484,3.3873,3.4891,3.4382,3.4352,3.5549,3.4622,3.4322,3.54,3.5011,3.4921,3.5459,3.5519,3.5519,3.5519,3.5519,3.5519,3.5519,3.5519,3.5519,3.5519,3.5519,3.5519,3.5519,3.6102,3.6384,3.6415,3.7055,3.7354,3.7383,3.8133,3.8553,3.8745,3.9558,3.9866,3.9837,3.9858,4.0759,4.2038,4.2099,4.3057,4.4412,0.0,0.0,0.0,0.0,0.0,0.0,0.0,0.0,0.0,0.0,0.0,0.0,0.0,0.0,0.0,0.0,0.0,0.0,0.0,3.121,3.0731,3.0073,3.0043,3.0043,3.0043,3.0043,3.0372,3.1002,0.0,0.0,0.0,0.0,0.0,0.0,0.0,0.0,0.0,0.0,3.3993,3.4053,3.4711,0.0,3.6447,3.6118,3.6178,3.6417,3.6118,3.5789,3.5609,3.6237,3.5789,0.0,0.0,3.4785,3.4569,0.0,3.5654,3.6311,0.0,0.0,0.0,3.6511,0.0,0.0,0.0,3.3614,3.3318,3.3996,3.328,3.2863,3.3908,3.381,3.3565,3.3565,3.3284,3.3268,3.3907,3.3698,3.3754,3.4412,3.3903,3.3754,3.4442,3.4203,3.4262,3.4951,3.531,3.5519,3.5519,3.5519,3.5519,3.5519,3.5519,3.5519,3.5519,3.5519,3.5686,3.607,3.6415,3.6813,3.7203,3.7618,3.7793,3.7851,3.858,3.8908,3.8962,3.9765,4.0113,4.0113,4.0113,4.079,4.1813,4.2151,4.2997,4.4045,0.0,0.0,0.0,0.0,3.2138,0.0,0.0,0.0,0.0,0.0,0.0,0.0,0.0,0.0,0.0,0.0,0.0,0.0,0.0,0.0,3.2228,3.112,3.1091,3.1031,3.0881,3.0881,3.1152,3.169,0.0,0.0,0.0,0.0,0.0,0.0,0.0,0.0,0.0,0.0,0.0,3.4711,0.0,3.5818,3.6297,3.6297,3.6596,3.6985,3.6477,3.5968,3.5669,3.6686,3.6457,3.5723,3.5707,3.5706,0.0,0.0,0.0,0.0,0.0,0.0,0.0,0.0,0.0,3.7173,0.0,0.0,0.0,3.5582,3.4311,0.0,0.0,0.0,0.0,0.0,0.0,0.0,0.0,3.3116,0.0,3.3634,3.3335,3.3275,3.3634,3.3574,3.3724,3.4264,3.4921,3.531,3.531,3.5429,3.5519,3.5519,3.5519,3.5519,3.5519,3.5651,3.6006,3.66,3.6904,3.7381,3.8023,3.8193,3.825,3.8278,3.8854,3.9123,3.9183,3.985,4.0113,4.0113,4.0113,4.0527,4.1305,4.2016,4.276,4.3511,2.8697,2.9112,0.0,0.0,0.0,0.0,0.0,0.0,0.0,0.0,0.0,0.0,0.0,0.0,0.0,0.0,0.0,0.0,3.6746,0.0,0.0,3.3155,3.3155,3.2886,3.2317,3.2258,3.2317,3.2378,3.178,0.0,0.0,0.0,0.0,0.0,3.3125,0.0,0.0,0.0,3.4831,0.0,3.5459,3.5549,0.0,3.5609,3.5669,3.5699,3.5639,3.5579,3.5519,0.0,3.6032,3.6477,0.0,3.6507,3.663,0.0,0.0,0.0,0.0,0.0,0.0,0.0,3.9276,0.0,0.0,0.0,3.6318,3.5883,0.0,0.0,0.0,0.0,0.0,0.0,0.0,0.0,3.1734,3.1689,3.2378,3.4174,3.2826,3.2437,3.4234,3.3844,3.3514,3.3604,3.4234,3.4623,3.4623,3.519,3.5519,3.5519,3.5519,3.5519,3.5519,3.6134,3.6538,3.66,3.7987,3.869,3.8799,3.9506,3.985,3.985,3.9927,3.9952,3.9978,4.0054,4.0113,4.0113,4.0113,4.0527,4.1305,4.2016,4.276,4.3511,0.0,3.0013,0.0,0.0,0.0,0.0,0.0,0.0,0.0,0.0,0.0,0.0,0.0,0.0,0.0,0.0,0.0,3.6626,0.0,0.0,0.0,0.0,3.3484,3.3365,3.3095,3.3095,3.3095,3.3095,3.2796,0.0,0.0,0.0,0.0,0.0,3.3933,0.0,3.507,0.0,3.525,0.0,0.0,0.0,0.0,3.5938,3.6058,3.6058,3.6058,3.5818,3.5519,0.0,3.6006,0.0,0.0,0.0,0.0,0.0,0.0,0.0,0.0,0.0,0.0,0.0,0.0,0.0,3.8798,0.0,3.7648,0.0,0.0,0.0,0.0,0.0,0.0,0.0,3.4455,0.0,0.0,0.0,3.2606,0.0,0.0,0.0,3.2677,3.2856,3.2916,3.2916,3.3544,3.3903,3.3903,3.4532,3.4921,3.4921,3.5699,3.6134,3.6134,3.6905,3.7528,3.793,3.8575,3.9123,3.961,3.9952,4.0113,4.0113,4.0113,4.0113,4.0113,4.0113,4.0113,4.0146,4.0561,4.0933,4.1305,4.2016,4.276,4.3511,0.0,0.0,0.0,0.0,0.0,0.0,0.0,0.0,0.0,0.0,0.0,0.0,4.3529,4.2581,0.0,0.0,3.9918,3.8601,0.0,0.0,3.4921,0.0,0.0,0.0,0.0,3.3754,3.3754,3.3754,3.3574,0.0,0.0,0.0,0.0,0.0,0.0,3.531,3.5759,0.0,3.5759,3.5759,3.5579,3.5519,3.5549,3.6028,3.6207,3.6207,3.6207,3.5908,3.5519,3.5519,3.6006,0.0,3.5975,0.0,0.0,0.0,0.0,0.0,3.869,0.0,0.0,0.0,0.0,0.0,0.0,0.0,0.0,0.0,0.0,0.0,0.0,0.0,0.0,0.0,0.0,3.5357,0.0,0.0,0.0,0.0,0.0,0.0,0.0,3.16,3.1869,3.2198,0.0,3.3036,3.3215,3.4054,3.4503,3.4503,3.586,3.66,3.66,3.7587,3.8358,3.8908,3.9096,3.9532,4.0113,4.0113,4.0113,4.0113,4.0113,4.0113,4.0113,4.0113,4.0113,4.018,4.0899,4.1204,4.1305,4.2252,4.2963,4.3511,3.2407,3.139,0.0,0.0,0.0,0.0,0.0,0.0,0.0,0.0,0.0,0.0,0.0,0.0,0.0,0.0,0.0,4.1265,4.1205,0.0,3.6746,0.0,0.0,3.513,0.0,0.0,3.4474,3.4474,3.3814,0.0,0.0,0.0,0.0,0.0,0.0,3.6447,3.6447,3.6447,3.6447,3.6387,3.5759,3.5519,3.5519,0.0,3.5549,3.5549,3.5549,0.0,0.0,3.5519,3.6006,0.0,0.0,0.0,0.0,0.0,0.0,0.0,0.0,0.0,0.0,4.0282,0.0,0.0,0.0,0.0,4.0054,0.0,0.0,0.0,0.0,0.0,0.0,0.0,0.0,0.0,0.0,0.0,0.0,0.0,0.0,0.0,0.0,3.0402,3.0193,0.0,3.154,0.0,3.2527,3.3784,3.4503,3.4503,3.586,3.66,3.66,3.8101,3.8881,3.8908,3.9688,4.0087,4.0113,4.0113,4.0113,4.0113,4.0113,4.0113,4.0113,4.0113,4.0113,4.018,4.0899,4.1204,4.1373,4.2801,4.3375,4.3511,0.0,0.0,0.0,0.0,0.0,0.0,0.0,3.9379,0.0,0.0,4.5753,0.0,0.0,4.8955,4.8521,0.0,0.0,4.4556,4.2791,4.1025,0.0,0.0,0.0,3.7375,0.0,0.0,0.0,0.0,0.0,0.0,0.0,0.0,0.0,0.0,0.0,3.5848,0.0,0.0,0.0,0.0,0.0,3.6656,3.7285,0.0,3.5519,3.5519,3.5519,3.5519,0.0,3.5519,3.6006,3.6507,3.6038,3.6196,3.663,3.6934,3.6994,3.7174,0.0,0.0,3.899,3.9249,0.0,0.0,0.0,0.0,0.0,0.0,0.0,0.0,0.0,0.0,0.0,0.0,0.0,0.0,0.0,0.0,0.0,0.0,0.0,0.0,0.0,0.0,0.0,0.0,0.0,0.0,3.2494,3.3366,3.4273,3.5245,3.6634,3.7645,3.8129,3.9183,3.9688,3.9688,3.9978,4.0113,4.0113,4.0113,4.0113,4.0146,4.0595,4.0832,4.0865,4.1339,4.1271,4.0933,4.2185,4.2354,4.2049,4.3064,4.3375,4.3511,3.3933,0.0,0.0,0.0,0.0,0.0,3.8422,4.1055,4.3868,4.695,4.8716,0.0,5.2995,0.0,5.2007,0.0,4.9912,4.7608,4.4257,4.324,0.0,3.92,3.932,0.0,0.0,0.0,0.0,0.0,0.0,3.5729,0.0,0.0,0.0,0.0,0.0,3.5729,3.5519,0.0,3.6297,0.0,0.0,3.7165,0.0,0.0,3.6327,3.6447,0.0,3.5639,3.5818,3.5579,3.6116,3.6774,3.6072,3.633,3.6933,3.7249,3.7157,3.7218,3.8319,3.8216,0.0,3.9076,3.9096,0.0,3.9927,0.0,0.0,0.0,0.0,0.0,0.0,0.0,0.0,0.0,0.0,0.0,0.0,3.5572,0.0,0.0,0.0,0.0,0.0,0.0,0.0,0.0,0.0,0.0,0.0,3.3529,3.4616,3.5324,3.7227,3.8414,3.8908,3.9688,4.0113,4.0113,4.0113,4.0113,4.0113,4.0383,4.0493,4.0553,4.1271,4.1576,4.1644,4.2083,4.2016,4.1711,4.2902,4.3132,4.2794,4.3538,4.3842,4.391,3.4863,0.0,0.0,0.0,3.6178,3.7883,3.9254,4.2791,4.6262,0.0,5.1139,5.3174,5.5209,5.485,5.4192,5.3533,5.2785,5.0451,4.5963,4.5603,0.0,0.0,4.0068,3.932,3.8512,0.0,0.0,0.0,0.0,0.0,0.0,0.0,0.0,0.0,3.6148,0.0,3.5579,3.6836,3.7045,3.6567,3.7135,3.7075,3.6716,3.7195,3.7823,3.8242,3.6297,3.5998,3.6447,3.5818,3.6417,3.7315,3.6716,3.6926,3.7575,3.8383,3.8148,3.7997,3.9609,3.9003,3.8254,3.9729,3.9506,0.0,0.0,0.0,4.0146,0.0,0.0,0.0,0.0,0.0,0.0,0.0,0.0,0.0,0.0,0.0,0.0,0.0,0.0,0.0,0.0,0.0,0.0,0.0,0.0,0.0,0.0,3.4178,3.5407,3.4906,3.7501,3.8908,3.8962,3.9714,4.0113,4.0113,4.0146,4.0146,4.018,4.0933,4.1238,4.1238,4.2016,4.232,4.2286,4.2388,4.2388,4.2422,4.3166,4.3443,4.3544,4.4316,4.4615,4.4615,3.6028,3.6866,3.7584,3.7404,3.7404,3.8182,4.0516,4.3389,4.6591,5.0242,5.3324,5.6077,5.856,5.8231,5.7782,5.7603,5.5658,0.0,0.0,0.0,0.0,4.4915,4.4137,4.2551,3.9948,3.9709,0.0,3.6237,0.0,0.0,3.5519,0.0,0.0,0.0,0.0,0.0,3.5549,3.6387,3.6896,3.7135,3.6836,3.7793,3.92,0.0,3.8033,3.9619,3.7644,3.7015,3.7135,3.6985,3.7135,3.7375,3.7225,3.7285,3.7439,3.7647,3.8063,3.8525,3.8937,3.928,3.9593,4.0011,3.9933,3.985,0.0,0.0,0.0,0.0,0.0,0.0,0.0,0.0,0.0,0.0,0.0,0.0,0.0,0.0,0.0,3.6468,0.0,0.0,0.0,0.0,0.0,0.0,0.0,0.0,0.0,0.0,3.56,3.7036,3.8263,3.9209,3.9799,3.9978,4.0113,4.0113,4.0663,4.0933,4.0933,4.1677,4.1711,4.1271,4.2557,4.2828,4.2388,4.3565,4.3639,4.32,4.3978,4.4282,4.4316,4.4513,4.4615,4.4615,3.6956,3.8392,0.0,4.0104,4.0786,4.1803,4.3299,4.5274,4.8027,5.2007,5.464,0.0,5.859,5.8979,5.8979,5.871,5.7064,0.0,5.3294,0.0,0.0,4.7309,4.6262,4.4347,4.1324,4.0696,0.0,3.6477,0.0,0.0,3.5519,0.0,0.0,0.0,0.0,3.5669,0.0,3.6926,3.7704,3.8242,3.7913,3.8482,0.0,3.8212,3.8691,3.9828,3.8691,3.8093,3.7793,3.7494,3.7793,3.8242,3.7943,3.8033,3.8342,3.8728,3.8689,3.8714,3.9467,3.9339,3.9198,3.9827,3.9767,3.9662,4.0003,4.0417,4.0595,0.0,4.0451,4.0595,0.0,0.0,0.0,0.0,0.0,0.0,0.0,0.0,0.0,0.0,3.6051,0.0,0.0,0.0,0.0,0.0,0.0,0.0,0.0,0.0,3.6836,3.7385,3.9339,4.0273,4.0113,4.0756,4.0925,4.0595,4.1001,4.1373,4.1711,4.2455,4.2557,4.2252,4.3403,4.3673,4.3369,4.4242,4.4316,4.3978,4.4445,4.4615,4.4615,4.4615,4.4615,4.4615,3.8033,0.0,0.0,0.0,4.4825,4.686,4.7236,4.8416,5.0511,5.4251,5.6017,5.7154,5.7693,5.871,5.9099,5.8441,0.0,5.6137,5.3832,5.2845,5.1229,4.8775,4.7339,4.5334,4.271,4.1324,0.0,0.0,0.0,3.6267,3.5639,0.0,0.0,0.0,0.0,0.0,0.0,3.7793,3.8721,3.9373,3.9194,3.8901,3.8571,3.908,3.9313,3.9373,3.9373,3.902,3.8452,3.7853,3.8452,3.932,3.8721,3.8931,3.9589,4.0416,3.9845,3.9181,4.0801,3.9817,3.8647,3.9902,3.9776,3.9495,3.9961,4.018,4.0214,4.0113,4.0113,4.0113,0.0,0.0,0.0,0.0,0.0,0.0,0.0,0.0,0.0,0.0,0.0,0.0,0.0,0.0,0.0,0.0,0.0,0.0,0.0,0.0,3.8178,3.697,4.0236,4.15,4.0417,4.1542,4.1914,4.1508,4.1508,4.1813,4.2455,4.3234,4.3477,4.3443,4.4248,4.4547,4.4479,4.4581,4.4615,4.4615,4.4615,4.4615,4.4615,4.4615,4.4615,4.4615,4.0696,0.0,0.0,0.0,4.6262,4.9673,5.2396,5.3473,5.482,5.7124,5.9548,6.1104,6.1194,6.0954,6.0475,5.9787,5.8112,0.0,0.0,0.0,0.0,5.078,4.8925,4.6711,4.4018,4.2701,4.0995,0.0,3.7793,3.6926,3.6297,0.0,0.0,0.0,0.0,0.0,3.7255,3.7494,0.0,3.9284,3.8212,3.8362,3.92,3.8751,3.8931,3.9373,3.9373,3.9313,3.923,3.911,3.923,3.9409,3.9254,3.932,3.9589,4.0416,4.1035,4.1597,4.2606,4.2613,4.2273,4.1977,4.1796,4.1411,4.0358,4.0561,4.0832,4.0248,4.0113,4.0113,4.0113,0.0,0.0,0.0,0.0,0.0,0.0,0.0,0.0,0.0,0.0,3.6663,0.0,0.0,0.0,0.0,0.0,0.0,0.0,0.0,3.7361,0.0,3.9496,0.0,0.0,0.0,4.1948,4.3003,4.3003,4.3071,4.3234,4.4012,4.4012,4.3443,4.4248,4.4215,4.3673,4.4344,4.4615,4.4615,4.4615,4.4615,4.4615,4.4615,4.4615,4.4615,4.4317,0.0,0.0,0.0,5.0152,5.3204,5.5837,5.7693,5.874,5.865,5.9129,5.9488,5.9488,5.9847,5.9937,5.9608,5.8052,5.7094,5.7094,5.464,5.2755,5.1768,4.9853,0.0,4.4885,4.3249,4.1384,3.9373,3.7734,3.6776,3.6477,0.0,0.0,0.0,0.0,3.7225,0.0,0.0,0.0,3.9828,3.8841,3.8805,3.9343,3.905,3.914,3.9373,3.9373,3.9373,3.9373,3.9373,3.9373,3.9373,3.9373,3.9702,4.0135,4.0588,4.1297,4.2077,4.252,4.2703,4.2684,4.235,4.2286,4.2117,4.1399,4.1204,4.1102,4.073,4.0383,4.0113,4.0113,4.0113,0.0,0.0,0.0,0.0,0.0,0.0,0.0,0.0,0.0,0.0,0.0,0.0,0.0,0.0,0.0,3.5579,3.5155,0.0,3.7935,0.0,0.0,0.0,4.1745,0.0,4.3098,4.3375,4.3375,4.3639,4.4045,4.4445,4.4412,4.4045,4.4418,4.4378,4.4045,4.4445,4.4852,4.5162,4.5162,4.5162,4.5162,4.5162,4.4925,4.4615,0.0,4.8686,0.0,0.0,5.4072,5.6555,5.8112,6.0595,6.1732,6.0146,5.889,5.8112,5.7962,5.877,5.9249,5.9129,5.7872,5.7094,5.7094,5.464,5.2815,5.2037,5.0242,4.8131,4.5574,4.3569,4.1743,0.0,3.7913,3.6896,0.0,0.0,0.0,0.0,0.0,0.0,0.0,0.0,3.9709,4.0157,3.9619,3.9373,3.9373,3.9373,3.9373,3.9373,3.9373,3.9373,3.9373,3.9373,3.9373,3.9373,3.9373,3.9849,4.0485,4.0894,4.1462,4.2077,4.2458,4.2652,4.2663,4.2502,4.2624,4.2692,4.2354,4.1982,4.1576,4.1271,4.0595,4.0113,4.0113,4.0113,0.0,0.0,0.0,0.0,0.0,0.0,0.0,0.0,0.0,0.0,3.7337,0.0,0.0,0.0,0.0,3.6332,3.5893,3.7719,3.8565,0.0,0.0,4.2388,4.1677,0.0,4.4045,4.3882,4.3713,4.3978,4.4615,4.4615,4.4615,4.4615,4.4615,4.4615,4.4615,4.4615,4.5026,4.5703,4.5703,4.5805,4.594,4.594,4.5568,4.5055,0.0,0.0,5.2785,5.2965,5.6166,5.88,5.8979,6.1283,6.2929,6.272,6.2061,6.1403,6.0805,6.0296,5.9757,5.9159,5.7872,5.7094,5.7094,5.464,5.2606,5.1379,5.0002,4.8327,4.6262,4.4216,4.2851,0.0,3.9469,3.8212,0.0,0.0,0.0,0.0,0.0,0.0,0.0,3.914,3.9469,3.9499,3.9439,3.9373,3.9373,3.9373,3.9373,3.9373,3.9373,3.9373,3.9373,3.9373,3.9373,3.9373,3.9373,3.9445,3.9844,4.1428,4.1949,4.2331,4.3948,4.4378,4.4198,4.3462,4.3821,4.4039,4.2625,4.276,4.2801,4.1474,4.0595,4.0113,4.0113,4.0113,4.0113,0.0,0.0,0.0,0.0,0.0,0.0,0.0,0.0,0.0,0.0,3.7574,0.0,0.0,3.6073,3.5994,3.666,3.7516,3.8294,3.887,3.9876,4.1305,4.3172,4.2726,4.3504,4.55,4.479,4.4547,4.4615,4.4615,4.4615,4.4615,4.4615,4.4615,4.4615,4.4615,4.5026,4.5703,4.5703,4.6109,4.6684,4.6684,4.665,4.6481,5.3025,5.3832,5.488,5.6466,5.8052,5.9638,6.1253,6.2391,6.3079,6.3079,6.2151,6.1403,6.1134,6.0146,5.9219,5.859,5.7633,5.6944,5.6555,5.4431,5.2755,5.1858,5.0182,4.8536,4.695,4.4945,4.3419,0.0,0.0,0.0,0.0,0.0,0.0,0.0,0.0,3.8631,3.902,3.932,3.9373,3.9373,3.9373,3.9373,3.9373,3.9373,3.9373,3.9373,3.9373,3.9373,3.9373,3.9373,3.9373,3.9373,3.9373,3.9773,4.0413,4.1626,4.2363,4.3047,4.427,4.4615,4.4513,4.4181,4.435,4.4445,4.3836,4.3538,4.3206,4.2632,4.1576,4.0764,4.0764,4.0417,4.0113,4.0113,0.0,0.0,0.0,0.0,0.0,0.0,0.0,0.0,0.0,0.0,0.0,0.0,0.0,3.6468,3.6795,3.7922,3.87,3.8971,0.0,4.1847,4.2726,4.3369,4.4141,4.5026,4.475,4.4852,4.5263,4.5263,4.55,4.5906,4.5906,4.5906,4.5906,4.5906,4.6346,4.7022,4.7022,4.7225,4.7462,4.7462,4.6921,4.6143,5.5807,5.6196,5.7124,5.9548,6.0146,6.0894,6.278,6.2899,6.2869,6.3049,6.1762,6.0894,6.1104,6.0086,5.9129,5.8471,5.7603,5.6915,5.6466,5.4401,5.2875,5.2217,5.0511,0.0,4.7608,4.5843,4.4257,4.298,4.1624,0.0,0.0,0.0,0.0,0.0,3.926,3.9529,3.9978,3.9798,3.9709,3.9679,3.9499,3.9373,3.9373,3.9373,3.9373,3.9373,3.9373,3.9373,3.9373,3.9373,3.9373,3.9373,3.9373,3.999,4.0894,4.1723,4.2614,4.3502,4.4355,4.4615,4.4615,4.4615,4.4615,4.4615,4.4615,4.4147,4.3707,4.3443,4.2422,4.1474,4.1238,4.0764,4.035,4.0146,0.0,0.0,0.0,0.0,0.0,0.0,3.9639,3.9309,3.9309,3.8667,0.0,0.0,0.0,3.7472,3.7472,3.843,3.9073,0.0,0.0,0.0,4.2286,4.3572,4.4451,4.4925,4.4925,4.5297,4.6007,4.6007,4.6312,4.6786,4.6786,4.6786,4.6786,4.6786,4.7225,4.7906,4.7906,4.8007,4.821,4.821,4.7564,4.6718,5.7573,5.862,5.9697,6.1702,6.26,6.3049,6.3079,6.254,6.2331,6.2989,6.1343,6.0356,6.1044,6.0505,5.9817,5.9159,5.7872,5.7094,5.7094,5.464,5.2875,0.0,0.0,4.9568,4.8297,4.698,4.5633,4.4287,0.0,0.0,4.1392,0.0,4.1354,4.1354,4.1354,4.1392,4.1324,4.0666,4.0397,4.0337,3.9679,3.9373,3.9373,3.9373,3.9373,3.9373,3.9373,3.9373,3.9373,3.9373,3.9373,3.9373,3.9373,3.999,4.0894,4.1723,4.2614,4.3502,4.4355,4.4615,4.4615,4.4615,4.4615,4.4615,4.4615,4.4615,4.435,4.3572,4.2828,4.2049,4.1339,4.1204,4.0933,4.0214,0.0,0.0,0.0,0.0,0.0,0.0,4.0079,4.0079,4.0079,3.9436,0.0,0.0,0.0,0.0,0.0,0.0,0.0,4.0079,4.0832,0.0,4.2286,4.3064,4.4153,4.5703,4.5703,4.6075,4.6786,4.6786,4.6786,4.6786,4.6786,4.6786,4.6786,4.6786,4.7225,4.7906,4.7906,4.8376,4.8984,4.8984,4.8984,4.8849,5.9219,6.0356,6.1343,6.2002,6.263,6.3079,6.3079,6.2899,6.2839,6.3049,6.2121,6.1523,6.1762,6.0356,5.9159,0.0,5.7603,5.6915,0.0,5.485,5.3384,5.2247,5.1379,5.0092,4.8327,4.7429,4.6322,4.4975,0.0,0.0,0.0,4.2252,4.1841,4.1422,4.1422,4.1422,4.1362,4.0666,4.0666,4.0965,3.9858,3.9679,4.0038,3.9553,3.9373,3.9373,3.9373,3.9373,3.9373,3.9373,3.9373,3.9517,4.0095,4.0481,4.0894,4.1723,4.2614,4.3502,4.4355,4.4615,4.4615,4.4615,4.4615,4.4615,4.4615,4.4615,4.4547,4.4248,4.3606,4.2997,4.2733,4.188,4.1136,4.0899,4.0451,0.0,4.0113,0.0,0.0,4.0113,4.0113,4.0113,4.0113,3.991,0.0,0.0,0.0,0.0,0.0,0.0,0.0,0.0,4.1576,0.0,4.3064,4.3842,4.4722,4.5703,4.5703,4.6346,4.7597,4.8071,4.8308,4.8308,4.8308,4.8308,4.8308,4.8308,4.8443,4.8646,4.8646,4.8815,4.9018,4.9018,4.868,4.824,6.0655,6.1523,6.2181,6.2421,6.281,6.3079,6.3079,6.2869,6.272,6.272,6.1912,6.1343,6.1343,5.9997,5.9039,5.889,5.7782,5.6944,5.6526,5.5059,5.3713,5.2606,5.1947,5.0661,4.8686,4.8267,0.0,4.5693,4.5424,4.4736,4.3648,4.3269,4.2731,4.2102,4.2102,4.2102,4.2073,4.1414,4.1422,4.1692,4.0576,4.0247,4.0337,3.9948,3.9649,3.9373,3.9373,3.9373,3.9373,3.9373,3.9373,3.9553,4.0447,4.0927,4.1363,4.2237,4.3108,4.3919,4.444,4.4615,4.4615,4.4615,4.4615,4.4615,4.4615,4.4615,4.4615,4.4615,4.4181,4.3775,4.3443,4.2632,4.1847,4.1305,4.0798,4.0417,4.0146,0.0,4.0113,0.0,0.0,0.0,0.0,4.0113,4.0113,0.0,0.0,0.0,0.0,0.0,4.073,4.1204,4.2185,4.3098,4.3842,4.4621,4.55,4.6549,4.6819,4.7428,4.8342,4.8815,4.9018,4.9018,4.9018,4.9018,4.9018,4.9018,4.9018,4.9018,4.9018,4.9018,4.9018,4.9018,4.8714,4.8311,6.1852,6.2121,6.2361,6.2959,6.3079,6.3079,6.3079,6.257,6.2151,6.2091,6.0954,6.0146,6.0146,5.9518,5.9338,5.9967,0.0,0.0,5.7034,5.5269,5.3892,5.3204,5.2516,5.1229,4.9359,4.9269,4.8267,4.6339,4.5693,4.5035,4.4377,4.4347,4.3958,4.329,4.329,4.329,4.326,4.2641,4.241,4.241,4.1692,4.1025,4.0516,4.0487,4.0098,3.9523,3.9499,3.9463,3.9433,3.9439,3.9373,3.9589,4.0485,4.133,4.2173,4.3047,4.3919,4.4615,4.4615,4.4615,4.4615,4.4615,4.4615,4.4615,4.4682,4.4649,4.4615,4.4682,4.4649,4.435,4.3639,4.3443,4.2902,4.1508,4.1238,4.0933,4.0214,4.0113,4.0113,0.0,0.0,0.0,4.0113,4.0146,4.018,0.0,0.0,0.0,0.0,0.0,4.1407,4.1373,4.276,4.391,4.475,4.5432,4.6515,4.7906,4.8646,4.9018,4.9018,4.9018,4.9018,4.9018,4.9018,4.9018,4.9018,4.9018,4.9018,4.9018,4.9018,4.9018,4.9018,4.9018,4.9018,4.9018,6.2032,6.251,6.2899,6.3049,6.3079,6.3079,6.3079,6.2959,6.266,6.2151,6.1373,6.0864,6.0864,5.9817,5.9159,5.9308,5.7962,5.6885,5.6406,5.5029,5.3892,5.3204,5.2067,5.078,4.9329,4.882,4.8027,4.707,4.6411,4.5723,4.5035,4.4556,4.3958,4.329,4.329,4.329,4.326,4.2641,4.2641,4.3,4.1833,4.1632,4.1871,4.1354,4.1055,4.0846,4.0337,4.0157,4.0098,3.9553,3.9373,3.9666,4.1229,4.182,4.2173,4.3047,4.3919,4.4615,4.4615,4.4615,4.4615,4.4615,4.4615,4.475,4.5297,4.4993,4.4784,4.5331,4.4993,4.4547,4.435,4.3809,4.3105,4.2185,4.1576,4.0933,4.0214,4.0113,4.0113,0.0,4.0595,4.0696,4.0146,4.0595,4.0933,0.0,0.0,4.1373,4.1745,4.3031,4.3504,4.2902,4.3809,4.4925,4.6273,4.6447,4.6989,4.7906,4.8646,4.9018,4.9018,4.9018,4.9018,4.9018,4.9018,4.9018,4.9018,4.9018,4.9018,4.9018,4.9018,4.9018,4.9018,4.9018,4.9018,4.9018,6.248,6.2839,6.3079,6.3079,6.3079,6.3079,6.3079,6.3079,6.272,6.1762,6.1343,6.0775,5.9847,5.9099,5.8411,5.7812,5.7363,5.6825,5.6226,5.494,5.3892,5.3204,5.2217,5.093,4.9329,4.897,4.8267,4.7309,4.6651,4.5963,4.5274,4.4616,4.3958,4.329,4.329,4.329,4.326,4.294,4.3,4.323,4.2551,4.2312,4.2351,4.2021,4.1692,4.1294,4.0636,4.0397,4.0337,3.9978,3.9858,4.0215,4.2313,4.2973,4.3234,4.4525,4.4745,4.4615,4.4615,4.4852,4.5162,4.55,4.563,4.5703,4.6109,4.5872,4.5703,4.6109,4.5872,4.55,4.5162,4.4756,4.3978,4.2523,4.2252,4.1847,4.073,4.0865,4.1128,4.1128,4.1745,4.1914,4.1196,4.2117,4.2455,4.1745,4.2354,0.0,4.2794,4.4248,4.4756,4.3978,4.5026,4.6143,4.7293,4.7631,4.8003,4.8409,4.8815,4.9018,4.9018,4.9018,4.9018,4.9018,4.9018,4.9018,4.9018,4.9018,4.9018,4.9018,4.9018,4.9018,4.9018,4.9018,4.9018,4.9018,6.2959,6.3079,6.3079,6.3079,6.3079,6.3079,6.3079,6.3079,6.26,6.1283,6.1104,6.0386,5.8471,5.8261,5.7782,5.6585,5.6855,5.6735,5.5927,5.473,5.3743,5.3054,5.2217,5.099,4.9359,4.912,4.8416,4.7309,4.6741,4.6082,4.5274,4.4736,4.4047,4.329,4.329,4.329,4.329,4.329,4.329,4.329,4.329,4.3,4.256,4.256,4.2201,4.1594,4.0935,4.0696,4.0696,4.0576,4.0546,4.0975,4.3355,4.4125,4.446,4.624,4.5906,4.4953,4.4953,4.5399,4.6007,4.6616,4.6786,4.6819,4.6921,4.6887,4.6819,4.6921,4.6887,4.6583,4.5838,4.5703,4.4993,4.2828,4.2997,4.2902,4.1576,0.0,4.232,4.2455,4.3132,4.3335,4.2692,4.3938,4.4215,4.2895,4.4012,4.4519,4.3944,4.5263,4.5737,4.5122,4.6312,4.7327,4.8041,4.8714,4.9052,4.9154,4.9052,4.9052,4.9154,4.9052,4.9018,4.9018,4.9018,4.9018,4.9018,4.9018,4.9018,4.9018,4.9018,4.9018,4.9018,4.9018,4.9018,4.9018,6.3049,6.3079,6.3079,6.3079,6.3079,6.3079,6.3079,6.3079,6.26,6.1283,6.1104,6.0565,5.9099,5.8949,5.865,5.7872,5.7363,5.6346,5.461,5.3773,5.3054,5.2366,5.0661,4.9629,4.9329,4.8177,4.7519,4.7309,4.7219,4.6531,4.5304,4.5185,4.4496,4.329,4.329,4.329,4.329,4.329,4.329,4.329,4.329,4.323,4.314,4.314,4.308,4.2901,4.2321,4.2081,4.2021,4.1452,4.1235,4.1579,4.3513,4.4125,4.446,4.624,4.6616,4.6447,4.6447,4.6515,4.665,4.6752,4.6786,4.6955,4.7597,4.7259,4.6989,4.7597,4.7225,4.6583,4.5838,4.5703,4.5162,4.3504,4.3308,4.3098,4.2252,0.0,4.2523,4.3166,4.3944,4.4378,4.4276,4.5026,4.5432,4.5196,4.5399,4.5737,4.6244,4.709,4.753,4.7394,4.7631,4.8105,4.8815,4.8951,4.9323,4.9898,4.9289,4.9323,4.9898,4.9289,4.9018,4.9018,4.9018,4.9018,4.9018,4.9018,4.9018,4.9018,4.9018,4.9018,4.9018,4.9018,4.9018,4.9018,6.3079,6.3079,6.3079,6.3079,6.3079,6.3079,6.3079,6.278,6.2211,6.1253,6.0805,6.0057,5.871,5.859,5.8171,5.7154,5.6765,5.5927,5.4311,5.3563,5.2875,5.2217,5.099,5.0002,4.9329,4.7967,4.7309,4.7309,4.695,4.6441,4.5843,4.5095,4.4436,4.3798,4.3439,4.329,4.329,4.329,4.329,4.329,4.329,4.329,4.329,4.329,4.329,4.32,4.265,4.241,4.2428,4.2636,4.2701,4.299,4.47,4.5556,4.6159,4.697,4.7029,4.6887,4.7293,4.7394,4.7496,4.7902,4.797,4.8071,4.8409,4.824,4.8071,4.8443,4.824,4.7767,4.7022,4.6549,4.594,4.4823,4.4316,4.391,4.3599,4.3876,4.4248,4.4621,4.5669,4.621,4.5833,4.6819,4.7327,4.6891,4.7259,4.78,4.8545,4.8511,4.868,4.9086,4.9086,4.9255,4.9593,4.9999,5.0371,5.0676,5.0371,5.0371,5.0676,4.9932,4.9593,4.956,4.9187,4.9018,4.9018,4.9018,4.9018,4.9018,4.9018,4.9018,4.9018,4.9018,4.9018,4.9018,6.3079,6.3079,6.3079,6.3079,6.3079,6.3079,6.3079,6.251,6.1852,6.1194,6.0505,5.9638,5.8471,5.8351,5.7872,5.6735,5.6466,5.5837,5.4521,5.3653,5.2875,5.2217,5.1289,5.0212,4.912,4.7908,4.7309,4.7309,4.68,4.6429,4.6249,4.5274,4.4706,4.4526,4.3977,4.3678,4.3529,4.3529,4.3439,4.329,4.329,4.329,4.329,4.329,4.329,4.323,4.2761,4.262,4.2775,4.371,4.4043,4.4325,4.6013,4.7134,4.7902,4.8133,4.8015,4.7902,4.8308,4.8308,4.8311,4.9086,4.912,4.9018,4.9018,4.9018,4.9052,4.9221,4.9255,4.9052,4.8308,4.7699,4.6989,4.6109,0.0,4.5122,4.5122,4.5602,4.6075,4.6447,4.7496,4.8071,4.7834,4.8849,4.9289,4.8683,4.9187,4.9763,5.0338,4.983,4.9763,5.0338,5.0168,5.0168,5.0338,5.0913,5.1286,5.1454,5.1285,5.1286,5.1454,5.0676,5.0236,5.0067,4.9492,4.9154,4.9018,4.9018,4.9018,4.9018,4.9018,4.912,4.9221,4.9052,4.9221,4.9458,6.3079,6.3079,6.3079,6.3079,6.3079,6.3079,6.3079,6.251,6.1852,6.1194,6.0505,5.9817,5.9099,5.9039,5.874,5.8052,5.7393,5.6496,5.5209,5.3892,5.2875,5.2217,5.0421,4.912,4.8386,4.7668,4.7309,4.7309,4.7249,4.692,4.6279,4.619,4.5843,4.5214,4.5155,4.4825,4.4257,4.4257,4.3898,4.329,4.329,4.329,4.329,4.329,4.329,4.329,4.323,4.323,4.3358,4.4411,4.4719,4.5054,4.6902,4.8033,4.8795,4.9648,5.0342,5.0744,5.0101,4.9424,4.9086,4.983,4.9492,4.9018,4.9018,4.9018,4.9187,4.9864,4.9999,4.9796,4.9052,4.8883,4.8376,4.6955,0.0,0.0,4.6616,4.6684,4.7225,4.8578,4.8849,4.9424,5.0777,5.0948,5.1048,5.0948,5.0982,5.105,5.115,5.1082,5.105,5.115,5.0473,5.0439,5.1116,5.1183,5.1555,5.2198,5.1555,5.1589,5.2198,5.1454,5.0744,5.0101,5.0033,4.9627,4.9018,4.9018,4.9018,4.9018,4.9018,4.9424,4.9932,4.9255,4.9864,5.0813,6.3079,6.3079,6.3079,6.3079,6.3079,6.3079,6.3079,6.251,6.1852,6.1194,6.0505,5.9847,5.9189,5.9099,5.865,5.7573,5.7244,5.6555,5.5269,5.3922,5.2695,5.1648,5.0481,4.9553,4.894,4.8237,4.7728,4.7309,4.7309,4.7189,4.692,4.6459,4.613,4.5903,4.5484,4.5155,4.4915,4.4915,4.4556,4.3917,4.3917,4.3648,4.329,4.329,4.329,4.329,4.329,4.329,4.3448,4.4472,4.519,4.5877,4.7039,4.8428,4.9719,5.0546,5.098,5.1251,5.142,5.0947,5.0439,5.071,5.0574,5.0371,5.0371,5.0371,5.0439,5.0744,5.0777,5.071,5.0439,4.9999,4.9661,4.956,0.0,4.8308,4.8781,4.8849,4.9052,4.9627,5.0101,5.0576,5.1151,5.1185,5.1386,5.186,5.1894,5.2097,5.2604,5.2164,5.1894,5.1894,5.1623,5.1589,5.1894,5.2401,5.2773,5.3044,5.2773,5.2773,5.301,5.2232,5.1725,5.142,5.098,5.0642,5.0371,5.0371,5.0371,5.0371,5.0371,5.0541,5.0744,5.0473,5.0744,5.1082,6.3079,6.3079,6.3079,6.3079,6.3079,6.3079,6.3079,6.251,6.1852,6.1194,6.0505,5.9847,5.9189,5.9099,5.856,5.7214,5.7094,5.6555,5.5269,5.3922,5.2606,5.1289,5.0554,4.9942,4.9329,4.8626,4.7967,4.7309,4.7309,4.7309,4.7309,4.683,4.6621,4.6621,4.6142,4.5813,4.5603,4.5603,4.5244,4.4616,4.4616,4.4227,4.3618,4.3828,4.3798,4.3589,4.3589,4.3738,4.4058,4.4803,4.5887,4.6981,4.7816,4.929,5.0947,5.1725,5.1928,5.2029,5.2536,5.2334,5.186,5.1623,5.1386,5.1185,5.1185,5.1185,5.1252,5.1522,5.1555,5.1555,5.1555,5.115,5.0879,5.1183,5.0371,4.9864,5.0371,5.0439,5.0541,5.0744,5.1251,5.1657,5.1928,5.1928,5.2131,5.2638,5.2672,5.2909,5.3484,5.2976,5.2672,5.2672,5.2672,5.2672,5.2672,5.3213,5.3518,5.3518,5.3518,5.3518,5.3484,5.2942,5.2536,5.2266,5.1792,5.1388,5.1185,5.1185,5.1185,5.1185,5.1185,5.132,5.1522,5.1286,5.1522,5.1792,6.3079,6.3079,6.3079,6.3079,6.3079,6.3079,6.3079,6.251,6.1852,6.1194,6.0505,5.9847,5.9189,5.9099,5.856,5.7214,5.7094,5.6555,5.5269,5.3922,5.2606,5.1289,5.0554,4.9942,4.9329,4.8626,4.7967,4.7309,4.7309,4.7309,4.7309,4.7309,4.7309,4.7309,4.7309,4.695,4.6279,4.6279,4.5933,4.5304,4.5304,4.4915,4.4377,4.5035,4.4885,4.4317,4.4317,4.4736,4.535,4.5633,4.6856,4.8469,4.9398,5.0926,5.2469,5.3281,5.3518,5.3518,5.3518,5.3518,5.3315,5.2503,5.1758,5.1219,5.1219,5.1219,5.1454,5.2164,5.23,5.23,5.23,5.23,5.2063,5.132,5.1219,5.1219,5.1219,5.1219,5.1488,5.2232,5.23,5.2638,5.3416,5.3518,5.3518,5.3518,5.3518,5.3518,5.3518,5.3518,5.3518,5.3518,5.3518,5.3518,5.3518,5.3518,5.3518,5.3518,5.3518,5.3518,5.3518,5.3518,5.3078,5.23,5.23,5.1894,5.1219,5.1219,5.1219,5.1219,5.1219,5.1691,5.2232,5.1488,5.2198,5.3281,6.3079,6.3079,6.3079,6.3079,6.3079,6.2929,6.245,6.2211,6.1702,6.0535,6.0206,5.9847,5.9189,5.9099,5.856,5.7214,5.7094,5.6346,5.461,5.3683,5.2785,5.1947,5.1289,5.0391,4.9329,4.912,4.8656,4.7997,4.7519,4.7549,4.7967,4.7519,4.7309,4.7309,4.7309,4.7189,4.701,4.701,4.6621,4.6022,4.6022,4.5603,4.5035,4.5214,4.5185,4.5005,4.5005,4.5627,4.6441,4.6539,4.7797,4.9604,5.1094,5.227,5.3179,5.345,5.3518,5.3518,5.3518,5.3518,5.345,5.3213,5.2976,5.2807,5.2807,5.2807,5.2875,5.3112,5.3145,5.3145,5.3145,5.3145,5.3078,5.2841,5.2807,5.2807,5.2807,5.2807,5.2909,5.3112,5.3145,5.3247,5.3484,5.3518,5.3518,5.3518,5.3518,5.3518,5.3518,5.3518,5.3518,5.3518,5.3518,5.3518,5.3518,5.3518,5.3518,5.3518,5.3518,5.3518,5.3518,5.3518,5.3382,5.3145,5.3145,5.301,5.2807,5.2807,5.2807,5.2807,5.2807,5.2942,5.3112,5.2909,5.3112,5.3348,6.3079,6.3079,6.3079,6.3079,6.3079,6.2929,6.254,6.2271,6.1702,6.0625,6.0266,5.9847,5.9189,5.9099,5.856,5.7214,5.6645,5.5837,5.467,5.3952,5.3294,5.2606,5.1947,5.099,4.9673,4.9643,4.9194,4.8297,4.8147,4.8027,4.7908,4.7758,4.7549,4.7309,4.7309,4.7309,4.7309,4.7309,4.707,4.6711,4.6711,4.6292,4.5723,4.5992,4.5933,4.5735,4.6161,4.6894,4.7689,4.7847,4.9116,5.0878,5.2337,5.3112,5.3518,5.3518,5.3518,5.3518,5.3518,5.3518,5.3518,5.3518,5.3518,5.3518,5.3518,5.3518,5.3518,5.3518,5.3518,5.3518,5.3518,5.3518,5.3518,5.3518,5.3518,5.3518,5.3518,5.3518,5.3518,5.3518,5.3518,5.3518,5.3518,5.3518,5.3518,5.3518,5.3518,5.3518,5.3518,5.3518,5.3518,5.3518,5.3518,5.3518,5.3518,5.3518,5.3518,5.3518,5.3518,5.3518,5.3518,5.3518,5.3518,5.3518,5.3518,5.3518,5.3518,5.3518,5.3518,5.3518,5.3518,5.3518,5.3518,5.3518,5.3518,5.345,6.3079,6.3079,6.3079,6.3079,6.3079,6.3049,6.2989,6.2421,6.1762,6.1104,6.0416,5.9757,5.9159,5.9099,5.859,5.7304,5.6017,5.5239,5.5179,5.4581,5.3922,5.3294,5.2636,5.1738,5.0495,5.0285,4.9643,4.8446,4.906,4.87,4.7489,4.8027,4.7938,4.7309,4.7309,4.7309,4.7309,4.7309,4.7309,4.7309,4.7309,4.695,4.6471,4.707,4.692,4.6509,4.7538,4.8323,4.9041,4.9591,5.0786,5.2205,5.3179,5.3518,5.3518,5.3518,5.3518,5.3518,5.3518,5.3518,5.3518,5.3518,5.3518,5.3518,5.3518,5.3518,5.3518,5.3518,5.3518,5.3518,5.3518,5.3518,5.3518,5.3518,5.3518,5.3518,5.3518,5.3518,5.3518,5.3518,5.3518,5.3518,5.3518,5.3518,5.3518,5.3518,5.3518,5.3518,5.3518,5.3518,5.3518,5.3518,5.3518,5.3518,5.3518,5.3518,5.3518,5.3518,5.3518,5.3518,5.3518,5.3518,5.3518,5.3518,5.3518,5.3518,5.3518,5.3518,5.3518,5.3518,5.3518,5.3518,5.3518,5.3518,5.3518,5.3618,6.3079,6.3079,6.3079,6.3079,6.3079,6.2899,6.2391,6.1762,6.1074,6.0386,5.9727,5.9249,5.9129,5.9099,5.877,5.7962,5.6705,5.5748,5.5209,5.4581,5.4132,5.3982,5.3324,5.2845,5.2546,5.102,5.0046,4.9777,4.9434,4.9179,4.888,4.8446,4.7938,4.7309,4.7309,4.7309,4.7309,4.7309,4.7309,4.7309,4.7309,4.7219,4.71,4.7249,4.7219,4.7199,4.8214,4.9211,5.0288,5.204,5.2839,5.3179,5.3416,5.3518,5.3518,5.3518,5.3518,5.3518,5.3518,5.3518,5.3518,5.3518,5.3518,5.3518,5.3518,5.3518,5.3518,5.3518,5.3518,5.3518,5.3518,5.3518,5.3518,5.3518,5.3518,5.3518,5.3518,5.3518,5.3518,5.3518,5.3518,5.3518,5.3518,5.3518,5.3518,5.3518,5.3518,5.3518,5.3518,5.3518,5.3518,5.3518,5.3518,5.3518,5.3518,5.3518,5.3518,5.3518,5.3518,5.3518,5.3518,5.3518,5.3518,5.3518,5.3518,5.3518,5.3518,5.3518,5.3518,5.3518,5.3518,5.3518,5.3518,5.3518,5.3518,5.3618,6.3079,6.3079,6.3079,6.3079,6.3079,6.2839,6.2181,6.1523,6.0864,6.0176,5.9518,5.9099,5.9099,5.9099,5.871,5.7723,5.6735,5.5948,5.5239,5.488,5.4551,5.4221,5.3563,5.3025,5.2725,5.1379,5.0674,5.0674,5.0361,4.9883,4.9299,4.9224,4.8716,4.7788,4.7788,4.7608,4.7309,4.7309,4.7309,4.7309,4.7309,4.7309,4.7309,4.7309,4.7309,4.7409,4.846,4.9813,5.1373,5.2972,5.3518,5.3518,5.3518,5.3754,5.3957,5.3619,5.3754,5.3957,5.3585,5.3518,5.3518,5.3518,5.3754,5.4025,5.4025,5.3754,5.3721,5.4397,5.4262,5.4126,5.4499,5.4566,5.4566,5.4566,5.4262,5.4025,5.4025,5.3721,5.3518,5.3518,5.3518,5.3518,5.3518,5.3822,5.4025,5.4025,5.4363,5.4566,5.4566,5.4566,5.4397,5.4025,5.4025,5.3856,5.3518,5.3518,5.3518,5.3518,5.3518,5.3518,5.3518,5.3518,5.3518,5.3518,5.3518,5.3518,5.3518,5.3518,5.3518,5.3518,5.3518,5.3518,5.3518,5.3518,5.3946,5.4668,6.3079,6.3079,6.3079,6.3079,6.3079,6.2839,6.2181,6.1642,6.1044,6.0356,5.9787,5.9398,5.9279,5.9159,5.862,5.7363,5.6705,5.6047,5.5388,5.5239,5.494,5.4401,5.3713,5.3144,5.2725,5.1828,5.1319,5.1229,5.1229,5.0601,4.9434,5.0002,4.9613,4.8446,4.8446,4.8087,4.7489,4.7489,4.7399,4.7309,4.7309,4.7309,4.7309,4.7309,4.7309,4.7452,4.8636,5.0403,5.2312,5.3179,5.3518,5.3518,5.3518,5.3923,5.4329,5.3822,5.4126,5.4465,5.4025,5.389,5.389,5.389,5.4329,5.4803,5.4938,5.4296,5.4059,5.5446,5.5108,5.4837,5.5581,5.5681,5.5681,5.5681,5.5209,5.4769,5.4769,5.4262,5.389,5.389,5.389,5.389,5.389,5.4431,5.4769,5.4769,5.5344,5.5649,5.5547,5.5513,5.5175,5.4431,5.4397,5.4126,5.3518,5.3518,5.3518,5.3518,5.3518,5.3518,5.3518,5.3518,5.3518,5.3518,5.3518,5.3518,5.3518,5.3518,5.3518,5.3518,5.3518,5.3518,5.3518,5.3651,5.4544,5.5836,6.3079,6.3079,6.3079,6.3079,6.3079,6.2839,6.2181,6.2032,6.1732,6.1074,6.0894,6.0625,6.0027,5.9458,5.88,5.8052,5.7363,5.6705,5.6077,5.5508,5.5149,5.5059,5.4431,5.4281,5.476,5.2995,5.1798,5.1229,5.1229,5.084,5.0076,5.0136,4.9853,4.9179,4.9179,4.882,4.8147,4.8147,4.7818,4.7309,4.7309,4.7309,4.7309,4.7309,4.7309,4.7538,4.9456,5.1521,5.3314,5.345,5.3518,5.3518,5.3518,5.3585,5.3754,5.4296,5.4499,5.4702,5.5277,5.5412,5.5412,5.5412,5.5513,5.5716,5.6359,5.5446,5.4702,5.5547,5.5108,5.4837,5.5581,5.5681,5.5681,5.5681,5.5649,5.5581,5.5581,5.548,5.5412,5.5412,5.5412,5.5412,5.5412,5.5513,5.5581,5.5581,5.5649,5.5446,5.4769,5.4735,5.4397,5.3687,5.3653,5.3619,5.3518,5.3518,5.3518,5.3518,5.3518,5.3518,5.3518,5.3518,5.3518,5.3518,5.3518,5.3518,5.3518,5.3518,5.3518,5.3518,5.3518,5.3518,5.3584,5.42,5.4999,5.5836,6.26,6.281,6.3079,6.3079,6.278,6.2301,6.1642,6.1553,6.1164,6.0116,6.0326,6.0296,5.9608,5.9279,5.868,5.7633,5.7274,5.6675,5.5688,5.5359,5.5179,5.5179,5.4551,5.4162,5.4072,5.2845,5.1887,5.1229,5.1229,5.1079,5.0734,5.0734,5.0421,4.9793,4.9793,4.9254,4.8297,4.8297,4.7908,4.7309,4.7309,4.7309,4.7309,4.7309,4.7309,4.7611,5.0136,5.1699,5.2831,5.4259,5.4465,5.4194,5.46,5.5006,5.5344,5.5243,5.5513,5.5818,5.5716,5.5681,5.5681,5.5681,5.6021,5.6393,5.6731,5.6292,5.6055,5.6765,5.6325,5.6055,5.6799,5.6934,5.6934,5.6934,5.6596,5.6325,5.6325,5.5987,5.5681,5.5681,5.5681,5.5681,5.5681,5.6089,5.6325,5.6325,5.6697,5.6799,5.6461,5.6427,5.6089,5.5378,5.4938,5.4532,5.4126,5.3721,5.3518,5.3518,5.3518,5.3518,5.3518,5.3518,5.3518,5.3518,5.3518,5.3518,5.3518,5.3518,5.3518,5.3518,5.3518,5.375,5.4232,5.5443,5.6095,5.6474]}]]